Wetterdaten: Dienstag, 18.10.2016
Datum Zeit Temp. A. Temp. A. max Feuchte A. Luftdruck Regen Wind Richtung Richtung Sonnenschein ET UV Solar Taupunkt Windböen
18.10.2016 00:00 10,0 °C 10,0 °C 94 % 1022,6 hPa 0,0 mm 0,7 km/h (0 Bft) S-SW 210 ° 0 min 0,000 mm 0,0 UV-I 0 W/m² 9,1 °C 1,6 km/h (1 Bft)
18.10.2016 00:01 10,0 °C 10,1 °C 94 % 1022,6 hPa 0,0 mm 1,1 km/h (1 Bft) S-SW 210 ° 0 min 0,000 mm 0,0 UV-I 0 W/m² 9,1 °C 1,6 km/h (1 Bft)
18.10.2016 00:02 10,0 °C 10,0 °C 94 % 1022,6 hPa 0,2 mm 1,6 km/h (1 Bft) S-SW 210 ° 0 min 0,000 mm 0,0 UV-I 0 W/m² 9,1 °C 3,2 km/h (1 Bft)
18.10.2016 00:03 9,9 °C 10,1 °C 94 % 1022,6 hPa 0,0 mm 1,1 km/h (1 Bft) S-SW 210 ° 0 min 0,000 mm 0,0 UV-I 0 W/m² 9,0 °C 3,2 km/h (1 Bft)
18.10.2016 00:04 10,0 °C 10,0 °C 94 % 1022,6 hPa 0,0 mm 2,3 km/h (1 Bft) S 186 ° 0 min 0,000 mm 0,0 UV-I 0 W/m² 9,1 °C 4,8 km/h (1 Bft)
18.10.2016 00:05 10,0 °C 10,0 °C 94 % 1022,6 hPa 0,0 mm 2,3 km/h (1 Bft) S 186 ° 0 min 0,000 mm 0,0 UV-I 0 W/m² 9,1 °C 3,2 km/h (1 Bft)
18.10.2016 00:06 10,0 °C 10,0 °C 94 % 1022,6 hPa 0,0 mm 2,1 km/h (1 Bft) S 186 ° 0 min 0,000 mm 0,0 UV-I 0 W/m² 9,1 °C 3,2 km/h (1 Bft)
18.10.2016 00:07 10,0 °C 10,1 °C 94 % 1022,6 hPa 0,0 mm 1,5 km/h (1 Bft) S 186 ° 0 min 0,000 mm 0,0 UV-I 0 W/m² 9,1 °C 3,2 km/h (1 Bft)
18.10.2016 00:08 9,9 °C 10,0 °C 94 % 1022,6 hPa 0,0 mm 2,4 km/h (1 Bft) S 186 ° 0 min 0,000 mm 0,0 UV-I 0 W/m² 9,0 °C 4,8 km/h (1 Bft)
18.10.2016 00:09 10,0 °C 10,0 °C 94 % 1022,6 hPa 0,0 mm 1,6 km/h (1 Bft) S 186 ° 0 min 0,000 mm 0,0 UV-I 0 W/m² 9,1 °C 3,2 km/h (1 Bft)
18.10.2016 00:10 10,0 °C 10,0 °C 94 % 1022,5 hPa 0,0 mm 0,7 km/h (0 Bft) S 186 ° 0 min 0,000 mm 0,0 UV-I 0 W/m² 9,1 °C 1,6 km/h (1 Bft)
18.10.2016 00:11 10,0 °C 10,0 °C 94 % 1022,5 hPa 0,0 mm 0,8 km/h (0 Bft) S 186 ° 0 min 0,000 mm 0,0 UV-I 0 W/m² 9,1 °C 1,6 km/h (1 Bft)
18.10.2016 00:12 9,9 °C 10,0 °C 94 % 1022,5 hPa 0,0 mm 1,5 km/h (1 Bft) S 186 ° 0 min 0,000 mm 0,0 UV-I 0 W/m² 9,0 °C 3,2 km/h (1 Bft)
18.10.2016 00:13 9,9 °C 10,0 °C 94 % 1022,6 hPa 0,0 mm 1,1 km/h (1 Bft) S 186 ° 0 min 0,000 mm 0,0 UV-I 0 W/m² 9,0 °C 1,6 km/h (1 Bft)
18.10.2016 00:14 9,9 °C 10,0 °C 94 % 1022,6 hPa 0,0 mm 1,1 km/h (1 Bft) S 186 ° 0 min 0,000 mm 0,0 UV-I 0 W/m² 9,0 °C 3,2 km/h (1 Bft)
18.10.2016 00:15 9,9 °C 9,9 °C 94 % 1022,5 hPa 0,0 mm 1,3 km/h (1 Bft) S 186 ° 0 min 0,000 mm 0,0 UV-I 0 W/m² 9,0 °C 3,2 km/h (1 Bft)
18.10.2016 00:16 9,9 °C 9,9 °C 94 % 1022,5 hPa 0,0 mm 1,6 km/h (1 Bft) S 186 ° 0 min 0,000 mm 0,0 UV-I 0 W/m² 9,0 °C 3,2 km/h (1 Bft)
18.10.2016 00:17 9,9 °C 9,9 °C 94 % 1022,5 hPa 0,0 mm 2,2 km/h (1 Bft) S 186 ° 0 min 0,000 mm 0,0 UV-I 0 W/m² 9,0 °C 3,2 km/h (1 Bft)
18.10.2016 00:18 9,9 °C 9,9 °C 94 % 1022,5 hPa 0,0 mm 1,1 km/h (1 Bft) S 186 ° 0 min 0,000 mm 0,0 UV-I 0 W/m² 9,0 °C 3,2 km/h (1 Bft)
18.10.2016 00:19 9,9 °C 9,9 °C 94 % 1022,5 hPa 0,0 mm 1,0 km/h (0 Bft) S 186 ° 0 min 0,000 mm 0,0 UV-I 0 W/m² 9,0 °C 1,6 km/h (1 Bft)
18.10.2016 00:20 9,9 °C 9,9 °C 94 % 1022,5 hPa 0,0 mm 0,6 km/h (0 Bft) S 186 ° 0 min 0,000 mm 0,0 UV-I 0 W/m² 9,0 °C 1,6 km/h (1 Bft)
18.10.2016 00:21 9,9 °C 9,9 °C 94 % 1022,5 hPa 0,0 mm 1,6 km/h (1 Bft) S 186 ° 0 min 0,000 mm 0,0 UV-I 0 W/m² 9,0 °C 3,2 km/h (1 Bft)
18.10.2016 00:22 9,9 °C 9,9 °C 94 % 1022,5 hPa 0,0 mm 1,3 km/h (1 Bft) S 186 ° 0 min 0,000 mm 0,0 UV-I 0 W/m² 9,0 °C 3,2 km/h (1 Bft)
18.10.2016 00:23 9,9 °C 9,9 °C 94 % 1022,5 hPa 0,0 mm 0,9 km/h (0 Bft) S 186 ° 0 min 0,000 mm 0,0 UV-I 0 W/m² 9,0 °C 3,2 km/h (1 Bft)
18.10.2016 00:24 9,9 °C 9,9 °C 95 % 1022,5 hPa 0,0 mm 3,2 km/h (1 Bft) S 171 ° 0 min 0,000 mm 0,0 UV-I 0 W/m² 9,1 °C 4,8 km/h (1 Bft)
18.10.2016 00:25 9,9 °C 9,9 °C 95 % 1022,5 hPa 0,0 mm 2,3 km/h (1 Bft) S-SW 194 ° 0 min 0,000 mm 0,0 UV-I 0 W/m² 9,1 °C 3,2 km/h (1 Bft)
18.10.2016 00:26 9,9 °C 9,9 °C 95 % 1022,5 hPa 0,0 mm 1,9 km/h (1 Bft) S-SW 195 ° 0 min 0,000 mm 0,0 UV-I 0 W/m² 9,1 °C 3,2 km/h (1 Bft)
18.10.2016 00:27 9,9 °C 9,9 °C 94 % 1022,5 hPa 0,0 mm 1,4 km/h (1 Bft) S-SW 201 ° 0 min 0,000 mm 0,0 UV-I 0 W/m² 9,0 °C 3,2 km/h (1 Bft)
18.10.2016 00:28 9,9 °C 9,9 °C 95 % 1022,5 hPa 0,0 mm 0,3 km/h (0 Bft) S-SW 201 ° 0 min 0,000 mm 0,0 UV-I 0 W/m² 9,1 °C 1,6 km/h (1 Bft)
18.10.2016 00:29 9,9 °C 9,9 °C 94 % 1022,4 hPa 0,0 mm 0,4 km/h (0 Bft) S-SW 201 ° 0 min 0,000 mm 0,0 UV-I 0 W/m² 9,0 °C 1,6 km/h (1 Bft)
18.10.2016 00:30 9,9 °C 9,9 °C 94 % 1022,5 hPa 0,0 mm 1,2 km/h (1 Bft) S-SW 201 ° 0 min 0,000 mm 0,0 UV-I 0 W/m² 9,0 °C 3,2 km/h (1 Bft)
18.10.2016 00:31 9,9 °C 9,9 °C 95 % 1022,5 hPa 0,0 mm 0,4 km/h (0 Bft) S-SW 201 ° 0 min 0,000 mm 0,0 UV-I 0 W/m² 9,1 °C 1,6 km/h (1 Bft)
18.10.2016 00:32 9,9 °C 9,9 °C 95 % 1022,5 hPa 0,0 mm 0,5 km/h (0 Bft) S-SW 201 ° 0 min 0,000 mm 0,0 UV-I 0 W/m² 9,1 °C 1,6 km/h (1 Bft)
18.10.2016 00:33 9,8 °C 9,9 °C 95 % 1022,4 hPa 0,0 mm 0,7 km/h (0 Bft) S-SW 201 ° 0 min 0,000 mm 0,0 UV-I 0 W/m² 9,0 °C 1,6 km/h (1 Bft)
18.10.2016 00:34 9,8 °C 9,9 °C 95 % 1022,4 hPa 0,0 mm 0,1 km/h (0 Bft) S-SW 201 ° 0 min 0,000 mm 0,0 UV-I 0 W/m² 9,0 °C 1,6 km/h (1 Bft)
18.10.2016 00:35 9,8 °C 9,8 °C 95 % 1022,4 hPa 0,0 mm 0,3 km/h (0 Bft) S-SW 201 ° 0 min 0,000 mm 0,0 UV-I 0 W/m² 9,0 °C 1,6 km/h (1 Bft)
18.10.2016 00:36 9,8 °C 9,8 °C 95 % 1022,5 hPa 0,0 mm 0,9 km/h (0 Bft) S-SW 201 ° 0 min 0,000 mm 0,0 UV-I 0 W/m² 9,0 °C 1,6 km/h (1 Bft)
18.10.2016 00:37 9,8 °C 9,8 °C 95 % 1022,4 hPa 0,0 mm 0,1 km/h (0 Bft) S-SW 201 ° 0 min 0,000 mm 0,0 UV-I 0 W/m² 9,0 °C 1,6 km/h (1 Bft)
18.10.2016 00:38 9,8 °C 9,8 °C 95 % 1022,4 hPa 0,0 mm 0,0 km/h (0 Bft) S-SW 201 ° 0 min 0,000 mm 0,0 UV-I 0 W/m² 9,0 °C 0,0 km/h (0 Bft)
18.10.2016 00:39 9,7 °C 9,8 °C 95 % 1022,4 hPa 0,0 mm 0,2 km/h (0 Bft) S-SW 201 ° 0 min 0,000 mm 0,0 UV-I 0 W/m² 8,9 °C 1,6 km/h (1 Bft)
18.10.2016 00:40 9,8 °C 9,8 °C 95 % 1022,4 hPa 0,0 mm 0,5 km/h (0 Bft) S-SW 201 ° 0 min 0,000 mm 0,0 UV-I 0 W/m² 9,0 °C 1,6 km/h (1 Bft)
18.10.2016 00:41 9,8 °C 9,8 °C 95 % 1022,5 hPa 0,2 mm 0,3 km/h (0 Bft) S-SW 201 ° 0 min 0,000 mm 0,0 UV-I 0 W/m² 9,0 °C 1,6 km/h (1 Bft)
18.10.2016 00:42 9,8 °C 9,8 °C 95 % 1022,5 hPa 0,0 mm 0,9 km/h (0 Bft) S-SW 201 ° 0 min 0,000 mm 0,0 UV-I 0 W/m² 9,0 °C 1,6 km/h (1 Bft)
18.10.2016 00:43 9,7 °C 9,8 °C 95 % 1022,4 hPa 0,0 mm 0,5 km/h (0 Bft) S-SW 201 ° 0 min 0,000 mm 0,0 UV-I 0 W/m² 8,9 °C 1,6 km/h (1 Bft)
18.10.2016 00:44 9,7 °C 9,8 °C 95 % 1022,4 hPa 0,0 mm 1,2 km/h (1 Bft) S-SW 201 ° 0 min 0,000 mm 0,0 UV-I 0 W/m² 8,9 °C 1,6 km/h (1 Bft)
18.10.2016 00:45 9,7 °C 9,7 °C 95 % 1022,4 hPa 0,0 mm 1,3 km/h (1 Bft) S-SW 201 ° 0 min 0,000 mm 0,0 UV-I 0 W/m² 8,9 °C 3,2 km/h (1 Bft)
18.10.2016 00:46 9,7 °C 9,7 °C 95 % 1022,4 hPa 0,0 mm 1,8 km/h (1 Bft) S-SW 201 ° 0 min 0,000 mm 0,0 UV-I 0 W/m² 8,9 °C 3,2 km/h (1 Bft)
18.10.2016 00:47 9,7 °C 9,8 °C 95 % 1022,4 hPa 0,0 mm 0,1 km/h (0 Bft) S-SW 201 ° 0 min 0,000 mm 0,0 UV-I 0 W/m² 8,9 °C 1,6 km/h (1 Bft)
18.10.2016 00:48 9,7 °C 9,8 °C 95 % 1022,4 hPa 0,0 mm 0,0 km/h (0 Bft) S-SW 201 ° 0 min 0,000 mm 0,0 UV-I 0 W/m² 8,9 °C 0,0 km/h (0 Bft)
18.10.2016 00:49 9,7 °C 9,8 °C 95 % 1022,4 hPa 0,0 mm 0,0 km/h (0 Bft) S-SW 201 ° 0 min 0,000 mm 0,0 UV-I 0 W/m² 8,9 °C 0,0 km/h (0 Bft)
18.10.2016 00:50 9,7 °C 9,7 °C 95 % 1022,4 hPa 0,0 mm 0,0 km/h (0 Bft) S-SW 201 ° 0 min 0,000 mm 0,0 UV-I 0 W/m² 8,9 °C 0,0 km/h (0 Bft)
18.10.2016 00:51 9,7 °C 9,7 °C 95 % 1022,4 hPa 0,0 mm 0,0 km/h (0 Bft) S-SW 201 ° 0 min 0,000 mm 0,0 UV-I 0 W/m² 8,9 °C 0,0 km/h (0 Bft)
18.10.2016 00:52 9,7 °C 9,7 °C 95 % 1022,4 hPa 0,0 mm 0,0 km/h (0 Bft) S-SW 201 ° 0 min 0,000 mm 0,0 UV-I 0 W/m² 8,9 °C 0,0 km/h (0 Bft)
18.10.2016 00:53 9,7 °C 9,7 °C 95 % 1022,4 hPa 0,0 mm 0,0 km/h (0 Bft) S-SW 205 ° 0 min 0,000 mm 0,0 UV-I 0 W/m² 8,9 °C 0,0 km/h (0 Bft)
18.10.2016 00:54 9,7 °C 9,7 °C 95 % 1022,4 hPa 0,0 mm 0,0 km/h (0 Bft) S-SW 205 ° 0 min 0,000 mm 0,0 UV-I 0 W/m² 8,9 °C 0,0 km/h (0 Bft)
18.10.2016 00:55 9,7 °C 9,7 °C 95 % 1022,4 hPa 0,0 mm 0,0 km/h (0 Bft) S-SW 205 ° 0 min 0,000 mm 0,0 UV-I 0 W/m² 8,9 °C 0,0 km/h (0 Bft)
18.10.2016 00:56 9,7 °C 9,7 °C 95 % 1022,3 hPa 0,0 mm 0,0 km/h (0 Bft) S-SW 205 ° 0 min 0,000 mm 0,0 UV-I 0 W/m² 8,9 °C 0,0 km/h (0 Bft)
18.10.2016 00:57 9,7 °C 9,7 °C 95 % 1022,4 hPa 0,0 mm 0,0 km/h (0 Bft) S-SW 205 ° 0 min 0,000 mm 0,0 UV-I 0 W/m² 8,9 °C 0,0 km/h (0 Bft)
18.10.2016 00:58 9,7 °C 9,7 °C 95 % 1022,4 hPa 0,0 mm 0,3 km/h (0 Bft) S-SW 205 ° 0 min 0,000 mm 0,0 UV-I 0 W/m² 8,9 °C 1,6 km/h (1 Bft)
18.10.2016 00:59 9,7 °C 9,7 °C 95 % 1022,4 hPa 0,0 mm 0,7 km/h (0 Bft) S-SW 205 ° 0 min 0,000 mm 0,0 UV-I 0 W/m² 8,9 °C 1,6 km/h (1 Bft)
18.10.2016 01:00 9,7 °C 9,7 °C 95 % 1022,4 hPa 0,0 mm 0,0 km/h (0 Bft) S-SW 205 ° 0 min 0,000 mm 0,0 UV-I 0 W/m² 8,9 °C 0,0 km/h (0 Bft)
18.10.2016 01:01 9,7 °C 9,7 °C 95 % 1022,3 hPa 0,0 mm 0,0 km/h (0 Bft) S-SW 205 ° 0 min 0,000 mm 0,0 UV-I 0 W/m² 8,9 °C 0,0 km/h (0 Bft)
18.10.2016 01:02 9,7 °C 9,7 °C 95 % 1022,4 hPa 0,0 mm 0,0 km/h (0 Bft) S-SW 205 ° 0 min 0,000 mm 0,0 UV-I 0 W/m² 8,9 °C 0,0 km/h (0 Bft)
18.10.2016 01:03 9,7 °C 9,7 °C 95 % 1022,3 hPa 0,0 mm 0,6 km/h (0 Bft) S-SW 199 ° 0 min 0,000 mm 0,0 UV-I 0 W/m² 8,9 °C 3,2 km/h (1 Bft)
18.10.2016 01:04 9,7 °C 9,7 °C 95 % 1022,3 hPa 0,0 mm 2,0 km/h (1 Bft) S-SW 199 ° 0 min 0,000 mm 0,0 UV-I 0 W/m² 8,9 °C 3,2 km/h (1 Bft)
18.10.2016 01:05 9,7 °C 9,7 °C 95 % 1022,3 hPa 0,0 mm 0,7 km/h (0 Bft) S-SW 198 ° 0 min 0,000 mm 0,0 UV-I 0 W/m² 8,9 °C 1,6 km/h (1 Bft)
18.10.2016 01:06 9,7 °C 9,7 °C 95 % 1022,2 hPa 0,0 mm 1,2 km/h (1 Bft) S-SW 198 ° 0 min 0,000 mm 0,0 UV-I 0 W/m² 8,9 °C 3,2 km/h (1 Bft)
18.10.2016 01:07 9,7 °C 9,7 °C 95 % 1022,2 hPa 0,0 mm 0,9 km/h (0 Bft) S-SW 198 ° 0 min 0,000 mm 0,0 UV-I 0 W/m² 8,9 °C 1,6 km/h (1 Bft)
18.10.2016 01:08 9,7 °C 9,7 °C 95 % 1022,2 hPa 0,0 mm 0,3 km/h (0 Bft) S-SW 198 ° 0 min 0,000 mm 0,0 UV-I 0 W/m² 8,9 °C 1,6 km/h (1 Bft)
18.10.2016 01:09 9,7 °C 9,7 °C 95 % 1022,3 hPa 0,2 mm 1,9 km/h (1 Bft) S-SW 199 ° 0 min 0,000 mm 0,0 UV-I 0 W/m² 8,9 °C 3,2 km/h (1 Bft)
18.10.2016 01:10 9,7 °C 9,7 °C 95 % 1022,2 hPa 0,0 mm 3,3 km/h (1 Bft) SW 221 ° 0 min 0,000 mm 0,0 UV-I 0 W/m² 8,9 °C 4,8 km/h (1 Bft)
18.10.2016 01:11 9,7 °C 9,7 °C 95 % 1022,3 hPa 0,0 mm 1,3 km/h (1 Bft) SW 220 ° 0 min 0,000 mm 0,0 UV-I 0 W/m² 8,9 °C 1,6 km/h (1 Bft)
18.10.2016 01:12 9,7 °C 9,7 °C 95 % 1022,2 hPa 0,0 mm 1,3 km/h (1 Bft) SW 220 ° 0 min 0,000 mm 0,0 UV-I 0 W/m² 8,9 °C 1,6 km/h (1 Bft)
18.10.2016 01:13 9,7 °C 9,7 °C 95 % 1022,2 hPa 0,0 mm 1,7 km/h (1 Bft) SW 220 ° 0 min 0,000 mm 0,0 UV-I 0 W/m² 8,9 °C 3,2 km/h (1 Bft)
18.10.2016 01:14 9,7 °C 9,7 °C 95 % 1022,2 hPa 0,0 mm 0,3 km/h (0 Bft) SW 220 ° 0 min 0,000 mm 0,0 UV-I 0 W/m² 8,9 °C 1,6 km/h (1 Bft)
18.10.2016 01:15 9,7 °C 9,7 °C 95 % 1022,2 hPa 0,0 mm 1,1 km/h (1 Bft) SW 220 ° 0 min 0,000 mm 0,0 UV-I 0 W/m² 8,9 °C 3,2 km/h (1 Bft)
18.10.2016 01:16 9,7 °C 9,7 °C 95 % 1022,2 hPa 0,0 mm 0,2 km/h (0 Bft) SW 220 ° 0 min 0,000 mm 0,0 UV-I 0 W/m² 8,9 °C 1,6 km/h (1 Bft)
18.10.2016 01:17 9,7 °C 9,7 °C 95 % 1022,2 hPa 0,0 mm 0,0 km/h (0 Bft) SW 220 ° 0 min 0,000 mm 0,0 UV-I 0 W/m² 8,9 °C 0,0 km/h (0 Bft)
18.10.2016 01:18 9,7 °C 9,7 °C 95 % 1022,2 hPa 0,0 mm 0,3 km/h (0 Bft) SW 220 ° 0 min 0,000 mm 0,0 UV-I 0 W/m² 8,9 °C 1,6 km/h (1 Bft)
18.10.2016 01:19 9,7 °C 9,7 °C 95 % 1022,2 hPa 0,0 mm 0,1 km/h (0 Bft) SW 220 ° 0 min 0,000 mm 0,0 UV-I 0 W/m² 8,9 °C 1,6 km/h (1 Bft)
18.10.2016 01:20 9,7 °C 9,7 °C 95 % 1022,2 hPa 0,0 mm 0,1 km/h (0 Bft) SW 220 ° 0 min 0,000 mm 0,0 UV-I 0 W/m² 8,9 °C 1,6 km/h (1 Bft)
18.10.2016 01:21 9,7 °C 9,7 °C 95 % 1022,2 hPa 0,0 mm 0,0 km/h (0 Bft) SW 220 ° 0 min 0,000 mm 0,0 UV-I 0 W/m² 8,9 °C 0,0 km/h (0 Bft)
18.10.2016 01:22 9,7 °C 9,7 °C 95 % 1022,2 hPa 0,0 mm 0,2 km/h (0 Bft) SW 220 ° 0 min 0,000 mm 0,0 UV-I 0 W/m² 8,9 °C 1,6 km/h (1 Bft)
18.10.2016 01:23 9,7 °C 9,7 °C 95 % 1022,2 hPa 0,0 mm 0,0 km/h (0 Bft) SW 220 ° 0 min 0,000 mm 0,0 UV-I 0 W/m² 8,9 °C 0,0 km/h (0 Bft)
18.10.2016 01:24 9,7 °C 9,7 °C 95 % 1022,2 hPa 0,2 mm 0,0 km/h (0 Bft) SW 220 ° 0 min 0,000 mm 0,0 UV-I 0 W/m² 8,9 °C 0,0 km/h (0 Bft)
18.10.2016 01:25 9,7 °C 9,7 °C 95 % 1022,2 hPa 0,0 mm 0,0 km/h (0 Bft) SW 220 ° 0 min 0,000 mm 0,0 UV-I 0 W/m² 8,9 °C 0,0 km/h (0 Bft)
18.10.2016 01:26 9,7 °C 9,7 °C 95 % 1022,2 hPa 0,0 mm 0,0 km/h (0 Bft) SW 220 ° 0 min 0,000 mm 0,0 UV-I 0 W/m² 8,9 °C 0,0 km/h (0 Bft)
18.10.2016 01:27 9,6 °C 9,7 °C 95 % 1022,2 hPa 0,0 mm 0,0 km/h (0 Bft) SW 220 ° 0 min 0,000 mm 0,0 UV-I 0 W/m² 8,8 °C 0,0 km/h (0 Bft)
18.10.2016 01:28 9,7 °C 9,7 °C 95 % 1022,2 hPa 0,0 mm 0,0 km/h (0 Bft) SW 220 ° 0 min 0,000 mm 0,0 UV-I 0 W/m² 8,9 °C 0,0 km/h (0 Bft)
18.10.2016 01:29 9,6 °C 9,7 °C 95 % 1022,2 hPa 0,0 mm 0,0 km/h (0 Bft) SW 220 ° 0 min 0,000 mm 0,0 UV-I 0 W/m² 8,8 °C 0,0 km/h (0 Bft)
18.10.2016 01:30 9,6 °C 9,6 °C 95 % 1022,2 hPa 0,0 mm 0,0 km/h (0 Bft) SW 220 ° 0 min 0,000 mm 0,0 UV-I 0 W/m² 8,8 °C 0,0 km/h (0 Bft)
18.10.2016 01:31 9,6 °C 9,6 °C 95 % 1022,2 hPa 0,0 mm 0,0 km/h (0 Bft) SW 220 ° 0 min 0,000 mm 0,0 UV-I 0 W/m² 8,8 °C 0,0 km/h (0 Bft)
18.10.2016 01:32 9,6 °C 9,6 °C 95 % 1022,2 hPa 0,0 mm 0,0 km/h (0 Bft) SW 220 ° 0 min 0,000 mm 0,0 UV-I 0 W/m² 8,8 °C 0,0 km/h (0 Bft)
18.10.2016 01:33 9,6 °C 9,6 °C 95 % 1022,2 hPa 0,0 mm 0,0 km/h (0 Bft) SW 220 ° 0 min 0,000 mm 0,0 UV-I 0 W/m² 8,8 °C 0,0 km/h (0 Bft)
18.10.2016 01:34 9,6 °C 9,6 °C 95 % 1022,2 hPa 0,2 mm 0,0 km/h (0 Bft) SW 220 ° 0 min 0,000 mm 0,0 UV-I 0 W/m² 8,8 °C 0,0 km/h (0 Bft)
18.10.2016 01:35 9,6 °C 9,6 °C 95 % 1022,2 hPa 0,0 mm 0,0 km/h (0 Bft) SW 220 ° 0 min 0,000 mm 0,0 UV-I 0 W/m² 8,8 °C 0,0 km/h (0 Bft)
18.10.2016 01:36 9,6 °C 9,6 °C 95 % 1022,2 hPa 0,0 mm 0,0 km/h (0 Bft) SW 220 ° 0 min 0,000 mm 0,0 UV-I 0 W/m² 8,8 °C 0,0 km/h (0 Bft)
18.10.2016 01:37 9,6 °C 9,6 °C 95 % 1022,2 hPa 0,0 mm 0,0 km/h (0 Bft) SW 220 ° 0 min 0,000 mm 0,0 UV-I 0 W/m² 8,8 °C 0,0 km/h (0 Bft)
18.10.2016 01:38 9,6 °C 9,6 °C 95 % 1022,2 hPa 0,0 mm 0,0 km/h (0 Bft) SW 220 ° 0 min 0,000 mm 0,0 UV-I 0 W/m² 8,8 °C 0,0 km/h (0 Bft)
18.10.2016 01:39 9,6 °C 9,6 °C 95 % 1022,2 hPa 0,0 mm 0,0 km/h (0 Bft) SW 220 ° 0 min 0,000 mm 0,0 UV-I 0 W/m² 8,8 °C 0,0 km/h (0 Bft)
18.10.2016 01:40 9,6 °C 9,6 °C 95 % 1022,2 hPa 0,0 mm 0,0 km/h (0 Bft) SW 220 ° 0 min 0,000 mm 0,0 UV-I 0 W/m² 8,8 °C 0,0 km/h (0 Bft)
18.10.2016 01:41 9,6 °C 9,6 °C 95 % 1022,2 hPa 0,0 mm 0,0 km/h (0 Bft) SW 220 ° 0 min 0,000 mm 0,0 UV-I 0 W/m² 8,8 °C 0,0 km/h (0 Bft)
18.10.2016 01:42 9,6 °C 9,6 °C 95 % 1022,2 hPa 0,0 mm 0,0 km/h (0 Bft) SW 220 ° 0 min 0,000 mm 0,0 UV-I 0 W/m² 8,8 °C 0,0 km/h (0 Bft)
18.10.2016 01:43 9,6 °C 9,6 °C 95 % 1022,2 hPa 0,0 mm 0,0 km/h (0 Bft) SW 220 ° 0 min 0,000 mm 0,0 UV-I 0 W/m² 8,8 °C 0,0 km/h (0 Bft)
18.10.2016 01:44 9,6 °C 9,6 °C 95 % 1022,2 hPa 0,2 mm 0,0 km/h (0 Bft) SW 220 ° 0 min 0,000 mm 0,0 UV-I 0 W/m² 8,8 °C 0,0 km/h (0 Bft)
18.10.2016 01:45 9,6 °C 9,6 °C 95 % 1022,2 hPa 0,0 mm 0,0 km/h (0 Bft) SW 220 ° 0 min 0,000 mm 0,0 UV-I 0 W/m² 8,8 °C 0,0 km/h (0 Bft)
18.10.2016 01:46 9,6 °C 9,6 °C 95 % 1022,2 hPa 0,0 mm 1,2 km/h (1 Bft) S-SW 206 ° 0 min 0,000 mm 0,0 UV-I 0 W/m² 8,8 °C 3,2 km/h (1 Bft)
18.10.2016 01:47 9,6 °C 9,6 °C 95 % 1022,2 hPa 0,0 mm 1,9 km/h (1 Bft) S-SW 206 ° 0 min 0,000 mm 0,0 UV-I 0 W/m² 8,8 °C 3,2 km/h (1 Bft)
18.10.2016 01:48 9,6 °C 9,6 °C 95 % 1022,2 hPa 0,0 mm 1,3 km/h (1 Bft) S-SW 206 ° 0 min 0,000 mm 0,0 UV-I 0 W/m² 8,8 °C 3,2 km/h (1 Bft)
18.10.2016 01:49 9,6 °C 9,6 °C 95 % 1022,2 hPa 0,0 mm 0,3 km/h (0 Bft) S-SW 206 ° 0 min 0,000 mm 0,0 UV-I 0 W/m² 8,8 °C 1,6 km/h (1 Bft)
18.10.2016 01:50 9,6 °C 9,6 °C 96 % 1022,2 hPa 0,0 mm 0,7 km/h (0 Bft) S-SW 206 ° 0 min 0,000 mm 0,0 UV-I 0 W/m² 9,0 °C 1,6 km/h (1 Bft)
18.10.2016 01:51 9,6 °C 9,6 °C 96 % 1022,2 hPa 0,0 mm 0,1 km/h (0 Bft) S-SW 206 ° 0 min 0,000 mm 0,0 UV-I 0 W/m² 9,0 °C 1,6 km/h (1 Bft)
18.10.2016 01:52 9,6 °C 9,6 °C 96 % 1022,2 hPa 0,0 mm 0,9 km/h (0 Bft) S-SW 206 ° 0 min 0,000 mm 0,0 UV-I 0 W/m² 9,0 °C 1,6 km/h (1 Bft)
18.10.2016 01:53 9,6 °C 9,6 °C 96 % 1022,2 hPa 0,0 mm 0,6 km/h (0 Bft) S-SW 206 ° 0 min 0,000 mm 0,0 UV-I 0 W/m² 9,0 °C 1,6 km/h (1 Bft)
18.10.2016 01:54 9,6 °C 9,6 °C 96 % 1022,2 hPa 0,0 mm 0,1 km/h (0 Bft) S-SW 206 ° 0 min 0,000 mm 0,0 UV-I 0 W/m² 9,0 °C 1,6 km/h (1 Bft)
18.10.2016 01:55 9,6 °C 9,6 °C 96 % 1022,2 hPa 0,0 mm 0,0 km/h (0 Bft) S-SW 206 ° 0 min 0,000 mm 0,0 UV-I 0 W/m² 9,0 °C 0,0 km/h (0 Bft)
18.10.2016 01:56 9,6 °C 9,6 °C 96 % 1022,2 hPa 0,0 mm 0,0 km/h (0 Bft) S-SW 206 ° 0 min 0,000 mm 0,0 UV-I 0 W/m² 9,0 °C 0,0 km/h (0 Bft)
18.10.2016 01:57 9,6 °C 9,6 °C 96 % 1022,2 hPa 0,0 mm 0,0 km/h (0 Bft) S-SW 206 ° 0 min 0,000 mm 0,0 UV-I 0 W/m² 9,0 °C 0,0 km/h (0 Bft)
18.10.2016 01:58 9,6 °C 9,6 °C 96 % 1022,2 hPa 0,0 mm 0,0 km/h (0 Bft) S-SW 206 ° 0 min 0,000 mm 0,0 UV-I 0 W/m² 9,0 °C 0,0 km/h (0 Bft)
18.10.2016 01:59 9,5 °C 9,6 °C 96 % 1022,2 hPa 0,0 mm 0,0 km/h (0 Bft) S-SW 206 ° 0 min 0,000 mm 0,0 UV-I 0 W/m² 8,9 °C 0,0 km/h (0 Bft)
18.10.2016 02:00 9,5 °C 9,5 °C 96 % 1022,2 hPa 0,0 mm 0,0 km/h (0 Bft) S-SW 206 ° 0 min 0,000 mm 0,0 UV-I 0 W/m² 8,9 °C 0,0 km/h (0 Bft)
18.10.2016 02:01 9,6 °C 9,6 °C 96 % 1022,1 hPa 0,0 mm 0,7 km/h (0 Bft) S-SW 206 ° 0 min 0,000 mm 0,0 UV-I 0 W/m² 9,0 °C 1,6 km/h (1 Bft)
18.10.2016 02:02 9,5 °C 9,6 °C 96 % 1022,1 hPa 0,2 mm 0,5 km/h (0 Bft) S-SW 206 ° 0 min 0,000 mm 0,0 UV-I 0 W/m² 8,9 °C 1,6 km/h (1 Bft)
18.10.2016 02:03 9,5 °C 9,6 °C 96 % 1022,1 hPa 0,0 mm 0,8 km/h (0 Bft) S-SW 206 ° 0 min 0,000 mm 0,0 UV-I 0 W/m² 8,9 °C 1,6 km/h (1 Bft)
18.10.2016 02:04 9,5 °C 9,5 °C 96 % 1022,1 hPa 0,0 mm 0,8 km/h (0 Bft) S-SW 206 ° 0 min 0,000 mm 0,0 UV-I 0 W/m² 8,9 °C 1,6 km/h (1 Bft)
18.10.2016 02:05 9,5 °C 9,5 °C 96 % 1022,1 hPa 0,0 mm 0,0 km/h (0 Bft) S-SW 206 ° 0 min 0,000 mm 0,0 UV-I 0 W/m² 8,9 °C 0,0 km/h (0 Bft)
18.10.2016 02:06 9,5 °C 9,5 °C 96 % 1022,1 hPa 0,0 mm 0,4 km/h (0 Bft) S-SW 206 ° 0 min 0,000 mm 0,0 UV-I 0 W/m² 8,9 °C 1,6 km/h (1 Bft)
18.10.2016 02:07 9,4 °C 9,5 °C 96 % 1022,1 hPa 0,0 mm 0,8 km/h (0 Bft) S-SW 206 ° 0 min 0,000 mm 0,0 UV-I 0 W/m² 8,8 °C 1,6 km/h (1 Bft)
18.10.2016 02:08 9,4 °C 9,4 °C 96 % 1022,1 hPa 0,0 mm 0,1 km/h (0 Bft) S-SW 206 ° 0 min 0,000 mm 0,0 UV-I 0 W/m² 8,8 °C 1,6 km/h (1 Bft)
18.10.2016 02:09 9,4 °C 9,4 °C 96 % 1022,1 hPa 0,0 mm 0,4 km/h (0 Bft) S-SW 206 ° 0 min 0,000 mm 0,0 UV-I 0 W/m² 8,8 °C 1,6 km/h (1 Bft)
18.10.2016 02:10 9,4 °C 9,4 °C 96 % 1022,1 hPa 0,0 mm 0,0 km/h (0 Bft) S-SW 206 ° 0 min 0,000 mm 0,0 UV-I 0 W/m² 8,8 °C 0,0 km/h (0 Bft)
18.10.2016 02:11 9,4 °C 9,4 °C 96 % 1022,1 hPa 0,0 mm 0,3 km/h (0 Bft) S-SW 206 ° 0 min 0,000 mm 0,0 UV-I 0 W/m² 8,8 °C 1,6 km/h (1 Bft)
18.10.2016 02:12 9,4 °C 9,4 °C 96 % 1022,1 hPa 0,0 mm 0,1 km/h (0 Bft) S-SW 206 ° 0 min 0,000 mm 0,0 UV-I 0 W/m² 8,8 °C 1,6 km/h (1 Bft)
18.10.2016 02:13 9,4 °C 9,4 °C 96 % 1022,0 hPa 0,0 mm 0,2 km/h (0 Bft) S-SW 206 ° 0 min 0,000 mm 0,0 UV-I 0 W/m² 8,8 °C 1,6 km/h (1 Bft)
18.10.2016 02:14 9,4 °C 9,4 °C 96 % 1022,0 hPa 0,0 mm 0,0 km/h (0 Bft) S-SW 206 ° 0 min 0,000 mm 0,0 UV-I 0 W/m² 8,8 °C 0,0 km/h (0 Bft)
18.10.2016 02:15 9,4 °C 9,4 °C 96 % 1022,1 hPa 0,0 mm 0,0 km/h (0 Bft) S-SW 206 ° 0 min 0,000 mm 0,0 UV-I 0 W/m² 8,8 °C 0,0 km/h (0 Bft)
18.10.2016 02:16 9,4 °C 9,4 °C 96 % 1022,0 hPa 0,0 mm 0,0 km/h (0 Bft) S-SW 206 ° 0 min 0,000 mm 0,0 UV-I 0 W/m² 8,8 °C 0,0 km/h (0 Bft)
18.10.2016 02:17 9,4 °C 9,4 °C 96 % 1022,0 hPa 0,0 mm 0,0 km/h (0 Bft) S-SW 206 ° 0 min 0,000 mm 0,0 UV-I 0 W/m² 8,8 °C 0,0 km/h (0 Bft)
18.10.2016 02:18 9,4 °C 9,4 °C 96 % 1022,0 hPa 0,0 mm 0,0 km/h (0 Bft) S-SW 206 ° 0 min 0,000 mm 0,0 UV-I 0 W/m² 8,8 °C 0,0 km/h (0 Bft)
18.10.2016 02:19 9,3 °C 9,4 °C 96 % 1022,0 hPa 0,0 mm 0,0 km/h (0 Bft) S-SW 206 ° 0 min 0,000 mm 0,0 UV-I 0 W/m² 8,7 °C 0,0 km/h (0 Bft)
18.10.2016 02:20 9,3 °C 9,3 °C 96 % 1022,0 hPa 0,0 mm 0,0 km/h (0 Bft) S-SW 206 ° 0 min 0,000 mm 0,0 UV-I 0 W/m² 8,7 °C 0,0 km/h (0 Bft)
18.10.2016 02:21 9,3 °C 9,3 °C 96 % 1022,0 hPa 0,0 mm 0,0 km/h (0 Bft) S-SW 206 ° 0 min 0,000 mm 0,0 UV-I 0 W/m² 8,7 °C 0,0 km/h (0 Bft)
18.10.2016 02:22 9,3 °C 9,3 °C 96 % 1022,0 hPa 0,0 mm 0,0 km/h (0 Bft) S-SW 206 ° 0 min 0,000 mm 0,0 UV-I 0 W/m² 8,7 °C 0,0 km/h (0 Bft)
18.10.2016 02:23 9,3 °C 9,3 °C 96 % 1022,0 hPa 0,0 mm 0,0 km/h (0 Bft) S-SW 206 ° 0 min 0,000 mm 0,0 UV-I 0 W/m² 8,7 °C 0,0 km/h (0 Bft)
18.10.2016 02:24 9,3 °C 9,3 °C 96 % 1022,1 hPa 0,0 mm 0,0 km/h (0 Bft) S-SW 206 ° 0 min 0,000 mm 0,0 UV-I 0 W/m² 8,7 °C 0,0 km/h (0 Bft)
18.10.2016 02:25 9,3 °C 9,3 °C 96 % 1022,0 hPa 0,0 mm 0,0 km/h (0 Bft) S-SW 206 ° 0 min 0,000 mm 0,0 UV-I 0 W/m² 8,7 °C 0,0 km/h (0 Bft)
18.10.2016 02:26 9,3 °C 9,3 °C 96 % 1022,0 hPa 0,0 mm 0,0 km/h (0 Bft) S-SW 206 ° 0 min 0,000 mm 0,0 UV-I 0 W/m² 8,7 °C 0,0 km/h (0 Bft)
18.10.2016 02:27 9,3 °C 9,3 °C 96 % 1022,1 hPa 0,0 mm 0,0 km/h (0 Bft) S-SW 206 ° 0 min 0,000 mm 0,0 UV-I 0 W/m² 8,7 °C 0,0 km/h (0 Bft)
18.10.2016 02:28 9,3 °C 9,3 °C 96 % 1022,0 hPa 0,0 mm 0,0 km/h (0 Bft) S-SW 206 ° 0 min 0,000 mm 0,0 UV-I 0 W/m² 8,7 °C 0,0 km/h (0 Bft)
18.10.2016 02:29 9,3 °C 9,3 °C 96 % 1022,0 hPa 0,0 mm 0,0 km/h (0 Bft) S-SW 206 ° 0 min 0,000 mm 0,0 UV-I 0 W/m² 8,7 °C 0,0 km/h (0 Bft)
18.10.2016 02:30 9,2 °C 9,3 °C 96 % 1022,1 hPa 0,0 mm 0,0 km/h (0 Bft) S-SW 206 ° 0 min 0,000 mm 0,0 UV-I 0 W/m² 8,6 °C 0,0 km/h (0 Bft)
18.10.2016 02:31 9,3 °C 9,3 °C 96 % 1022,0 hPa 0,0 mm 0,0 km/h (0 Bft) S-SW 206 ° 0 min 0,000 mm 0,0 UV-I 0 W/m² 8,7 °C 0,0 km/h (0 Bft)
18.10.2016 02:32 9,2 °C 9,3 °C 96 % 1022,0 hPa 0,0 mm 0,0 km/h (0 Bft) S-SW 206 ° 0 min 0,000 mm 0,0 UV-I 0 W/m² 8,6 °C 0,0 km/h (0 Bft)
18.10.2016 02:33 9,2 °C 9,2 °C 96 % 1022,0 hPa 0,0 mm 0,0 km/h (0 Bft) S-SW 206 ° 0 min 0,000 mm 0,0 UV-I 0 W/m² 8,6 °C 0,0 km/h (0 Bft)
18.10.2016 02:34 9,2 °C 9,2 °C 96 % 1022,0 hPa 0,0 mm 0,0 km/h (0 Bft) S-SW 206 ° 0 min 0,000 mm 0,0 UV-I 0 W/m² 8,6 °C 0,0 km/h (0 Bft)
18.10.2016 02:35 9,2 °C 9,2 °C 96 % 1022,0 hPa 0,0 mm 0,0 km/h (0 Bft) S-SW 206 ° 0 min 0,000 mm 0,0 UV-I 0 W/m² 8,6 °C 0,0 km/h (0 Bft)
18.10.2016 02:36 9,2 °C 9,2 °C 96 % 1022,0 hPa 0,0 mm 0,0 km/h (0 Bft) S-SW 206 ° 0 min 0,000 mm 0,0 UV-I 0 W/m² 8,6 °C 0,0 km/h (0 Bft)
18.10.2016 02:37 9,2 °C 9,2 °C 96 % 1022,0 hPa 0,0 mm 0,0 km/h (0 Bft) S-SW 206 ° 0 min 0,000 mm 0,0 UV-I 0 W/m² 8,6 °C 0,0 km/h (0 Bft)
18.10.2016 02:38 9,3 °C 9,3 °C 96 % 1022,0 hPa 0,0 mm 0,0 km/h (0 Bft) S-SW 206 ° 0 min 0,000 mm 0,0 UV-I 0 W/m² 8,7 °C 0,0 km/h (0 Bft)
18.10.2016 02:39 9,3 °C 9,3 °C 96 % 1022,0 hPa 0,0 mm 0,0 km/h (0 Bft) S-SW 206 ° 0 min 0,000 mm 0,0 UV-I 0 W/m² 8,7 °C 0,0 km/h (0 Bft)
18.10.2016 02:40 9,3 °C 9,3 °C 96 % 1021,9 hPa 0,0 mm 0,0 km/h (0 Bft) S-SW 206 ° 0 min 0,000 mm 0,0 UV-I 0 W/m² 8,7 °C 0,0 km/h (0 Bft)
18.10.2016 02:41 9,3 °C 9,3 °C 96 % 1022,0 hPa 0,0 mm 0,0 km/h (0 Bft) S-SW 206 ° 0 min 0,000 mm 0,0 UV-I 0 W/m² 8,7 °C 0,0 km/h (0 Bft)
18.10.2016 02:42 9,3 °C 9,3 °C 96 % 1022,0 hPa 0,0 mm 0,0 km/h (0 Bft) S-SW 206 ° 0 min 0,000 mm 0,0 UV-I 0 W/m² 8,7 °C 0,0 km/h (0 Bft)
18.10.2016 02:43 9,3 °C 9,3 °C 96 % 1022,0 hPa 0,0 mm 0,0 km/h (0 Bft) S-SW 206 ° 0 min 0,000 mm 0,0 UV-I 0 W/m² 8,7 °C 0,0 km/h (0 Bft)
18.10.2016 02:44 9,3 °C 9,3 °C 96 % 1022,0 hPa 0,2 mm 0,0 km/h (0 Bft) S-SW 206 ° 0 min 0,000 mm 0,0 UV-I 0 W/m² 8,7 °C 0,0 km/h (0 Bft)
18.10.2016 02:45 9,3 °C 9,3 °C 96 % 1022,0 hPa 0,0 mm 0,0 km/h (0 Bft) S-SW 206 ° 0 min 0,000 mm 0,0 UV-I 0 W/m² 8,7 °C 0,0 km/h (0 Bft)
18.10.2016 02:46 9,3 °C 9,3 °C 96 % 1022,0 hPa 0,0 mm 0,0 km/h (0 Bft) S-SW 206 ° 0 min 0,000 mm 0,0 UV-I 0 W/m² 8,7 °C 0,0 km/h (0 Bft)
18.10.2016 02:47 9,3 °C 9,3 °C 96 % 1022,0 hPa 0,0 mm 0,0 km/h (0 Bft) S-SW 206 ° 0 min 0,000 mm 0,0 UV-I 0 W/m² 8,7 °C 0,0 km/h (0 Bft)
18.10.2016 02:48 9,3 °C 9,3 °C 96 % 1022,0 hPa 0,0 mm 0,0 km/h (0 Bft) S-SW 206 ° 0 min 0,000 mm 0,0 UV-I 0 W/m² 8,7 °C 0,0 km/h (0 Bft)
18.10.2016 02:49 9,3 °C 9,3 °C 96 % 1022,0 hPa 0,0 mm 0,0 km/h (0 Bft) S-SW 206 ° 0 min 0,000 mm 0,0 UV-I 0 W/m² 8,7 °C 0,0 km/h (0 Bft)
18.10.2016 02:50 9,3 °C 9,4 °C 96 % 1022,0 hPa 0,0 mm 0,0 km/h (0 Bft) S-SW 206 ° 0 min 0,000 mm 0,0 UV-I 0 W/m² 8,7 °C 0,0 km/h (0 Bft)
18.10.2016 02:51 9,3 °C 9,3 °C 96 % 1022,0 hPa 0,0 mm 0,0 km/h (0 Bft) S-SW 206 ° 0 min 0,000 mm 0,0 UV-I 0 W/m² 8,7 °C 0,0 km/h (0 Bft)
18.10.2016 02:52 9,3 °C 9,3 °C 96 % 1022,0 hPa 0,0 mm 0,0 km/h (0 Bft) S-SW 206 ° 0 min 0,000 mm 0,0 UV-I 0 W/m² 8,7 °C 0,0 km/h (0 Bft)
18.10.2016 02:53 9,3 °C 9,3 °C 96 % 1022,0 hPa 0,0 mm 0,0 km/h (0 Bft) S-SW 206 ° 0 min 0,000 mm 0,0 UV-I 0 W/m² 8,7 °C 0,0 km/h (0 Bft)
18.10.2016 02:54 9,3 °C 9,3 °C 96 % 1022,0 hPa 0,0 mm 0,0 km/h (0 Bft) S-SW 206 ° 0 min 0,000 mm 0,0 UV-I 0 W/m² 8,7 °C 0,0 km/h (0 Bft)
18.10.2016 02:55 9,3 °C 9,3 °C 96 % 1022,0 hPa 0,0 mm 0,0 km/h (0 Bft) S-SW 206 ° 0 min 0,000 mm 0,0 UV-I 0 W/m² 8,7 °C 0,0 km/h (0 Bft)
18.10.2016 02:56 9,3 °C 9,3 °C 96 % 1022,0 hPa 0,0 mm 0,0 km/h (0 Bft) S-SW 206 ° 0 min 0,000 mm 0,0 UV-I 0 W/m² 8,7 °C 0,0 km/h (0 Bft)
18.10.2016 02:57 9,3 °C 9,3 °C 96 % 1022,0 hPa 0,0 mm 0,0 km/h (0 Bft) S-SW 206 ° 0 min 0,000 mm 0,0 UV-I 0 W/m² 8,7 °C 0,0 km/h (0 Bft)
18.10.2016 02:58 9,3 °C 9,3 °C 96 % 1022,0 hPa 0,0 mm 0,0 km/h (0 Bft) S-SW 206 ° 0 min 0,000 mm 0,0 UV-I 0 W/m² 8,7 °C 0,0 km/h (0 Bft)
18.10.2016 02:59 9,3 °C 9,4 °C 96 % 1022,0 hPa 0,0 mm 0,0 km/h (0 Bft) S-SW 206 ° 0 min 0,000 mm 0,0 UV-I 0 W/m² 8,7 °C 0,0 km/h (0 Bft)
18.10.2016 03:00 9,4 °C 9,4 °C 96 % 1022,0 hPa 0,0 mm 0,1 km/h (0 Bft) S-SW 206 ° 0 min 0,000 mm 0,0 UV-I 0 W/m² 8,8 °C 1,6 km/h (1 Bft)
18.10.2016 03:01 9,4 °C 9,4 °C 96 % 1022,1 hPa 0,0 mm 0,9 km/h (0 Bft) S-SW 206 ° 0 min 0,000 mm 0,0 UV-I 0 W/m² 8,8 °C 1,6 km/h (1 Bft)
18.10.2016 03:02 9,4 °C 9,4 °C 96 % 1022,0 hPa 0,0 mm 0,0 km/h (0 Bft) S-SW 206 ° 0 min 0,000 mm 0,0 UV-I 0 W/m² 8,8 °C 0,0 km/h (0 Bft)
18.10.2016 03:03 9,4 °C 9,4 °C 96 % 1022,0 hPa 0,2 mm 0,0 km/h (0 Bft) S-SW 206 ° 0 min 0,000 mm 0,0 UV-I 0 W/m² 8,8 °C 0,0 km/h (0 Bft)
18.10.2016 03:04 9,4 °C 9,4 °C 96 % 1022,0 hPa 0,0 mm 0,0 km/h (0 Bft) S-SW 206 ° 0 min 0,000 mm 0,0 UV-I 0 W/m² 8,8 °C 0,0 km/h (0 Bft)
18.10.2016 03:05 9,4 °C 9,4 °C 96 % 1022,0 hPa 0,0 mm 0,0 km/h (0 Bft) S-SW 206 ° 0 min 0,000 mm 0,0 UV-I 0 W/m² 8,8 °C 0,0 km/h (0 Bft)
18.10.2016 03:06 9,4 °C 9,4 °C 96 % 1022,0 hPa 0,0 mm 0,4 km/h (0 Bft) S-SW 206 ° 0 min 0,000 mm 0,0 UV-I 0 W/m² 8,8 °C 1,6 km/h (1 Bft)
18.10.2016 03:07 9,4 °C 9,4 °C 96 % 1022,0 hPa 0,0 mm 0,0 km/h (0 Bft) S-SW 206 ° 0 min 0,000 mm 0,0 UV-I 0 W/m² 8,8 °C 0,0 km/h (0 Bft)
18.10.2016 03:08 9,4 °C 9,4 °C 96 % 1022,0 hPa 0,0 mm 1,5 km/h (1 Bft) S-SW 206 ° 0 min 0,000 mm 0,0 UV-I 0 W/m² 8,8 °C 3,2 km/h (1 Bft)
18.10.2016 03:09 9,4 °C 9,4 °C 96 % 1022,0 hPa 0,0 mm 0,0 km/h (0 Bft) S-SW 206 ° 0 min 0,000 mm 0,0 UV-I 0 W/m² 8,8 °C 0,0 km/h (0 Bft)
18.10.2016 03:10 9,4 °C 9,4 °C 96 % 1022,0 hPa 0,0 mm 0,0 km/h (0 Bft) S-SW 206 ° 0 min 0,000 mm 0,0 UV-I 0 W/m² 8,8 °C 0,0 km/h (0 Bft)
18.10.2016 03:11 9,4 °C 9,4 °C 96 % 1021,9 hPa 0,0 mm 0,0 km/h (0 Bft) S-SW 206 ° 0 min 0,000 mm 0,0 UV-I 0 W/m² 8,8 °C 0,0 km/h (0 Bft)
18.10.2016 03:12 9,4 °C 9,4 °C 96 % 1021,9 hPa 0,0 mm 0,0 km/h (0 Bft) S-SW 206 ° 0 min 0,000 mm 0,0 UV-I 0 W/m² 8,8 °C 0,0 km/h (0 Bft)
18.10.2016 03:13 9,4 °C 9,4 °C 96 % 1021,9 hPa 0,0 mm 2,0 km/h (1 Bft) S-SW 206 ° 0 min 0,000 mm 0,0 UV-I 0 W/m² 8,8 °C 3,2 km/h (1 Bft)
18.10.2016 03:14 9,4 °C 9,4 °C 96 % 1021,9 hPa 0,0 mm 1,4 km/h (1 Bft) S-SW 206 ° 0 min 0,000 mm 0,0 UV-I 0 W/m² 8,8 °C 3,2 km/h (1 Bft)
18.10.2016 03:15 9,4 °C 9,4 °C 96 % 1021,9 hPa 0,0 mm 1,8 km/h (1 Bft) S-SW 206 ° 0 min 0,000 mm 0,0 UV-I 0 W/m² 8,8 °C 3,2 km/h (1 Bft)
18.10.2016 03:16 9,4 °C 9,4 °C 96 % 1021,9 hPa 0,0 mm 1,3 km/h (1 Bft) S-SW 206 ° 0 min 0,000 mm 0,0 UV-I 0 W/m² 8,8 °C 3,2 km/h (1 Bft)
18.10.2016 03:17 9,4 °C 9,4 °C 96 % 1021,9 hPa 0,0 mm 0,8 km/h (0 Bft) S-SW 206 ° 0 min 0,000 mm 0,0 UV-I 0 W/m² 8,8 °C 1,6 km/h (1 Bft)
18.10.2016 03:18 9,4 °C 9,4 °C 96 % 1021,9 hPa 0,0 mm 0,8 km/h (0 Bft) S-SW 206 ° 0 min 0,000 mm 0,0 UV-I 0 W/m² 8,8 °C 1,6 km/h (1 Bft)
18.10.2016 03:19 9,4 °C 9,4 °C 96 % 1022,0 hPa 0,0 mm 0,5 km/h (0 Bft) S-SW 206 ° 0 min 0,000 mm 0,0 UV-I 0 W/m² 8,8 °C 1,6 km/h (1 Bft)
18.10.2016 03:20 9,4 °C 9,4 °C 96 % 1021,9 hPa 0,0 mm 0,3 km/h (0 Bft) S-SW 206 ° 0 min 0,000 mm 0,0 UV-I 0 W/m² 8,8 °C 1,6 km/h (1 Bft)
18.10.2016 03:21 9,4 °C 9,4 °C 96 % 1021,9 hPa 0,0 mm 0,3 km/h (0 Bft) S-SW 206 ° 0 min 0,000 mm 0,0 UV-I 0 W/m² 8,8 °C 1,6 km/h (1 Bft)
18.10.2016 03:22 9,4 °C 9,4 °C 96 % 1021,9 hPa 0,0 mm 1,0 km/h (0 Bft) S-SW 206 ° 0 min 0,000 mm 0,0 UV-I 0 W/m² 8,8 °C 1,6 km/h (1 Bft)
18.10.2016 03:23 9,4 °C 9,4 °C 96 % 1021,9 hPa 0,0 mm 0,7 km/h (0 Bft) S-SW 206 ° 0 min 0,000 mm 0,0 UV-I 0 W/m² 8,8 °C 1,6 km/h (1 Bft)
18.10.2016 03:24 9,4 °C 9,4 °C 96 % 1021,9 hPa 0,2 mm 0,5 km/h (0 Bft) S-SW 206 ° 0 min 0,000 mm 0,0 UV-I 0 W/m² 8,8 °C 1,6 km/h (1 Bft)
18.10.2016 03:25 9,4 °C 9,4 °C 96 % 1021,9 hPa 0,0 mm 0,5 km/h (0 Bft) S-SW 206 ° 0 min 0,000 mm 0,0 UV-I 0 W/m² 8,8 °C 1,6 km/h (1 Bft)
18.10.2016 03:26 9,3 °C 9,4 °C 96 % 1021,9 hPa 0,0 mm 1,2 km/h (1 Bft) S-SW 206 ° 0 min 0,000 mm 0,0 UV-I 0 W/m² 8,7 °C 1,6 km/h (1 Bft)
18.10.2016 03:27 9,3 °C 9,4 °C 96 % 1021,8 hPa 0,0 mm 0,3 km/h (0 Bft) S-SW 206 ° 0 min 0,000 mm 0,0 UV-I 0 W/m² 8,7 °C 1,6 km/h (1 Bft)
18.10.2016 03:28 9,3 °C 9,4 °C 96 % 1021,8 hPa 0,0 mm 0,0 km/h (0 Bft) S-SW 206 ° 0 min 0,000 mm 0,0 UV-I 0 W/m² 8,7 °C 0,0 km/h (0 Bft)
18.10.2016 03:29 9,3 °C 9,4 °C 96 % 1021,9 hPa 0,0 mm 0,0 km/h (0 Bft) S-SW 206 ° 0 min 0,000 mm 0,0 UV-I 0 W/m² 8,7 °C 0,0 km/h (0 Bft)
18.10.2016 03:30 9,4 °C 9,4 °C 96 % 1021,8 hPa 0,0 mm 0,0 km/h (0 Bft) S-SW 206 ° 0 min 0,000 mm 0,0 UV-I 0 W/m² 8,8 °C 0,0 km/h (0 Bft)
18.10.2016 03:31 9,3 °C 9,4 °C 96 % 1021,8 hPa 0,0 mm 0,0 km/h (0 Bft) S-SW 206 ° 0 min 0,000 mm 0,0 UV-I 0 W/m² 8,7 °C 0,0 km/h (0 Bft)
18.10.2016 03:32 9,3 °C 9,4 °C 96 % 1021,8 hPa 0,0 mm 0,0 km/h (0 Bft) S-SW 206 ° 0 min 0,000 mm 0,0 UV-I 0 W/m² 8,7 °C 0,0 km/h (0 Bft)
18.10.2016 03:33 9,3 °C 9,3 °C 96 % 1021,8 hPa 0,0 mm 0,0 km/h (0 Bft) S-SW 206 ° 0 min 0,000 mm 0,0 UV-I 0 W/m² 8,7 °C 0,0 km/h (0 Bft)
18.10.2016 03:34 9,3 °C 9,3 °C 96 % 1021,8 hPa 0,0 mm 0,0 km/h (0 Bft) S-SW 206 ° 0 min 0,000 mm 0,0 UV-I 0 W/m² 8,7 °C 0,0 km/h (0 Bft)
18.10.2016 03:35 9,3 °C 9,3 °C 96 % 1021,8 hPa 0,0 mm 0,0 km/h (0 Bft) S-SW 206 ° 0 min 0,000 mm 0,0 UV-I 0 W/m² 8,7 °C 0,0 km/h (0 Bft)
18.10.2016 03:36 9,3 °C 9,3 °C 96 % 1021,7 hPa 0,0 mm 0,0 km/h (0 Bft) S-SW 206 ° 0 min 0,000 mm 0,0 UV-I 0 W/m² 8,7 °C 0,0 km/h (0 Bft)
18.10.2016 03:37 9,3 °C 9,3 °C 96 % 1021,7 hPa 0,0 mm 0,0 km/h (0 Bft) S-SW 206 ° 0 min 0,000 mm 0,0 UV-I 0 W/m² 8,7 °C 0,0 km/h (0 Bft)
18.10.2016 03:38 9,3 °C 9,3 °C 96 % 1021,7 hPa 0,0 mm 0,0 km/h (0 Bft) S-SW 206 ° 0 min 0,000 mm 0,0 UV-I 0 W/m² 8,7 °C 0,0 km/h (0 Bft)
18.10.2016 03:39 9,3 °C 9,3 °C 96 % 1021,7 hPa 0,0 mm 0,0 km/h (0 Bft) S-SW 206 ° 0 min 0,000 mm 0,0 UV-I 0 W/m² 8,7 °C 0,0 km/h (0 Bft)
18.10.2016 03:40 9,3 °C 9,3 °C 96 % 1021,7 hPa 0,0 mm 0,0 km/h (0 Bft) S-SW 206 ° 0 min 0,000 mm 0,0 UV-I 0 W/m² 8,7 °C 0,0 km/h (0 Bft)
18.10.2016 03:41 9,3 °C 9,3 °C 96 % 1021,7 hPa 0,0 mm 0,0 km/h (0 Bft) S-SW 206 ° 0 min 0,000 mm 0,0 UV-I 0 W/m² 8,7 °C 0,0 km/h (0 Bft)
18.10.2016 03:42 9,2 °C 9,3 °C 96 % 1021,7 hPa 0,0 mm 0,0 km/h (0 Bft) S-SW 206 ° 0 min 0,000 mm 0,0 UV-I 0 W/m² 8,6 °C 0,0 km/h (0 Bft)
18.10.2016 03:43 9,3 °C 9,3 °C 96 % 1021,7 hPa 0,0 mm 0,0 km/h (0 Bft) S-SW 206 ° 0 min 0,000 mm 0,0 UV-I 0 W/m² 8,7 °C 0,0 km/h (0 Bft)
18.10.2016 03:44 9,2 °C 9,3 °C 96 % 1021,7 hPa 0,0 mm 0,0 km/h (0 Bft) S-SW 206 ° 0 min 0,000 mm 0,0 UV-I 0 W/m² 8,6 °C 0,0 km/h (0 Bft)
18.10.2016 03:45 9,2 °C 9,2 °C 96 % 1021,7 hPa 0,0 mm 0,0 km/h (0 Bft) S-SW 206 ° 0 min 0,000 mm 0,0 UV-I 0 W/m² 8,6 °C 0,0 km/h (0 Bft)
18.10.2016 03:46 9,2 °C 9,2 °C 96 % 1021,7 hPa 0,0 mm 0,0 km/h (0 Bft) S-SW 206 ° 0 min 0,000 mm 0,0 UV-I 0 W/m² 8,6 °C 0,0 km/h (0 Bft)
18.10.2016 03:47 9,2 °C 9,2 °C 96 % 1021,7 hPa 0,0 mm 0,0 km/h (0 Bft) S-SW 206 ° 0 min 0,000 mm 0,0 UV-I 0 W/m² 8,6 °C 0,0 km/h (0 Bft)
18.10.2016 03:48 9,2 °C 9,2 °C 96 % 1021,7 hPa 0,0 mm 0,0 km/h (0 Bft) S-SW 206 ° 0 min 0,000 mm 0,0 UV-I 0 W/m² 8,6 °C 0,0 km/h (0 Bft)
18.10.2016 03:49 9,2 °C 9,2 °C 96 % 1021,7 hPa 0,0 mm 0,0 km/h (0 Bft) S-SW 206 ° 0 min 0,000 mm 0,0 UV-I 0 W/m² 8,6 °C 0,0 km/h (0 Bft)
18.10.2016 03:50 9,2 °C 9,2 °C 96 % 1021,7 hPa 0,0 mm 0,0 km/h (0 Bft) S-SW 206 ° 0 min 0,000 mm 0,0 UV-I 0 W/m² 8,6 °C 0,0 km/h (0 Bft)
18.10.2016 03:51 9,2 °C 9,2 °C 96 % 1021,7 hPa 0,0 mm 0,0 km/h (0 Bft) S-SW 206 ° 0 min 0,000 mm 0,0 UV-I 0 W/m² 8,6 °C 0,0 km/h (0 Bft)
18.10.2016 03:52 9,2 °C 9,2 °C 96 % 1021,7 hPa 0,0 mm 0,0 km/h (0 Bft) S-SW 206 ° 0 min 0,000 mm 0,0 UV-I 0 W/m² 8,6 °C 0,0 km/h (0 Bft)
18.10.2016 03:53 9,2 °C 9,2 °C 96 % 1021,7 hPa 0,0 mm 0,0 km/h (0 Bft) S-SW 206 ° 0 min 0,000 mm 0,0 UV-I 0 W/m² 8,6 °C 0,0 km/h (0 Bft)
18.10.2016 03:54 9,2 °C 9,2 °C 96 % 1021,7 hPa 0,0 mm 0,0 km/h (0 Bft) S-SW 206 ° 0 min 0,000 mm 0,0 UV-I 0 W/m² 8,6 °C 0,0 km/h (0 Bft)
18.10.2016 03:55 9,1 °C 9,2 °C 96 % 1021,7 hPa 0,0 mm 0,0 km/h (0 Bft) S-SW 206 ° 0 min 0,000 mm 0,0 UV-I 0 W/m² 8,5 °C 0,0 km/h (0 Bft)
18.10.2016 03:56 9,2 °C 9,2 °C 96 % 1021,7 hPa 0,0 mm 0,0 km/h (0 Bft) S-SW 206 ° 0 min 0,000 mm 0,0 UV-I 0 W/m² 8,6 °C 0,0 km/h (0 Bft)
18.10.2016 03:57 9,2 °C 9,2 °C 96 % 1021,7 hPa 0,0 mm 0,0 km/h (0 Bft) S-SW 206 ° 0 min 0,000 mm 0,0 UV-I 0 W/m² 8,6 °C 0,0 km/h (0 Bft)
18.10.2016 03:58 9,2 °C 9,2 °C 96 % 1021,7 hPa 0,0 mm 0,0 km/h (0 Bft) S-SW 206 ° 0 min 0,000 mm 0,0 UV-I 0 W/m² 8,6 °C 0,0 km/h (0 Bft)
18.10.2016 03:59 9,2 °C 9,2 °C 96 % 1021,6 hPa 0,0 mm 0,0 km/h (0 Bft) S-SW 206 ° 0 min 0,000 mm 0,0 UV-I 0 W/m² 8,6 °C 0,0 km/h (0 Bft)
18.10.2016 04:00 9,2 °C 9,2 °C 96 % 1021,7 hPa 0,0 mm 0,0 km/h (0 Bft) S-SW 206 ° 0 min 0,000 mm 0,0 UV-I 0 W/m² 8,6 °C 0,0 km/h (0 Bft)
18.10.2016 04:01 9,2 °C 9,2 °C 96 % 1021,7 hPa 0,0 mm 0,0 km/h (0 Bft) S-SW 206 ° 0 min 0,000 mm 0,0 UV-I 0 W/m² 8,6 °C 0,0 km/h (0 Bft)
18.10.2016 04:02 9,2 °C 9,2 °C 96 % 1021,7 hPa 0,0 mm 0,0 km/h (0 Bft) S-SW 206 ° 0 min 0,000 mm 0,0 UV-I 0 W/m² 8,6 °C 0,0 km/h (0 Bft)
18.10.2016 04:03 9,2 °C 9,2 °C 96 % 1021,6 hPa 0,0 mm 0,0 km/h (0 Bft) S-SW 206 ° 0 min 0,000 mm 0,0 UV-I 0 W/m² 8,6 °C 0,0 km/h (0 Bft)
18.10.2016 04:04 9,2 °C 9,2 °C 96 % 1021,6 hPa 0,0 mm 0,0 km/h (0 Bft) S-SW 206 ° 0 min 0,000 mm 0,0 UV-I 0 W/m² 8,6 °C 0,0 km/h (0 Bft)
18.10.2016 04:05 9,2 °C 9,2 °C 96 % 1021,7 hPa 0,0 mm 0,0 km/h (0 Bft) S-SW 206 ° 0 min 0,000 mm 0,0 UV-I 0 W/m² 8,6 °C 0,0 km/h (0 Bft)
18.10.2016 04:06 9,2 °C 9,2 °C 96 % 1021,7 hPa 0,0 mm 0,0 km/h (0 Bft) S-SW 206 ° 0 min 0,000 mm 0,0 UV-I 0 W/m² 8,6 °C 0,0 km/h (0 Bft)
18.10.2016 04:07 9,2 °C 9,2 °C 96 % 1021,6 hPa 0,0 mm 0,0 km/h (0 Bft) S-SW 206 ° 0 min 0,000 mm 0,0 UV-I 0 W/m² 8,6 °C 0,0 km/h (0 Bft)
18.10.2016 04:08 9,2 °C 9,2 °C 96 % 1021,6 hPa 0,0 mm 1,0 km/h (0 Bft) S-SW 206 ° 0 min 0,000 mm 0,0 UV-I 0 W/m² 8,6 °C 1,6 km/h (1 Bft)
18.10.2016 04:09 9,2 °C 9,2 °C 96 % 1021,6 hPa 0,0 mm 1,6 km/h (1 Bft) S-SW 206 ° 0 min 0,000 mm 0,0 UV-I 0 W/m² 8,6 °C 1,6 km/h (1 Bft)
18.10.2016 04:10 9,3 °C 9,3 °C 96 % 1021,6 hPa 0,0 mm 1,3 km/h (1 Bft) S-SW 206 ° 0 min 0,000 mm 0,0 UV-I 0 W/m² 8,7 °C 1,6 km/h (1 Bft)
18.10.2016 04:11 9,3 °C 9,3 °C 96 % 1021,6 hPa 0,0 mm 0,8 km/h (0 Bft) S-SW 206 ° 0 min 0,000 mm 0,0 UV-I 0 W/m² 8,7 °C 1,6 km/h (1 Bft)
18.10.2016 04:12 9,2 °C 9,3 °C 96 % 1021,6 hPa 0,0 mm 0,0 km/h (0 Bft) S-SW 206 ° 0 min 0,000 mm 0,0 UV-I 0 W/m² 8,6 °C 0,0 km/h (0 Bft)
18.10.2016 04:13 9,3 °C 9,3 °C 96 % 1021,6 hPa 0,0 mm 0,0 km/h (0 Bft) S-SW 206 ° 0 min 0,000 mm 0,0 UV-I 0 W/m² 8,7 °C 0,0 km/h (0 Bft)
18.10.2016 04:14 9,2 °C 9,3 °C 96 % 1021,6 hPa 0,0 mm 0,0 km/h (0 Bft) S-SW 206 ° 0 min 0,000 mm 0,0 UV-I 0 W/m² 8,6 °C 0,0 km/h (0 Bft)
18.10.2016 04:15 9,2 °C 9,2 °C 96 % 1021,6 hPa 0,0 mm 0,0 km/h (0 Bft) S-SW 206 ° 0 min 0,000 mm 0,0 UV-I 0 W/m² 8,6 °C 0,0 km/h (0 Bft)
18.10.2016 04:16 9,2 °C 9,2 °C 96 % 1021,6 hPa 0,0 mm 0,3 km/h (0 Bft) S-SW 206 ° 0 min 0,000 mm 0,0 UV-I 0 W/m² 8,6 °C 1,6 km/h (1 Bft)
18.10.2016 04:17 9,2 °C 9,2 °C 96 % 1021,6 hPa 0,0 mm 0,8 km/h (0 Bft) S-SW 206 ° 0 min 0,000 mm 0,0 UV-I 0 W/m² 8,6 °C 1,6 km/h (1 Bft)
18.10.2016 04:18 9,2 °C 9,2 °C 96 % 1021,6 hPa 0,0 mm 1,3 km/h (1 Bft) S-SW 206 ° 0 min 0,000 mm 0,0 UV-I 0 W/m² 8,6 °C 1,6 km/h (1 Bft)
18.10.2016 04:19 9,2 °C 9,2 °C 96 % 1021,6 hPa 0,0 mm 0,4 km/h (0 Bft) S-SW 206 ° 0 min 0,000 mm 0,0 UV-I 0 W/m² 8,6 °C 1,6 km/h (1 Bft)
18.10.2016 04:20 9,2 °C 9,2 °C 96 % 1021,6 hPa 0,0 mm 0,0 km/h (0 Bft) S-SW 206 ° 0 min 0,000 mm 0,0 UV-I 0 W/m² 8,6 °C 0,0 km/h (0 Bft)
18.10.2016 04:21 9,2 °C 9,2 °C 96 % 1021,6 hPa 0,0 mm 0,0 km/h (0 Bft) S-SW 206 ° 0 min 0,000 mm 0,0 UV-I 0 W/m² 8,6 °C 0,0 km/h (0 Bft)
18.10.2016 04:22 9,2 °C 9,2 °C 96 % 1021,6 hPa 0,0 mm 0,0 km/h (0 Bft) S-SW 206 ° 0 min 0,000 mm 0,0 UV-I 0 W/m² 8,6 °C 0,0 km/h (0 Bft)
18.10.2016 04:23 9,2 °C 9,2 °C 96 % 1021,6 hPa 0,0 mm 0,0 km/h (0 Bft) S-SW 206 ° 0 min 0,000 mm 0,0 UV-I 0 W/m² 8,6 °C 0,0 km/h (0 Bft)
18.10.2016 04:24 9,2 °C 9,2 °C 96 % 1021,6 hPa 0,0 mm 0,0 km/h (0 Bft) S-SW 206 ° 0 min 0,000 mm 0,0 UV-I 0 W/m² 8,6 °C 0,0 km/h (0 Bft)
18.10.2016 04:25 9,2 °C 9,2 °C 96 % 1021,6 hPa 0,0 mm 0,0 km/h (0 Bft) S-SW 206 ° 0 min 0,000 mm 0,0 UV-I 0 W/m² 8,6 °C 0,0 km/h (0 Bft)
18.10.2016 04:26 9,2 °C 9,2 °C 96 % 1021,6 hPa 0,0 mm 0,0 km/h (0 Bft) S-SW 206 ° 0 min 0,000 mm 0,0 UV-I 0 W/m² 8,6 °C 0,0 km/h (0 Bft)
18.10.2016 04:27 9,2 °C 9,2 °C 96 % 1021,6 hPa 0,0 mm 0,0 km/h (0 Bft) S-SW 206 ° 0 min 0,000 mm 0,0 UV-I 0 W/m² 8,6 °C 0,0 km/h (0 Bft)
18.10.2016 04:28 9,2 °C 9,2 °C 96 % 1021,6 hPa 0,0 mm 0,0 km/h (0 Bft) S-SW 206 ° 0 min 0,000 mm 0,0 UV-I 0 W/m² 8,6 °C 0,0 km/h (0 Bft)
18.10.2016 04:29 9,2 °C 9,2 °C 96 % 1021,6 hPa 0,0 mm 0,0 km/h (0 Bft) S-SW 206 ° 0 min 0,000 mm 0,0 UV-I 0 W/m² 8,6 °C 0,0 km/h (0 Bft)
18.10.2016 04:30 9,2 °C 9,2 °C 96 % 1021,6 hPa 0,0 mm 0,0 km/h (0 Bft) S-SW 206 ° 0 min 0,000 mm 0,0 UV-I 0 W/m² 8,6 °C 0,0 km/h (0 Bft)
18.10.2016 04:31 9,2 °C 9,2 °C 96 % 1021,6 hPa 0,0 mm 0,0 km/h (0 Bft) S-SW 206 ° 0 min 0,000 mm 0,0 UV-I 0 W/m² 8,6 °C 0,0 km/h (0 Bft)
18.10.2016 04:32 9,2 °C 9,2 °C 96 % 1021,6 hPa 0,0 mm 0,0 km/h (0 Bft) S-SW 206 ° 0 min 0,000 mm 0,0 UV-I 0 W/m² 8,6 °C 0,0 km/h (0 Bft)
18.10.2016 04:33 9,2 °C 9,2 °C 96 % 1021,6 hPa 0,0 mm 0,0 km/h (0 Bft) S-SW 206 ° 0 min 0,000 mm 0,0 UV-I 0 W/m² 8,6 °C 0,0 km/h (0 Bft)
18.10.2016 04:34 9,1 °C 9,2 °C 96 % 1021,6 hPa 0,0 mm 0,0 km/h (0 Bft) S-SW 206 ° 0 min 0,000 mm 0,0 UV-I 0 W/m² 8,5 °C 0,0 km/h (0 Bft)
18.10.2016 04:35 9,1 °C 9,2 °C 96 % 1021,6 hPa 0,0 mm 0,0 km/h (0 Bft) S-SW 206 ° 0 min 0,000 mm 0,0 UV-I 0 W/m² 8,5 °C 0,0 km/h (0 Bft)
18.10.2016 04:36 9,1 °C 9,1 °C 96 % 1021,6 hPa 0,0 mm 0,0 km/h (0 Bft) S-SW 206 ° 0 min 0,000 mm 0,0 UV-I 0 W/m² 8,5 °C 0,0 km/h (0 Bft)
18.10.2016 04:37 9,1 °C 9,1 °C 96 % 1021,5 hPa 0,0 mm 0,0 km/h (0 Bft) S-SW 206 ° 0 min 0,000 mm 0,0 UV-I 0 W/m² 8,5 °C 0,0 km/h (0 Bft)
18.10.2016 04:38 9,1 °C 9,1 °C 96 % 1021,5 hPa 0,0 mm 0,0 km/h (0 Bft) S-SW 206 ° 0 min 0,000 mm 0,0 UV-I 0 W/m² 8,5 °C 0,0 km/h (0 Bft)
18.10.2016 04:39 9,2 °C 9,2 °C 96 % 1021,5 hPa 0,0 mm 0,0 km/h (0 Bft) S-SW 206 ° 0 min 0,000 mm 0,0 UV-I 0 W/m² 8,6 °C 0,0 km/h (0 Bft)
18.10.2016 04:40 9,2 °C 9,2 °C 96 % 1021,5 hPa 0,0 mm 0,0 km/h (0 Bft) S-SW 206 ° 0 min 0,000 mm 0,0 UV-I 0 W/m² 8,6 °C 0,0 km/h (0 Bft)
18.10.2016 04:41 9,1 °C 9,2 °C 96 % 1021,5 hPa 0,0 mm 0,0 km/h (0 Bft) S-SW 206 ° 0 min 0,000 mm 0,0 UV-I 0 W/m² 8,5 °C 0,0 km/h (0 Bft)
18.10.2016 04:42 9,2 °C 9,2 °C 96 % 1021,5 hPa 0,0 mm 0,0 km/h (0 Bft) S-SW 206 ° 0 min 0,000 mm 0,0 UV-I 0 W/m² 8,6 °C 0,0 km/h (0 Bft)
18.10.2016 04:43 9,2 °C 9,2 °C 96 % 1021,5 hPa 0,0 mm 0,0 km/h (0 Bft) S-SW 206 ° 0 min 0,000 mm 0,0 UV-I 0 W/m² 8,6 °C 0,0 km/h (0 Bft)
18.10.2016 04:44 9,2 °C 9,2 °C 96 % 1021,6 hPa 0,0 mm 0,0 km/h (0 Bft) S-SW 206 ° 0 min 0,000 mm 0,0 UV-I 0 W/m² 8,6 °C 0,0 km/h (0 Bft)
18.10.2016 04:45 9,2 °C 9,2 °C 96 % 1021,5 hPa 0,0 mm 0,0 km/h (0 Bft) S-SW 206 ° 0 min 0,000 mm 0,0 UV-I 0 W/m² 8,6 °C 0,0 km/h (0 Bft)
18.10.2016 04:46 9,2 °C 9,2 °C 96 % 1021,5 hPa 0,0 mm 0,0 km/h (0 Bft) S-SW 206 ° 0 min 0,000 mm 0,0 UV-I 0 W/m² 8,6 °C 0,0 km/h (0 Bft)
18.10.2016 04:47 9,2 °C 9,2 °C 96 % 1021,5 hPa 0,0 mm 0,0 km/h (0 Bft) S-SW 206 ° 0 min 0,000 mm 0,0 UV-I 0 W/m² 8,6 °C 0,0 km/h (0 Bft)
18.10.2016 04:48 9,1 °C 9,2 °C 96 % 1021,5 hPa 0,0 mm 0,0 km/h (0 Bft) S-SW 206 ° 0 min 0,000 mm 0,0 UV-I 0 W/m² 8,5 °C 0,0 km/h (0 Bft)
18.10.2016 04:49 9,1 °C 9,2 °C 96 % 1021,5 hPa 0,0 mm 0,0 km/h (0 Bft) S-SW 206 ° 0 min 0,000 mm 0,0 UV-I 0 W/m² 8,5 °C 0,0 km/h (0 Bft)
18.10.2016 04:50 9,1 °C 9,1 °C 96 % 1021,5 hPa 0,0 mm 0,2 km/h (0 Bft) S-SW 206 ° 0 min 0,000 mm 0,0 UV-I 0 W/m² 8,5 °C 1,6 km/h (1 Bft)
18.10.2016 04:51 9,1 °C 9,1 °C 96 % 1021,5 hPa 0,0 mm 1,5 km/h (1 Bft) S-SW 207 ° 0 min 0,000 mm 0,0 UV-I 0 W/m² 8,5 °C 3,2 km/h (1 Bft)
18.10.2016 04:52 9,1 °C 9,1 °C 96 % 1021,5 hPa 0,0 mm 1,5 km/h (1 Bft) S-SW 207 ° 0 min 0,000 mm 0,0 UV-I 0 W/m² 8,5 °C 3,2 km/h (1 Bft)
18.10.2016 04:53 9,1 °C 9,1 °C 96 % 1021,5 hPa 0,0 mm 1,5 km/h (1 Bft) S-SW 207 ° 0 min 0,000 mm 0,0 UV-I 0 W/m² 8,5 °C 3,2 km/h (1 Bft)
18.10.2016 04:54 9,0 °C 9,1 °C 96 % 1021,5 hPa 0,0 mm 2,8 km/h (1 Bft) S-SW 207 ° 0 min 0,000 mm 0,0 UV-I 0 W/m² 8,4 °C 3,2 km/h (1 Bft)
18.10.2016 04:55 9,0 °C 9,0 °C 96 % 1021,5 hPa 0,0 mm 2,6 km/h (1 Bft) S-SW 207 ° 0 min 0,000 mm 0,0 UV-I 0 W/m² 8,4 °C 3,2 km/h (1 Bft)
18.10.2016 04:56 9,0 °C 9,0 °C 96 % 1021,5 hPa 0,0 mm 1,1 km/h (1 Bft) S-SW 207 ° 0 min 0,000 mm 0,0 UV-I 0 W/m² 8,4 °C 1,6 km/h (1 Bft)
18.10.2016 04:57 8,9 °C 9,0 °C 96 % 1021,5 hPa 0,0 mm 0,8 km/h (0 Bft) S-SW 207 ° 0 min 0,000 mm 0,0 UV-I 0 W/m² 8,3 °C 3,2 km/h (1 Bft)
18.10.2016 04:58 8,9 °C 9,0 °C 96 % 1021,5 hPa 0,0 mm 0,0 km/h (0 Bft) S-SW 207 ° 0 min 0,000 mm 0,0 UV-I 0 W/m² 8,3 °C 0,0 km/h (0 Bft)
18.10.2016 04:59 9,0 °C 9,0 °C 96 % 1021,5 hPa 0,0 mm 0,1 km/h (0 Bft) S-SW 207 ° 0 min 0,000 mm 0,0 UV-I 0 W/m² 8,4 °C 1,6 km/h (1 Bft)
18.10.2016 05:00 9,0 °C 9,0 °C 96 % 1021,5 hPa 0,0 mm 0,4 km/h (0 Bft) S-SW 207 ° 0 min 0,000 mm 0,0 UV-I 0 W/m² 8,4 °C 1,6 km/h (1 Bft)
18.10.2016 05:01 9,1 °C 9,1 °C 96 % 1021,5 hPa 0,0 mm 0,3 km/h (0 Bft) S-SW 207 ° 0 min 0,000 mm 0,0 UV-I 0 W/m² 8,5 °C 1,6 km/h (1 Bft)
18.10.2016 05:02 9,1 °C 9,1 °C 96 % 1021,5 hPa 0,0 mm 0,0 km/h (0 Bft) S-SW 207 ° 0 min 0,000 mm 0,0 UV-I 0 W/m² 8,5 °C 0,0 km/h (0 Bft)
18.10.2016 05:03 9,1 °C 9,1 °C 96 % 1021,5 hPa 0,0 mm 2,0 km/h (1 Bft) S-SW 207 ° 0 min 0,000 mm 0,0 UV-I 0 W/m² 8,5 °C 3,2 km/h (1 Bft)
18.10.2016 05:04 9,1 °C 9,1 °C 96 % 1021,5 hPa 0,2 mm 0,3 km/h (0 Bft) S-SW 207 ° 0 min 0,000 mm 0,0 UV-I 0 W/m² 8,5 °C 1,6 km/h (1 Bft)
18.10.2016 05:05 9,1 °C 9,1 °C 96 % 1021,5 hPa 0,0 mm 1,5 km/h (1 Bft) S-SW 207 ° 0 min 0,000 mm 0,0 UV-I 0 W/m² 8,5 °C 3,2 km/h (1 Bft)
18.10.2016 05:06 9,1 °C 9,1 °C 96 % 1021,5 hPa 0,0 mm 2,4 km/h (1 Bft) O-SO 120 ° 0 min 0,000 mm 0,0 UV-I 0 W/m² 8,5 °C 4,8 km/h (1 Bft)
18.10.2016 05:07 9,1 °C 9,1 °C 96 % 1021,5 hPa 0,0 mm 0,0 km/h (0 Bft) O-SO 120 ° 0 min 0,000 mm 0,0 UV-I 0 W/m² 8,5 °C 0,0 km/h (0 Bft)
18.10.2016 05:08 9,1 °C 9,1 °C 96 % 1021,5 hPa 0,0 mm 0,0 km/h (0 Bft) O-SO 120 ° 0 min 0,000 mm 0,0 UV-I 0 W/m² 8,5 °C 0,0 km/h (0 Bft)
18.10.2016 05:09 9,1 °C 9,1 °C 96 % 1021,5 hPa 0,0 mm 0,0 km/h (0 Bft) O-SO 120 ° 0 min 0,000 mm 0,0 UV-I 0 W/m² 8,5 °C 0,0 km/h (0 Bft)
18.10.2016 05:10 9,1 °C 9,1 °C 96 % 1021,4 hPa 0,0 mm 0,0 km/h (0 Bft) O-SO 120 ° 0 min 0,000 mm 0,0 UV-I 0 W/m² 8,5 °C 0,0 km/h (0 Bft)
18.10.2016 05:11 9,1 °C 9,2 °C 96 % 1021,5 hPa 0,0 mm 0,2 km/h (0 Bft) O-SO 120 ° 0 min 0,000 mm 0,0 UV-I 0 W/m² 8,5 °C 1,6 km/h (1 Bft)
18.10.2016 05:12 9,1 °C 9,2 °C 96 % 1021,5 hPa 0,0 mm 0,3 km/h (0 Bft) O-SO 120 ° 0 min 0,000 mm 0,0 UV-I 0 W/m² 8,5 °C 1,6 km/h (1 Bft)
18.10.2016 05:13 9,1 °C 9,2 °C 96 % 1021,4 hPa 0,0 mm 0,9 km/h (0 Bft) S-SO 147 ° 0 min 0,000 mm 0,0 UV-I 0 W/m² 8,5 °C 3,2 km/h (1 Bft)
18.10.2016 05:14 9,1 °C 9,1 °C 96 % 1021,4 hPa 0,0 mm 1,5 km/h (1 Bft) S-SO 148 ° 0 min 0,000 mm 0,0 UV-I 0 W/m² 8,5 °C 3,2 km/h (1 Bft)
18.10.2016 05:15 9,1 °C 9,1 °C 96 % 1021,4 hPa 0,0 mm 0,9 km/h (0 Bft) S-SO 148 ° 0 min 0,000 mm 0,0 UV-I 0 W/m² 8,5 °C 3,2 km/h (1 Bft)
18.10.2016 05:16 9,1 °C 9,1 °C 96 % 1021,4 hPa 0,0 mm 0,7 km/h (0 Bft) S-SO 148 ° 0 min 0,000 mm 0,0 UV-I 0 W/m² 8,5 °C 1,6 km/h (1 Bft)
18.10.2016 05:17 9,1 °C 9,1 °C 96 % 1021,5 hPa 0,0 mm 0,3 km/h (0 Bft) S-SO 148 ° 0 min 0,000 mm 0,0 UV-I 0 W/m² 8,5 °C 1,6 km/h (1 Bft)
18.10.2016 05:18 9,1 °C 9,1 °C 96 % 1021,4 hPa 0,0 mm 0,1 km/h (0 Bft) S-SO 148 ° 0 min 0,000 mm 0,0 UV-I 0 W/m² 8,5 °C 1,6 km/h (1 Bft)
18.10.2016 05:19 9,1 °C 9,1 °C 96 % 1021,5 hPa 0,0 mm 0,6 km/h (0 Bft) S-SO 153 ° 0 min 0,000 mm 0,0 UV-I 0 W/m² 8,5 °C 1,6 km/h (1 Bft)
18.10.2016 05:20 9,1 °C 9,1 °C 96 % 1021,5 hPa 0,0 mm 1,0 km/h (0 Bft) S-SO 153 ° 0 min 0,000 mm 0,0 UV-I 0 W/m² 8,5 °C 1,6 km/h (1 Bft)
18.10.2016 05:21 9,1 °C 9,1 °C 96 % 1021,4 hPa 0,2 mm 0,0 km/h (0 Bft) S-SO 153 ° 0 min 0,000 mm 0,0 UV-I 0 W/m² 8,5 °C 0,0 km/h (0 Bft)
18.10.2016 05:22 9,1 °C 9,1 °C 96 % 1021,4 hPa 0,0 mm 0,0 km/h (0 Bft) S-SO 153 ° 0 min 0,000 mm 0,0 UV-I 0 W/m² 8,5 °C 0,0 km/h (0 Bft)
18.10.2016 05:23 9,1 °C 9,1 °C 96 % 1021,4 hPa 0,0 mm 1,2 km/h (1 Bft) S-SO 159 ° 0 min 0,000 mm 0,0 UV-I 0 W/m² 8,5 °C 3,2 km/h (1 Bft)
18.10.2016 05:24 9,1 °C 9,1 °C 96 % 1021,4 hPa 0,0 mm 2,1 km/h (1 Bft) S-SO 159 ° 0 min 0,000 mm 0,0 UV-I 0 W/m² 8,5 °C 3,2 km/h (1 Bft)
18.10.2016 05:25 9,1 °C 9,1 °C 96 % 1021,5 hPa 0,0 mm 0,5 km/h (0 Bft) S-SO 159 ° 0 min 0,000 mm 0,0 UV-I 0 W/m² 8,5 °C 1,6 km/h (1 Bft)
18.10.2016 05:26 9,1 °C 9,1 °C 96 % 1021,5 hPa 0,0 mm 0,4 km/h (0 Bft) S-SO 159 ° 0 min 0,000 mm 0,0 UV-I 0 W/m² 8,5 °C 1,6 km/h (1 Bft)
18.10.2016 05:27 9,1 °C 9,1 °C 96 % 1021,4 hPa 0,0 mm 0,5 km/h (0 Bft) S-SO 159 ° 0 min 0,000 mm 0,0 UV-I 0 W/m² 8,5 °C 1,6 km/h (1 Bft)
18.10.2016 05:28 9,1 °C 9,1 °C 96 % 1021,4 hPa 0,0 mm 0,3 km/h (0 Bft) S-SO 159 ° 0 min 0,000 mm 0,0 UV-I 0 W/m² 8,5 °C 1,6 km/h (1 Bft)
18.10.2016 05:29 9,1 °C 9,1 °C 96 % 1021,4 hPa 0,0 mm 0,0 km/h (0 Bft) S-SO 159 ° 0 min 0,000 mm 0,0 UV-I 0 W/m² 8,5 °C 0,0 km/h (0 Bft)
18.10.2016 05:30 9,1 °C 9,1 °C 96 % 1021,4 hPa 0,0 mm 0,2 km/h (0 Bft) S-SO 159 ° 0 min 0,000 mm 0,0 UV-I 0 W/m² 8,5 °C 1,6 km/h (1 Bft)
18.10.2016 05:31 9,1 °C 9,1 °C 96 % 1021,4 hPa 0,0 mm 0,0 km/h (0 Bft) S-SO 159 ° 0 min 0,000 mm 0,0 UV-I 0 W/m² 8,5 °C 0,0 km/h (0 Bft)
18.10.2016 05:32 9,1 °C 9,1 °C 96 % 1021,4 hPa 0,0 mm 0,3 km/h (0 Bft) S-SO 159 ° 0 min 0,000 mm 0,0 UV-I 0 W/m² 8,5 °C 1,6 km/h (1 Bft)
18.10.2016 05:33 9,1 °C 9,1 °C 96 % 1021,4 hPa 0,0 mm 0,1 km/h (0 Bft) S-SO 159 ° 0 min 0,000 mm 0,0 UV-I 0 W/m² 8,5 °C 1,6 km/h (1 Bft)
18.10.2016 05:34 9,1 °C 9,1 °C 96 % 1021,4 hPa 0,0 mm 0,1 km/h (0 Bft) S-SO 159 ° 0 min 0,000 mm 0,0 UV-I 0 W/m² 8,5 °C 1,6 km/h (1 Bft)
18.10.2016 05:35 9,1 °C 9,1 °C 96 % 1021,4 hPa 0,0 mm 0,0 km/h (0 Bft) S-SO 159 ° 0 min 0,000 mm 0,0 UV-I 0 W/m² 8,5 °C 0,0 km/h (0 Bft)
18.10.2016 05:36 9,1 °C 9,1 °C 96 % 1021,4 hPa 0,0 mm 0,0 km/h (0 Bft) S-SO 159 ° 0 min 0,000 mm 0,0 UV-I 0 W/m² 8,5 °C 0,0 km/h (0 Bft)
18.10.2016 05:37 9,0 °C 9,1 °C 96 % 1021,4 hPa 0,0 mm 0,1 km/h (0 Bft) S-SO 159 ° 0 min 0,000 mm 0,0 UV-I 0 W/m² 8,4 °C 1,6 km/h (1 Bft)
18.10.2016 05:38 9,0 °C 9,0 °C 96 % 1021,4 hPa 0,0 mm 0,6 km/h (0 Bft) S-SO 159 ° 0 min 0,000 mm 0,0 UV-I 0 W/m² 8,4 °C 3,2 km/h (1 Bft)
18.10.2016 05:39 9,0 °C 9,0 °C 96 % 1021,4 hPa 0,0 mm 2,0 km/h (1 Bft) S-SO 159 ° 0 min 0,000 mm 0,0 UV-I 0 W/m² 8,4 °C 3,2 km/h (1 Bft)
18.10.2016 05:40 9,0 °C 9,0 °C 96 % 1021,4 hPa 0,0 mm 1,7 km/h (1 Bft) S-SO 159 ° 0 min 0,000 mm 0,0 UV-I 0 W/m² 8,4 °C 3,2 km/h (1 Bft)
18.10.2016 05:41 9,0 °C 9,0 °C 96 % 1021,4 hPa 0,0 mm 0,3 km/h (0 Bft) S-SO 159 ° 0 min 0,000 mm 0,0 UV-I 0 W/m² 8,4 °C 1,6 km/h (1 Bft)
18.10.2016 05:42 9,0 °C 9,0 °C 96 % 1021,4 hPa 0,0 mm 0,0 km/h (0 Bft) S-SO 159 ° 0 min 0,000 mm 0,0 UV-I 0 W/m² 8,4 °C 0,0 km/h (0 Bft)
18.10.2016 05:43 9,0 °C 9,0 °C 96 % 1021,4 hPa 0,0 mm 0,3 km/h (0 Bft) S-SO 159 ° 0 min 0,000 mm 0,0 UV-I 0 W/m² 8,4 °C 1,6 km/h (1 Bft)
18.10.2016 05:44 9,0 °C 9,0 °C 96 % 1021,4 hPa 0,0 mm 0,3 km/h (0 Bft) S-SO 159 ° 0 min 0,000 mm 0,0 UV-I 0 W/m² 8,4 °C 1,6 km/h (1 Bft)
18.10.2016 05:45 8,9 °C 9,0 °C 96 % 1021,4 hPa 0,0 mm 0,3 km/h (0 Bft) S-SO 159 ° 0 min 0,000 mm 0,0 UV-I 0 W/m² 8,3 °C 1,6 km/h (1 Bft)
18.10.2016 05:46 9,0 °C 9,0 °C 96 % 1021,4 hPa 0,0 mm 0,2 km/h (0 Bft) S-SO 159 ° 0 min 0,000 mm 0,0 UV-I 0 W/m² 8,4 °C 1,6 km/h (1 Bft)
18.10.2016 05:47 9,0 °C 9,0 °C 96 % 1021,4 hPa 0,0 mm 0,7 km/h (0 Bft) S-SO 159 ° 0 min 0,000 mm 0,0 UV-I 0 W/m² 8,4 °C 1,6 km/h (1 Bft)
18.10.2016 05:48 9,0 °C 9,0 °C 96 % 1021,4 hPa 0,0 mm 0,6 km/h (0 Bft) S-SO 159 ° 0 min 0,000 mm 0,0 UV-I 0 W/m² 8,4 °C 1,6 km/h (1 Bft)
18.10.2016 05:49 9,0 °C 9,0 °C 96 % 1021,4 hPa 0,2 mm 0,1 km/h (0 Bft) S-SO 159 ° 0 min 0,000 mm 0,0 UV-I 0 W/m² 8,4 °C 1,6 km/h (1 Bft)
18.10.2016 05:50 9,0 °C 9,0 °C 96 % 1021,4 hPa 0,0 mm 0,3 km/h (0 Bft) S-SO 159 ° 0 min 0,000 mm 0,0 UV-I 0 W/m² 8,4 °C 1,6 km/h (1 Bft)
18.10.2016 05:51 9,0 °C 9,0 °C 96 % 1021,4 hPa 0,0 mm 0,4 km/h (0 Bft) S-SO 159 ° 0 min 0,000 mm 0,0 UV-I 0 W/m² 8,4 °C 1,6 km/h (1 Bft)
18.10.2016 05:52 9,0 °C 9,0 °C 96 % 1021,4 hPa 0,0 mm 0,9 km/h (0 Bft) S-SO 160 ° 0 min 0,000 mm 0,0 UV-I 0 W/m² 8,4 °C 3,2 km/h (1 Bft)
18.10.2016 05:53 9,0 °C 9,0 °C 96 % 1021,4 hPa 0,0 mm 1,8 km/h (1 Bft) S-SO 162 ° 0 min 0,000 mm 0,0 UV-I 0 W/m² 8,4 °C 3,2 km/h (1 Bft)
18.10.2016 05:54 9,0 °C 9,0 °C 96 % 1021,4 hPa 0,0 mm 0,4 km/h (0 Bft) S-SO 162 ° 0 min 0,000 mm 0,0 UV-I 0 W/m² 8,4 °C 1,6 km/h (1 Bft)
18.10.2016 05:55 9,0 °C 9,0 °C 96 % 1021,4 hPa 0,0 mm 1,4 km/h (1 Bft) S 174 ° 0 min 0,000 mm 0,0 UV-I 0 W/m² 8,4 °C 4,8 km/h (1 Bft)
18.10.2016 05:56 9,0 °C 9,0 °C 96 % 1021,4 hPa 0,0 mm 2,4 km/h (1 Bft) S 182 ° 0 min 0,000 mm 0,0 UV-I 0 W/m² 8,4 °C 4,8 km/h (1 Bft)
18.10.2016 05:57 9,1 °C 9,1 °C 96 % 1021,4 hPa 0,0 mm 1,5 km/h (1 Bft) S 182 ° 0 min 0,000 mm 0,0 UV-I 0 W/m² 8,5 °C 3,2 km/h (1 Bft)
18.10.2016 05:58 9,1 °C 9,1 °C 96 % 1021,4 hPa 0,0 mm 1,7 km/h (1 Bft) S 182 ° 0 min 0,000 mm 0,0 UV-I 0 W/m² 8,5 °C 3,2 km/h (1 Bft)
18.10.2016 05:59 9,1 °C 9,1 °C 96 % 1021,4 hPa 0,0 mm 1,8 km/h (1 Bft) S 182 ° 0 min 0,000 mm 0,0 UV-I 0 W/m² 8,5 °C 3,2 km/h (1 Bft)
18.10.2016 06:00 9,1 °C 9,1 °C 96 % 1021,4 hPa 0,0 mm 1,4 km/h (1 Bft) S 182 ° 0 min 0,000 mm 0,0 UV-I 0 W/m² 8,5 °C 3,2 km/h (1 Bft)
18.10.2016 06:01 9,1 °C 9,1 °C 96 % 1021,4 hPa 0,0 mm 0,9 km/h (0 Bft) S 183 ° 0 min 0,000 mm 0,0 UV-I 0 W/m² 8,5 °C 3,2 km/h (1 Bft)
18.10.2016 06:02 9,1 °C 9,1 °C 96 % 1021,4 hPa 0,0 mm 0,6 km/h (0 Bft) S 183 ° 0 min 0,000 mm 0,0 UV-I 0 W/m² 8,5 °C 1,6 km/h (1 Bft)
18.10.2016 06:03 9,1 °C 9,1 °C 96 % 1021,4 hPa 0,0 mm 0,0 km/h (0 Bft) S 183 ° 0 min 0,000 mm 0,0 UV-I 0 W/m² 8,5 °C 0,0 km/h (0 Bft)
18.10.2016 06:04 9,1 °C 9,1 °C 96 % 1021,4 hPa 0,0 mm 0,0 km/h (0 Bft) S 183 ° 0 min 0,000 mm 0,0 UV-I 0 W/m² 8,5 °C 0,0 km/h (0 Bft)
18.10.2016 06:05 9,1 °C 9,1 °C 96 % 1021,4 hPa 0,0 mm 0,0 km/h (0 Bft) S 184 ° 0 min 0,000 mm 0,0 UV-I 0 W/m² 8,5 °C 0,0 km/h (0 Bft)
18.10.2016 06:06 9,1 °C 9,1 °C 96 % 1021,4 hPa 0,0 mm 0,0 km/h (0 Bft) S 184 ° 0 min 0,000 mm 0,0 UV-I 0 W/m² 8,5 °C 0,0 km/h (0 Bft)
18.10.2016 06:07 9,1 °C 9,1 °C 96 % 1021,4 hPa 0,0 mm 0,0 km/h (0 Bft) S 184 ° 0 min 0,000 mm 0,0 UV-I 0 W/m² 8,5 °C 0,0 km/h (0 Bft)
18.10.2016 06:08 9,1 °C 9,1 °C 96 % 1021,4 hPa 0,0 mm 0,0 km/h (0 Bft) S 175 ° 0 min 0,000 mm 0,0 UV-I 0 W/m² 8,5 °C 0,0 km/h (0 Bft)
18.10.2016 06:09 9,1 °C 9,1 °C 96 % 1021,4 hPa 0,0 mm 0,0 km/h (0 Bft) S 175 ° 0 min 0,000 mm 0,0 UV-I 0 W/m² 8,5 °C 0,0 km/h (0 Bft)
18.10.2016 06:10 9,1 °C 9,1 °C 96 % 1021,4 hPa 0,0 mm 0,0 km/h (0 Bft) S 175 ° 0 min 0,000 mm 0,0 UV-I 0 W/m² 8,5 °C 0,0 km/h (0 Bft)
18.10.2016 06:11 9,1 °C 9,1 °C 96 % 1021,4 hPa 0,0 mm 0,0 km/h (0 Bft) S 175 ° 0 min 0,000 mm 0,0 UV-I 0 W/m² 8,5 °C 0,0 km/h (0 Bft)
18.10.2016 06:12 9,1 °C 9,1 °C 96 % 1021,3 hPa 0,0 mm 0,0 km/h (0 Bft) S 175 ° 0 min 0,000 mm 0,0 UV-I 0 W/m² 8,5 °C 0,0 km/h (0 Bft)
18.10.2016 06:13 9,1 °C 9,1 °C 96 % 1021,4 hPa 0,0 mm 0,0 km/h (0 Bft) S 175 ° 0 min 0,000 mm 0,0 UV-I 0 W/m² 8,5 °C 0,0 km/h (0 Bft)
18.10.2016 06:14 9,1 °C 9,1 °C 96 % 1021,3 hPa 0,0 mm 0,0 km/h (0 Bft) S 175 ° 0 min 0,000 mm 0,0 UV-I 0 W/m² 8,5 °C 0,0 km/h (0 Bft)
18.10.2016 06:15 9,1 °C 9,1 °C 96 % 1021,4 hPa 0,0 mm 0,0 km/h (0 Bft) S 175 ° 0 min 0,000 mm 0,0 UV-I 0 W/m² 8,5 °C 0,0 km/h (0 Bft)
18.10.2016 06:16 9,1 °C 9,1 °C 96 % 1021,3 hPa 0,0 mm 0,0 km/h (0 Bft) S 175 ° 0 min 0,000 mm 0,0 UV-I 0 W/m² 8,5 °C 0,0 km/h (0 Bft)
18.10.2016 06:17 9,1 °C 9,1 °C 96 % 1021,3 hPa 0,0 mm 0,0 km/h (0 Bft) S 175 ° 0 min 0,000 mm 0,0 UV-I 0 W/m² 8,5 °C 0,0 km/h (0 Bft)
18.10.2016 06:18 9,1 °C 9,1 °C 96 % 1021,3 hPa 0,0 mm 0,0 km/h (0 Bft) S 187 ° 0 min 0,000 mm 0,0 UV-I 0 W/m² 8,5 °C 0,0 km/h (0 Bft)
18.10.2016 06:19 9,1 °C 9,1 °C 96 % 1021,3 hPa 0,0 mm 0,0 km/h (0 Bft) S 186 ° 0 min 0,000 mm 0,0 UV-I 0 W/m² 8,5 °C 0,0 km/h (0 Bft)
18.10.2016 06:20 9,1 °C 9,1 °C 96 % 1021,3 hPa 0,0 mm 0,0 km/h (0 Bft) S 186 ° 0 min 0,000 mm 0,0 UV-I 0 W/m² 8,5 °C 0,0 km/h (0 Bft)
18.10.2016 06:21 9,1 °C 9,1 °C 96 % 1021,3 hPa 0,2 mm 0,0 km/h (0 Bft) S 186 ° 0 min 0,000 mm 0,0 UV-I 0 W/m² 8,5 °C 0,0 km/h (0 Bft)
18.10.2016 06:22 9,1 °C 9,1 °C 96 % 1021,4 hPa 0,0 mm 0,0 km/h (0 Bft) S 186 ° 0 min 0,000 mm 0,0 UV-I 0 W/m² 8,5 °C 0,0 km/h (0 Bft)
18.10.2016 06:23 9,1 °C 9,1 °C 96 % 1021,3 hPa 0,0 mm 0,0 km/h (0 Bft) S 186 ° 0 min 0,000 mm 0,0 UV-I 0 W/m² 8,5 °C 0,0 km/h (0 Bft)
18.10.2016 06:24 9,1 °C 9,1 °C 96 % 1021,3 hPa 0,0 mm 0,0 km/h (0 Bft) S 186 ° 0 min 0,000 mm 0,0 UV-I 0 W/m² 8,5 °C 0,0 km/h (0 Bft)
18.10.2016 06:25 9,1 °C 9,1 °C 96 % 1021,2 hPa 0,0 mm 0,0 km/h (0 Bft) S 186 ° 0 min 0,000 mm 0,0 UV-I 0 W/m² 8,5 °C 0,0 km/h (0 Bft)
18.10.2016 06:26 9,1 °C 9,1 °C 96 % 1021,3 hPa 0,0 mm 0,4 km/h (0 Bft) S 186 ° 0 min 0,000 mm 0,0 UV-I 0 W/m² 8,5 °C 3,2 km/h (1 Bft)
18.10.2016 06:27 9,1 °C 9,1 °C 96 % 1021,3 hPa 0,0 mm 1,6 km/h (1 Bft) S 187 ° 0 min 0,000 mm 0,0 UV-I 0 W/m² 8,5 °C 3,2 km/h (1 Bft)
18.10.2016 06:28 9,1 °C 9,1 °C 96 % 1021,3 hPa 0,0 mm 0,0 km/h (0 Bft) S 186 ° 0 min 0,000 mm 0,0 UV-I 0 W/m² 8,5 °C 0,0 km/h (0 Bft)
18.10.2016 06:29 9,1 °C 9,1 °C 96 % 1021,2 hPa 0,0 mm 0,0 km/h (0 Bft) S 186 ° 0 min 0,000 mm 0,0 UV-I 0 W/m² 8,5 °C 0,0 km/h (0 Bft)
18.10.2016 06:30 9,1 °C 9,1 °C 96 % 1021,3 hPa 0,0 mm 1,1 km/h (1 Bft) S 181 ° 0 min 0,000 mm 0,0 UV-I 0 W/m² 8,5 °C 3,2 km/h (1 Bft)
18.10.2016 06:31 9,1 °C 9,1 °C 96 % 1021,3 hPa 0,0 mm 2,9 km/h (1 Bft) S 178 ° 0 min 0,000 mm 0,0 UV-I 0 W/m² 8,5 °C 4,8 km/h (1 Bft)
18.10.2016 06:32 9,1 °C 9,1 °C 96 % 1021,3 hPa 0,0 mm 1,9 km/h (1 Bft) S 178 ° 0 min 0,000 mm 0,0 UV-I 0 W/m² 8,5 °C 3,2 km/h (1 Bft)
18.10.2016 06:33 9,1 °C 9,2 °C 96 % 1021,3 hPa 0,0 mm 1,4 km/h (1 Bft) S 178 ° 0 min 0,000 mm 0,0 UV-I 0 W/m² 8,5 °C 3,2 km/h (1 Bft)
18.10.2016 06:34 9,1 °C 9,1 °C 96 % 1021,3 hPa 0,0 mm 2,0 km/h (1 Bft) S 178 ° 0 min 0,000 mm 0,0 UV-I 0 W/m² 8,5 °C 3,2 km/h (1 Bft)
18.10.2016 06:35 9,2 °C 9,2 °C 96 % 1021,3 hPa 0,0 mm 1,5 km/h (1 Bft) S 185 ° 0 min 0,000 mm 0,0 UV-I 0 W/m² 8,6 °C 3,2 km/h (1 Bft)
18.10.2016 06:36 9,2 °C 9,2 °C 96 % 1021,2 hPa 0,0 mm 1,5 km/h (1 Bft) S 185 ° 0 min 0,000 mm 0,0 UV-I 0 W/m² 8,6 °C 3,2 km/h (1 Bft)
18.10.2016 06:37 9,2 °C 9,2 °C 95 % 1021,3 hPa 0,0 mm 0,8 km/h (0 Bft) S 185 ° 0 min 0,000 mm 0,0 UV-I 0 W/m² 8,4 °C 1,6 km/h (1 Bft)
18.10.2016 06:38 9,2 °C 9,2 °C 95 % 1021,3 hPa 0,0 mm 1,6 km/h (1 Bft) S 185 ° 0 min 0,000 mm 0,0 UV-I 0 W/m² 8,4 °C 3,2 km/h (1 Bft)
18.10.2016 06:39 9,2 °C 9,2 °C 95 % 1021,3 hPa 0,0 mm 1,8 km/h (1 Bft) S 184 ° 0 min 0,000 mm 0,0 UV-I 0 W/m² 8,4 °C 3,2 km/h (1 Bft)
18.10.2016 06:40 9,2 °C 9,2 °C 95 % 1021,3 hPa 0,0 mm 2,2 km/h (1 Bft) S 185 ° 0 min 0,000 mm 0,0 UV-I 0 W/m² 8,4 °C 3,2 km/h (1 Bft)
18.10.2016 06:41 9,2 °C 9,2 °C 95 % 1021,3 hPa 0,0 mm 1,7 km/h (1 Bft) S 185 ° 0 min 0,000 mm 0,0 UV-I 0 W/m² 8,4 °C 3,2 km/h (1 Bft)
18.10.2016 06:42 9,2 °C 9,2 °C 95 % 1021,3 hPa 0,0 mm 1,2 km/h (1 Bft) S 185 ° 0 min 0,000 mm 0,0 UV-I 0 W/m² 8,4 °C 3,2 km/h (1 Bft)
18.10.2016 06:43 9,2 °C 9,2 °C 95 % 1021,3 hPa 0,0 mm 1,8 km/h (1 Bft) S 185 ° 0 min 0,000 mm 0,0 UV-I 0 W/m² 8,4 °C 3,2 km/h (1 Bft)
18.10.2016 06:44 9,2 °C 9,2 °C 95 % 1021,3 hPa 0,0 mm 1,0 km/h (0 Bft) S 185 ° 0 min 0,000 mm 0,0 UV-I 0 W/m² 8,4 °C 1,6 km/h (1 Bft)
18.10.2016 06:45 9,2 °C 9,2 °C 95 % 1021,3 hPa 0,0 mm 0,6 km/h (0 Bft) S 185 ° 0 min 0,000 mm 0,0 UV-I 0 W/m² 8,4 °C 1,6 km/h (1 Bft)
18.10.2016 06:46 9,2 °C 9,2 °C 95 % 1021,2 hPa 0,0 mm 2,0 km/h (1 Bft) S 185 ° 0 min 0,000 mm 0,0 UV-I 0 W/m² 8,4 °C 3,2 km/h (1 Bft)
18.10.2016 06:47 9,2 °C 9,2 °C 95 % 1021,2 hPa 0,0 mm 0,5 km/h (0 Bft) S 185 ° 0 min 0,000 mm 0,0 UV-I 0 W/m² 8,4 °C 1,6 km/h (1 Bft)
18.10.2016 06:48 9,2 °C 9,2 °C 95 % 1021,2 hPa 0,0 mm 1,9 km/h (1 Bft) S 180 ° 0 min 0,000 mm 0,0 UV-I 0 W/m² 8,4 °C 3,2 km/h (1 Bft)
18.10.2016 06:49 9,2 °C 9,2 °C 95 % 1021,2 hPa 0,0 mm 2,4 km/h (1 Bft) S 180 ° 0 min 0,000 mm 0,0 UV-I 0 W/m² 8,4 °C 3,2 km/h (1 Bft)
18.10.2016 06:50 9,2 °C 9,2 °C 95 % 1021,2 hPa 0,0 mm 1,7 km/h (1 Bft) S 180 ° 0 min 0,000 mm 0,0 UV-I 0 W/m² 8,4 °C 3,2 km/h (1 Bft)
18.10.2016 06:51 9,2 °C 9,2 °C 95 % 1021,2 hPa 0,0 mm 1,2 km/h (1 Bft) S 180 ° 0 min 0,000 mm 0,0 UV-I 0 W/m² 8,4 °C 3,2 km/h (1 Bft)
18.10.2016 06:52 9,2 °C 9,2 °C 95 % 1021,3 hPa 0,0 mm 2,3 km/h (1 Bft) S 187 ° 0 min 0,000 mm 0,0 UV-I 0 W/m² 8,4 °C 3,2 km/h (1 Bft)
18.10.2016 06:53 9,2 °C 9,2 °C 95 % 1021,2 hPa 0,0 mm 1,1 km/h (1 Bft) S 186 ° 0 min 0,000 mm 0,0 UV-I 0 W/m² 8,4 °C 3,2 km/h (1 Bft)
18.10.2016 06:54 9,2 °C 9,2 °C 95 % 1021,2 hPa 0,0 mm 1,0 km/h (0 Bft) S 186 ° 0 min 0,000 mm 0,0 UV-I 0 W/m² 8,4 °C 3,2 km/h (1 Bft)
18.10.2016 06:55 9,2 °C 9,2 °C 95 % 1021,2 hPa 0,0 mm 2,6 km/h (1 Bft) S-SO 165 ° 0 min 0,000 mm 0,0 UV-I 0 W/m² 8,4 °C 6,4 km/h (2 Bft)
18.10.2016 06:56 9,2 °C 9,2 °C 95 % 1021,2 hPa 0,0 mm 2,7 km/h (1 Bft) S 186 ° 0 min 0,000 mm 0,0 UV-I 0 W/m² 8,4 °C 6,4 km/h (2 Bft)
18.10.2016 06:57 9,2 °C 9,2 °C 95 % 1021,2 hPa 0,2 mm 2,1 km/h (1 Bft) S 187 ° 0 min 0,000 mm 0,0 UV-I 0 W/m² 8,4 °C 3,2 km/h (1 Bft)
18.10.2016 06:58 9,2 °C 9,2 °C 95 % 1021,2 hPa 0,0 mm 2,5 km/h (1 Bft) SW 223 ° 0 min 0,000 mm 0,0 UV-I 0 W/m² 8,4 °C 4,8 km/h (1 Bft)
18.10.2016 06:59 9,2 °C 9,2 °C 94 % 1021,2 hPa 0,0 mm 1,0 km/h (0 Bft) SW 221 ° 0 min 0,000 mm 0,0 UV-I 0 W/m² 8,3 °C 1,6 km/h (1 Bft)
18.10.2016 07:00 9,2 °C 9,2 °C 94 % 1021,2 hPa 0,0 mm 2,0 km/h (1 Bft) S 182 ° 0 min 0,000 mm 0,0 UV-I 0 W/m² 8,3 °C 3,2 km/h (1 Bft)
18.10.2016 07:01 9,2 °C 9,2 °C 94 % 1021,2 hPa 0,0 mm 1,7 km/h (1 Bft) S 182 ° 0 min 0,000 mm 0,0 UV-I 0 W/m² 8,3 °C 3,2 km/h (1 Bft)
18.10.2016 07:02 9,2 °C 9,2 °C 94 % 1021,2 hPa 0,0 mm 0,5 km/h (0 Bft) S 182 ° 0 min 0,000 mm 0,0 UV-I 0 W/m² 8,3 °C 3,2 km/h (1 Bft)
18.10.2016 07:03 9,2 °C 9,2 °C 94 % 1021,1 hPa 0,0 mm 0,4 km/h (0 Bft) S 182 ° 0 min 0,000 mm 0,0 UV-I 0 W/m² 8,3 °C 1,6 km/h (1 Bft)
18.10.2016 07:04 9,2 °C 9,2 °C 94 % 1021,2 hPa 0,0 mm 0,0 km/h (0 Bft) S 182 ° 0 min 0,000 mm 0,0 UV-I 0 W/m² 8,3 °C 0,0 km/h (0 Bft)
18.10.2016 07:05 9,2 °C 9,2 °C 94 % 1021,3 hPa 0,0 mm 0,0 km/h (0 Bft) S 182 ° 0 min 0,000 mm 0,0 UV-I 0 W/m² 8,3 °C 0,0 km/h (0 Bft)
18.10.2016 07:06 9,2 °C 9,2 °C 94 % 1021,3 hPa 0,0 mm 0,0 km/h (0 Bft) S 182 ° 0 min 0,000 mm 0,0 UV-I 0 W/m² 8,3 °C 0,0 km/h (0 Bft)
18.10.2016 07:07 9,2 °C 9,2 °C 95 % 1021,1 hPa 0,0 mm 0,1 km/h (0 Bft) S 182 ° 0 min 0,000 mm 0,0 UV-I 0 W/m² 8,4 °C 1,6 km/h (1 Bft)
18.10.2016 07:08 9,2 °C 9,2 °C 95 % 1021,2 hPa 0,0 mm 1,0 km/h (0 Bft) S 182 ° 0 min 0,000 mm 0,0 UV-I 0 W/m² 8,4 °C 3,2 km/h (1 Bft)
18.10.2016 07:09 9,2 °C 9,2 °C 95 % 1021,1 hPa 0,0 mm 1,6 km/h (1 Bft) S 182 ° 0 min 0,000 mm 0,0 UV-I 0 W/m² 8,4 °C 3,2 km/h (1 Bft)
18.10.2016 07:10 9,2 °C 9,2 °C 95 % 1021,1 hPa 0,0 mm 0,1 km/h (0 Bft) S 182 ° 0 min 0,000 mm 0,0 UV-I 0 W/m² 8,4 °C 1,6 km/h (1 Bft)
18.10.2016 07:11 9,1 °C 9,2 °C 95 % 1021,2 hPa 0,0 mm 1,3 km/h (1 Bft) SW 227 ° 0 min 0,000 mm 0,0 UV-I 0 W/m² 8,3 °C 3,2 km/h (1 Bft)
18.10.2016 07:12 9,2 °C 9,2 °C 95 % 1021,1 hPa 0,0 mm 0,8 km/h (0 Bft) SW 227 ° 0 min 0,000 mm 0,0 UV-I 0 W/m² 8,4 °C 1,6 km/h (1 Bft)
18.10.2016 07:13 9,1 °C 9,2 °C 95 % 1021,1 hPa 0,0 mm 0,7 km/h (0 Bft) SW 227 ° 0 min 0,000 mm 0,0 UV-I 0 W/m² 8,3 °C 1,6 km/h (1 Bft)
18.10.2016 07:14 9,1 °C 9,1 °C 95 % 1021,1 hPa 0,0 mm 0,4 km/h (0 Bft) SW 227 ° 0 min 0,000 mm 0,0 UV-I 0 W/m² 8,3 °C 1,6 km/h (1 Bft)
18.10.2016 07:15 9,1 °C 9,1 °C 95 % 1021,1 hPa 0,0 mm 0,9 km/h (0 Bft) SW 227 ° 0 min 0,000 mm 0,0 UV-I 0 W/m² 8,3 °C 1,6 km/h (1 Bft)
18.10.2016 07:16 9,1 °C 9,1 °C 95 % 1021,1 hPa 0,0 mm 0,6 km/h (0 Bft) SW 227 ° 0 min 0,000 mm 0,0 UV-I 0 W/m² 8,3 °C 1,6 km/h (1 Bft)
18.10.2016 07:17 9,1 °C 9,1 °C 95 % 1021,1 hPa 0,0 mm 0,3 km/h (0 Bft) SW 227 ° 0 min 0,000 mm 0,0 UV-I 0 W/m² 8,3 °C 1,6 km/h (1 Bft)
18.10.2016 07:18 9,1 °C 9,1 °C 95 % 1021,1 hPa 0,2 mm 0,0 km/h (0 Bft) SW 227 ° 0 min 0,000 mm 0,0 UV-I 0 W/m² 8,3 °C 0,0 km/h (0 Bft)
18.10.2016 07:19 9,1 °C 9,1 °C 95 % 1021,1 hPa 0,0 mm 0,0 km/h (0 Bft) SW 227 ° 0 min 0,000 mm 0,0 UV-I 0 W/m² 8,3 °C 0,0 km/h (0 Bft)
18.10.2016 07:20 9,1 °C 9,1 °C 95 % 1021,1 hPa 0,0 mm 0,0 km/h (0 Bft) SW 227 ° 0 min 0,000 mm 0,0 UV-I 0 W/m² 8,3 °C 0,0 km/h (0 Bft)
18.10.2016 07:21 9,0 °C 9,1 °C 95 % 1021,2 hPa 0,0 mm 0,0 km/h (0 Bft) SW 227 ° 0 min 0,000 mm 0,0 UV-I 0 W/m² 8,2 °C 0,0 km/h (0 Bft)
18.10.2016 07:22 9,0 °C 9,0 °C 95 % 1021,1 hPa 0,0 mm 0,0 km/h (0 Bft) SW 227 ° 0 min 0,000 mm 0,0 UV-I 0 W/m² 8,2 °C 0,0 km/h (0 Bft)
18.10.2016 07:23 9,0 °C 9,1 °C 95 % 1021,1 hPa 0,0 mm 0,0 km/h (0 Bft) SW 227 ° 0 min 0,000 mm 0,0 UV-I 0 W/m² 8,2 °C 0,0 km/h (0 Bft)
18.10.2016 07:24 9,0 °C 9,1 °C 95 % 1021,1 hPa 0,0 mm 0,0 km/h (0 Bft) SW 227 ° 0 min 0,000 mm 0,0 UV-I 0 W/m² 8,2 °C 0,0 km/h (0 Bft)
18.10.2016 07:25 9,0 °C 9,1 °C 95 % 1021,2 hPa 0,0 mm 0,0 km/h (0 Bft) SW 227 ° 0 min 0,000 mm 0,0 UV-I 0 W/m² 8,2 °C 0,0 km/h (0 Bft)
18.10.2016 07:26 9,0 °C 9,0 °C 95 % 1021,1 hPa 0,0 mm 0,1 km/h (0 Bft) SW 227 ° 0 min 0,000 mm 0,0 UV-I 0 W/m² 8,2 °C 1,6 km/h (1 Bft)
18.10.2016 07:27 9,0 °C 9,1 °C 95 % 1021,1 hPa 0,0 mm 0,2 km/h (0 Bft) SW 227 ° 0 min 0,000 mm 0,0 UV-I 0 W/m² 8,2 °C 1,6 km/h (1 Bft)
18.10.2016 07:28 9,0 °C 9,0 °C 95 % 1021,1 hPa 0,2 mm 0,3 km/h (0 Bft) SW 227 ° 0 min 0,000 mm 0,0 UV-I 0 W/m² 8,2 °C 1,6 km/h (1 Bft)
18.10.2016 07:29 9,0 °C 9,0 °C 95 % 1021,2 hPa 0,0 mm 0,7 km/h (0 Bft) SW 227 ° 0 min 0,000 mm 0,0 UV-I 0 W/m² 8,2 °C 1,6 km/h (1 Bft)
18.10.2016 07:30 9,0 °C 9,0 °C 95 % 1021,1 hPa 0,0 mm 1,1 km/h (1 Bft) SW 227 ° 0 min 0,000 mm 0,0 UV-I 0 W/m² 8,2 °C 1,6 km/h (1 Bft)
18.10.2016 07:31 9,0 °C 9,0 °C 95 % 1021,1 hPa 0,2 mm 0,2 km/h (0 Bft) SW 227 ° 0 min 0,000 mm 0,0 UV-I 0 W/m² 8,2 °C 1,6 km/h (1 Bft)
18.10.2016 07:32 9,0 °C 9,0 °C 95 % 1021,1 hPa 0,0 mm 1,3 km/h (1 Bft) SW 227 ° 0 min 0,000 mm 0,0 UV-I 0 W/m² 8,2 °C 1,6 km/h (1 Bft)
18.10.2016 07:33 9,0 °C 9,0 °C 95 % 1021,1 hPa 0,0 mm 0,1 km/h (0 Bft) SW 227 ° 0 min 0,000 mm 0,0 UV-I 0 W/m² 8,2 °C 1,6 km/h (1 Bft)
18.10.2016 07:34 8,9 °C 9,0 °C 95 % 1021,1 hPa 0,2 mm 2,2 km/h (1 Bft) SW 227 ° 0 min 0,000 mm 0,0 UV-I 0 W/m² 8,1 °C 3,2 km/h (1 Bft)
18.10.2016 07:35 9,0 °C 9,0 °C 95 % 1021,1 hPa 0,0 mm 1,1 km/h (1 Bft) SW 227 ° 0 min 0,000 mm 0,0 UV-I 0 W/m² 8,2 °C 3,2 km/h (1 Bft)
18.10.2016 07:36 9,0 °C 9,0 °C 95 % 1021,1 hPa 0,0 mm 1,6 km/h (1 Bft) SW 223 ° 0 min 0,000 mm 0,0 UV-I 0 W/m² 8,2 °C 3,2 km/h (1 Bft)
18.10.2016 07:37 9,0 °C 9,0 °C 95 % 1021,1 hPa 0,0 mm 0,9 km/h (0 Bft) SW 223 ° 0 min 0,000 mm 0,0 UV-I 0 W/m² 8,2 °C 1,6 km/h (1 Bft)
18.10.2016 07:38 8,9 °C 9,0 °C 96 % 1021,1 hPa 0,0 mm 0,9 km/h (0 Bft) SW 223 ° 0 min 0,000 mm 0,0 UV-I 0 W/m² 8,3 °C 1,6 km/h (1 Bft)
18.10.2016 07:39 9,0 °C 9,0 °C 96 % 1021,1 hPa 0,2 mm 0,5 km/h (0 Bft) SW 223 ° 0 min 0,000 mm 0,0 UV-I 0 W/m² 8,4 °C 1,6 km/h (1 Bft)
18.10.2016 07:40 9,0 °C 9,0 °C 96 % 1021,1 hPa 0,0 mm 0,0 km/h (0 Bft) SW 223 ° 0 min 0,000 mm 0,0 UV-I 0 W/m² 8,4 °C 0,0 km/h (0 Bft)
18.10.2016 07:41 8,9 °C 9,0 °C 96 % 1021,1 hPa 0,0 mm 0,0 km/h (0 Bft) SW 223 ° 0 min 0,000 mm 0,0 UV-I 0 W/m² 8,3 °C 0,0 km/h (0 Bft)
18.10.2016 07:42 9,0 °C 9,0 °C 96 % 1021,1 hPa 0,0 mm 0,0 km/h (0 Bft) SW 223 ° 0 min 0,000 mm 0,0 UV-I 0 W/m² 8,4 °C 0,0 km/h (0 Bft)
18.10.2016 07:43 8,9 °C 9,0 °C 96 % 1021,1 hPa 0,2 mm 1,2 km/h (1 Bft) SW 223 ° 0 min 0,000 mm 0,0 UV-I 0 W/m² 8,3 °C 1,6 km/h (1 Bft)
18.10.2016 07:44 8,9 °C 8,9 °C 96 % 1021,1 hPa 0,0 mm 0,7 km/h (0 Bft) SW 223 ° 0 min 0,000 mm 0,0 UV-I 0 W/m² 8,3 °C 1,6 km/h (1 Bft)
18.10.2016 07:45 8,9 °C 8,9 °C 96 % 1021,1 hPa 0,0 mm 1,4 km/h (1 Bft) SW 223 ° 0 min 0,000 mm 0,0 UV-I 0 W/m² 8,3 °C 1,6 km/h (1 Bft)
18.10.2016 07:46 8,9 °C 8,9 °C 96 % 1021,1 hPa 0,0 mm 1,4 km/h (1 Bft) SW 223 ° 0 min 0,000 mm 0,0 UV-I 0 W/m² 8,3 °C 1,6 km/h (1 Bft)
18.10.2016 07:47 8,9 °C 8,9 °C 96 % 1021,0 hPa 0,0 mm 1,5 km/h (1 Bft) SW 223 ° 0 min 0,000 mm 0,0 UV-I 0 W/m² 8,3 °C 1,6 km/h (1 Bft)
18.10.2016 07:48 8,9 °C 8,9 °C 96 % 1021,1 hPa 0,0 mm 1,3 km/h (1 Bft) SW 223 ° 0 min 0,000 mm 0,0 UV-I 0 W/m² 8,3 °C 3,2 km/h (1 Bft)
18.10.2016 07:49 8,9 °C 8,9 °C 96 % 1021,1 hPa 0,0 mm 0,6 km/h (0 Bft) SW 223 ° 0 min 0,000 mm 0,0 UV-I 0 W/m² 8,3 °C 1,6 km/h (1 Bft)
18.10.2016 07:50 8,9 °C 8,9 °C 96 % 1021,1 hPa 0,0 mm 1,3 km/h (1 Bft) SW 223 ° 0 min 0,000 mm 0,0 UV-I 0 W/m² 8,3 °C 1,6 km/h (1 Bft)
18.10.2016 07:51 8,9 °C 8,9 °C 96 % 1021,0 hPa 0,0 mm 0,9 km/h (0 Bft) SW 223 ° 0 min 0,000 mm 0,0 UV-I 5 W/m² 8,3 °C 1,6 km/h (1 Bft)
18.10.2016 07:52 8,9 °C 8,9 °C 96 % 1021,1 hPa 0,0 mm 0,2 km/h (0 Bft) SW 223 ° 0 min 0,000 mm 0,0 UV-I 7 W/m² 8,3 °C 1,6 km/h (1 Bft)
18.10.2016 07:53 8,9 °C 8,9 °C 96 % 1021,1 hPa 0,2 mm 0,0 km/h (0 Bft) SW 223 ° 0 min 0,000 mm 0,0 UV-I 7 W/m² 8,3 °C 0,0 km/h (0 Bft)
18.10.2016 07:54 8,9 °C 8,9 °C 96 % 1021,1 hPa 0,0 mm 1,0 km/h (0 Bft) SW 223 ° 0 min 0,000 mm 0,0 UV-I 9 W/m² 8,3 °C 1,6 km/h (1 Bft)
18.10.2016 07:55 8,9 °C 8,9 °C 96 % 1021,1 hPa 0,0 mm 0,0 km/h (0 Bft) SW 223 ° 0 min 0,000 mm 0,0 UV-I 9 W/m² 8,3 °C 0,0 km/h (0 Bft)
18.10.2016 07:56 8,9 °C 8,9 °C 96 % 1021,1 hPa 0,0 mm 0,0 km/h (0 Bft) SW 223 ° 0 min 0,000 mm 0,0 UV-I 9 W/m² 8,3 °C 0,0 km/h (0 Bft)
18.10.2016 07:57 8,9 °C 8,9 °C 96 % 1021,1 hPa 0,0 mm 0,0 km/h (0 Bft) SW 223 ° 0 min 0,000 mm 0,0 UV-I 11 W/m² 8,3 °C 0,0 km/h (0 Bft)
18.10.2016 07:58 8,9 °C 8,9 °C 96 % 1021,1 hPa 0,0 mm 0,0 km/h (0 Bft) SW 223 ° 0 min 0,000 mm 0,0 UV-I 11 W/m² 8,3 °C 0,0 km/h (0 Bft)
18.10.2016 07:59 8,9 °C 8,9 °C 96 % 1021,1 hPa 0,0 mm 0,0 km/h (0 Bft) SW 223 ° 0 min 0,000 mm 0,0 UV-I 11 W/m² 8,3 °C 0,0 km/h (0 Bft)
18.10.2016 08:00 8,9 °C 8,9 °C 96 % 1021,1 hPa 0,0 mm 0,0 km/h (0 Bft) SW 223 ° 0 min 0,000 mm 0,0 UV-I 11 W/m² 8,3 °C 0,0 km/h (0 Bft)
18.10.2016 08:01 8,9 °C 8,9 °C 96 % 1021,1 hPa 0,0 mm 0,0 km/h (0 Bft) SW 223 ° 0 min 0,000 mm 0,0 UV-I 11 W/m² 8,3 °C 0,0 km/h (0 Bft)
18.10.2016 08:02 8,9 °C 8,9 °C 96 % 1021,1 hPa 0,2 mm 0,0 km/h (0 Bft) SW 223 ° 0 min 0,000 mm 0,0 UV-I 9 W/m² 8,3 °C 0,0 km/h (0 Bft)
18.10.2016 08:03 8,9 °C 8,9 °C 96 % 1021,1 hPa 0,0 mm 0,0 km/h (0 Bft) SW 223 ° 0 min 0,000 mm 0,0 UV-I 9 W/m² 8,3 °C 0,0 km/h (0 Bft)
18.10.2016 08:04 8,9 °C 8,9 °C 96 % 1021,1 hPa 0,0 mm 0,0 km/h (0 Bft) SW 223 ° 0 min 0,000 mm 0,0 UV-I 9 W/m² 8,3 °C 0,0 km/h (0 Bft)
18.10.2016 08:05 8,9 °C 8,9 °C 96 % 1021,1 hPa 0,0 mm 0,0 km/h (0 Bft) SW 223 ° 0 min 0,000 mm 0,0 UV-I 7 W/m² 8,3 °C 0,0 km/h (0 Bft)
18.10.2016 08:06 8,9 °C 8,9 °C 96 % 1021,1 hPa 0,0 mm 0,0 km/h (0 Bft) SW 223 ° 0 min 0,000 mm 0,0 UV-I 9 W/m² 8,3 °C 0,0 km/h (0 Bft)
18.10.2016 08:07 8,9 °C 8,9 °C 96 % 1021,1 hPa 0,0 mm 0,0 km/h (0 Bft) SW 223 ° 0 min 0,000 mm 0,0 UV-I 9 W/m² 8,3 °C 0,0 km/h (0 Bft)
18.10.2016 08:08 8,9 °C 8,9 °C 96 % 1021,1 hPa 0,0 mm 0,0 km/h (0 Bft) SW 223 ° 0 min 0,000 mm 0,0 UV-I 9 W/m² 8,3 °C 0,0 km/h (0 Bft)
18.10.2016 08:09 8,9 °C 8,9 °C 96 % 1021,2 hPa 0,0 mm 0,0 km/h (0 Bft) SW 223 ° 0 min 0,000 mm 0,0 UV-I 9 W/m² 8,3 °C 0,0 km/h (0 Bft)
18.10.2016 08:10 8,9 °C 8,9 °C 96 % 1021,1 hPa 0,0 mm 0,0 km/h (0 Bft) SW 223 ° 0 min 0,000 mm 0,0 UV-I 9 W/m² 8,3 °C 0,0 km/h (0 Bft)
18.10.2016 08:11 8,9 °C 8,9 °C 96 % 1021,1 hPa 0,0 mm 0,0 km/h (0 Bft) SW 223 ° 0 min 0,000 mm 0,0 UV-I 9 W/m² 8,3 °C 0,0 km/h (0 Bft)
18.10.2016 08:12 8,9 °C 8,9 °C 96 % 1021,2 hPa 0,0 mm 0,0 km/h (0 Bft) SW 223 ° 0 min 0,000 mm 0,0 UV-I 11 W/m² 8,3 °C 0,0 km/h (0 Bft)
18.10.2016 08:13 8,9 °C 8,9 °C 96 % 1021,1 hPa 0,0 mm 0,0 km/h (0 Bft) SW 223 ° 0 min 0,000 mm 0,0 UV-I 11 W/m² 8,3 °C 0,0 km/h (0 Bft)
18.10.2016 08:14 8,9 °C 8,9 °C 96 % 1021,2 hPa 0,0 mm 0,0 km/h (0 Bft) SW 223 ° 0 min 0,000 mm 0,0 UV-I 11 W/m² 8,3 °C 0,0 km/h (0 Bft)
18.10.2016 08:15 8,9 °C 8,9 °C 96 % 1021,2 hPa 0,0 mm 0,0 km/h (0 Bft) SW 223 ° 0 min 0,000 mm 0,0 UV-I 12 W/m² 8,3 °C 0,0 km/h (0 Bft)
18.10.2016 08:16 8,9 °C 8,9 °C 96 % 1021,2 hPa 0,0 mm 0,0 km/h (0 Bft) SW 223 ° 0 min 0,000 mm 0,0 UV-I 12 W/m² 8,3 °C 0,0 km/h (0 Bft)
18.10.2016 08:17 8,9 °C 8,9 °C 96 % 1021,2 hPa 0,0 mm 0,0 km/h (0 Bft) SW 223 ° 0 min 0,000 mm 0,0 UV-I 14 W/m² 8,3 °C 0,0 km/h (0 Bft)
18.10.2016 08:18 8,9 °C 8,9 °C 96 % 1021,2 hPa 0,0 mm 0,0 km/h (0 Bft) SW 223 ° 0 min 0,000 mm 0,0 UV-I 14 W/m² 8,3 °C 0,0 km/h (0 Bft)
18.10.2016 08:19 8,9 °C 8,9 °C 96 % 1021,2 hPa 0,0 mm 0,0 km/h (0 Bft) SW 223 ° 0 min 0,000 mm 0,0 UV-I 14 W/m² 8,3 °C 0,0 km/h (0 Bft)
18.10.2016 08:20 8,9 °C 8,9 °C 96 % 1021,2 hPa 0,0 mm 0,0 km/h (0 Bft) SW 223 ° 0 min 0,000 mm 0,0 UV-I 14 W/m² 8,3 °C 0,0 km/h (0 Bft)
18.10.2016 08:21 8,9 °C 8,9 °C 96 % 1021,2 hPa 0,0 mm 0,0 km/h (0 Bft) SW 223 ° 0 min 0,000 mm 0,0 UV-I 18 W/m² 8,3 °C 0,0 km/h (0 Bft)
18.10.2016 08:22 8,9 °C 8,9 °C 96 % 1021,2 hPa 0,0 mm 0,0 km/h (0 Bft) SW 223 ° 0 min 0,000 mm 0,0 UV-I 21 W/m² 8,3 °C 0,0 km/h (0 Bft)
18.10.2016 08:23 8,9 °C 8,9 °C 96 % 1021,2 hPa 0,0 mm 0,0 km/h (0 Bft) SW 223 ° 0 min 0,000 mm 0,0 UV-I 21 W/m² 8,3 °C 0,0 km/h (0 Bft)
18.10.2016 08:24 8,9 °C 8,9 °C 96 % 1021,2 hPa 0,0 mm 0,0 km/h (0 Bft) SW 223 ° 0 min 0,000 mm 0,0 UV-I 23 W/m² 8,3 °C 0,0 km/h (0 Bft)
18.10.2016 08:25 8,9 °C 9,0 °C 96 % 1021,2 hPa 0,0 mm 0,0 km/h (0 Bft) SW 223 ° 0 min 0,000 mm 0,0 UV-I 25 W/m² 8,3 °C 0,0 km/h (0 Bft)
18.10.2016 08:26 8,9 °C 8,9 °C 96 % 1021,2 hPa 0,0 mm 0,4 km/h (0 Bft) SW 223 ° 0 min 0,000 mm 0,0 UV-I 25 W/m² 8,3 °C 1,6 km/h (1 Bft)
18.10.2016 08:27 8,9 °C 9,0 °C 96 % 1021,2 hPa 0,0 mm 0,3 km/h (0 Bft) SW 223 ° 0 min 0,000 mm 0,0 UV-I 26 W/m² 8,3 °C 1,6 km/h (1 Bft)
18.10.2016 08:28 9,0 °C 9,0 °C 96 % 1021,2 hPa 0,0 mm 0,1 km/h (0 Bft) SW 223 ° 0 min 0,000 mm 0,0 UV-I 26 W/m² 8,4 °C 1,6 km/h (1 Bft)
18.10.2016 08:29 9,0 °C 9,0 °C 96 % 1021,2 hPa 0,0 mm 0,0 km/h (0 Bft) SW 223 ° 0 min 0,000 mm 0,0 UV-I 26 W/m² 8,4 °C 0,0 km/h (0 Bft)
18.10.2016 08:30 9,0 °C 9,0 °C 96 % 1021,2 hPa 0,0 mm 0,0 km/h (0 Bft) SW 223 ° 0 min 0,000 mm 0,0 UV-I 26 W/m² 8,4 °C 0,0 km/h (0 Bft)
18.10.2016 08:31 9,0 °C 9,0 °C 96 % 1021,2 hPa 0,0 mm 0,0 km/h (0 Bft) SW 223 ° 0 min 0,000 mm 0,0 UV-I 26 W/m² 8,4 °C 0,0 km/h (0 Bft)
18.10.2016 08:32 9,0 °C 9,0 °C 96 % 1021,2 hPa 0,0 mm 0,1 km/h (0 Bft) SW 223 ° 0 min 0,000 mm 0,0 UV-I 26 W/m² 8,4 °C 1,6 km/h (1 Bft)
18.10.2016 08:33 9,0 °C 9,0 °C 96 % 1021,2 hPa 0,0 mm 0,0 km/h (0 Bft) SW 223 ° 0 min 0,000 mm 0,0 UV-I 25 W/m² 8,4 °C 0,0 km/h (0 Bft)
18.10.2016 08:34 9,0 °C 9,1 °C 96 % 1021,3 hPa 0,0 mm 0,0 km/h (0 Bft) SW 223 ° 0 min 0,000 mm 0,0 UV-I 25 W/m² 8,4 °C 0,0 km/h (0 Bft)
18.10.2016 08:35 9,1 °C 9,1 °C 96 % 1021,3 hPa 0,0 mm 0,0 km/h (0 Bft) SW 223 ° 0 min 0,000 mm 0,0 UV-I 23 W/m² 8,5 °C 0,0 km/h (0 Bft)
18.10.2016 08:36 9,0 °C 9,1 °C 96 % 1021,3 hPa 0,0 mm 0,0 km/h (0 Bft) SW 223 ° 0 min 0,000 mm 0,0 UV-I 23 W/m² 8,4 °C 0,0 km/h (0 Bft)
18.10.2016 08:37 9,0 °C 9,0 °C 96 % 1021,2 hPa 0,0 mm 0,1 km/h (0 Bft) SW 223 ° 0 min 0,000 mm 0,0 UV-I 21 W/m² 8,4 °C 1,6 km/h (1 Bft)
18.10.2016 08:38 9,0 °C 9,0 °C 96 % 1021,2 hPa 0,0 mm 0,3 km/h (0 Bft) SW 223 ° 0 min 0,000 mm 0,0 UV-I 21 W/m² 8,4 °C 1,6 km/h (1 Bft)
18.10.2016 08:39 9,0 °C 9,0 °C 96 % 1021,2 hPa 0,0 mm 0,1 km/h (0 Bft) SW 223 ° 0 min 0,000 mm 0,0 UV-I 18 W/m² 8,4 °C 1,6 km/h (1 Bft)
18.10.2016 08:40 9,0 °C 9,0 °C 96 % 1021,2 hPa 0,0 mm 1,9 km/h (1 Bft) SW 230 ° 0 min 0,000 mm 0,0 UV-I 18 W/m² 8,4 °C 3,2 km/h (1 Bft)
18.10.2016 08:41 9,0 °C 9,0 °C 96 % 1021,3 hPa 0,0 mm 1,9 km/h (1 Bft) SW 230 ° 0 min 0,000 mm 0,0 UV-I 16 W/m² 8,4 °C 3,2 km/h (1 Bft)
18.10.2016 08:42 8,9 °C 9,0 °C 96 % 1021,3 hPa 0,0 mm 0,7 km/h (0 Bft) SW 230 ° 0 min 0,000 mm 0,0 UV-I 16 W/m² 8,3 °C 1,6 km/h (1 Bft)
18.10.2016 08:43 8,9 °C 9,0 °C 96 % 1021,3 hPa 0,0 mm 0,0 km/h (0 Bft) SW 230 ° 0 min 0,000 mm 0,0 UV-I 14 W/m² 8,3 °C 0,0 km/h (0 Bft)
18.10.2016 08:44 8,9 °C 8,9 °C 96 % 1021,3 hPa 0,0 mm 0,0 km/h (0 Bft) SW 230 ° 0 min 0,000 mm 0,0 UV-I 14 W/m² 8,3 °C 0,0 km/h (0 Bft)
18.10.2016 08:45 8,9 °C 8,9 °C 96 % 1021,3 hPa 0,0 mm 0,0 km/h (0 Bft) SW 230 ° 0 min 0,000 mm 0,0 UV-I 12 W/m² 8,3 °C 0,0 km/h (0 Bft)
18.10.2016 08:46 8,9 °C 8,9 °C 96 % 1021,3 hPa 0,0 mm 0,1 km/h (0 Bft) SW 230 ° 0 min 0,000 mm 0,0 UV-I 12 W/m² 8,3 °C 1,6 km/h (1 Bft)
18.10.2016 08:47 8,9 °C 8,9 °C 96 % 1021,3 hPa 0,0 mm 0,6 km/h (0 Bft) SW 230 ° 0 min 0,000 mm 0,0 UV-I 12 W/m² 8,3 °C 1,6 km/h (1 Bft)
18.10.2016 08:48 8,9 °C 8,9 °C 96 % 1021,3 hPa 0,0 mm 0,1 km/h (0 Bft) SW 230 ° 0 min 0,000 mm 0,0 UV-I 12 W/m² 8,3 °C 1,6 km/h (1 Bft)
18.10.2016 08:49 8,9 °C 8,9 °C 96 % 1021,3 hPa 0,0 mm 0,0 km/h (0 Bft) SW 230 ° 0 min 0,000 mm 0,0 UV-I 12 W/m² 8,3 °C 0,0 km/h (0 Bft)
18.10.2016 08:50 8,9 °C 8,9 °C 96 % 1021,3 hPa 0,0 mm 0,1 km/h (0 Bft) SW 230 ° 0 min 0,000 mm 0,0 UV-I 12 W/m² 8,3 °C 1,6 km/h (1 Bft)
18.10.2016 08:51 8,9 °C 8,9 °C 96 % 1021,3 hPa 0,0 mm 0,0 km/h (0 Bft) SW 229 ° 0 min 0,000 mm 0,0 UV-I 12 W/m² 8,3 °C 0,0 km/h (0 Bft)
18.10.2016 08:52 8,9 °C 8,9 °C 96 % 1021,3 hPa 0,0 mm 0,0 km/h (0 Bft) SW 229 ° 0 min 0,000 mm 0,0 UV-I 12 W/m² 8,3 °C 0,0 km/h (0 Bft)
18.10.2016 08:53 8,9 °C 9,0 °C 96 % 1021,3 hPa 0,0 mm 0,0 km/h (0 Bft) SW 229 ° 0 min 0,000 mm 0,0 UV-I 12 W/m² 8,3 °C 0,0 km/h (0 Bft)
18.10.2016 08:54 8,9 °C 8,9 °C 96 % 1021,3 hPa 0,0 mm 0,0 km/h (0 Bft) SW 229 ° 0 min 0,000 mm 0,0 UV-I 12 W/m² 8,3 °C 0,0 km/h (0 Bft)
18.10.2016 08:55 9,0 °C 9,0 °C 96 % 1021,3 hPa 0,0 mm 0,0 km/h (0 Bft) SW 229 ° 0 min 0,000 mm 0,0 UV-I 12 W/m² 8,4 °C 0,0 km/h (0 Bft)
18.10.2016 08:56 9,0 °C 9,0 °C 96 % 1021,3 hPa 0,0 mm 0,0 km/h (0 Bft) SW 229 ° 0 min 0,000 mm 0,0 UV-I 12 W/m² 8,4 °C 0,0 km/h (0 Bft)
18.10.2016 08:57 9,0 °C 9,0 °C 96 % 1021,3 hPa 0,0 mm 0,0 km/h (0 Bft) SW 229 ° 0 min 0,000 mm 0,0 UV-I 14 W/m² 8,4 °C 0,0 km/h (0 Bft)
18.10.2016 08:58 9,0 °C 9,0 °C 96 % 1021,3 hPa 0,0 mm 0,0 km/h (0 Bft) SW 229 ° 0 min 0,000 mm 0,0 UV-I 14 W/m² 8,4 °C 0,0 km/h (0 Bft)
18.10.2016 08:59 9,0 °C 9,1 °C 96 % 1021,3 hPa 0,0 mm 0,0 km/h (0 Bft) SW 229 ° 0 min 0,000 mm 0,0 UV-I 14 W/m² 8,4 °C 0,0 km/h (0 Bft)
18.10.2016 09:00 9,1 °C 9,1 °C 96 % 1021,3 hPa 0,0 mm 0,0 km/h (0 Bft) SW 229 ° 0 min 0,000 mm 0,0 UV-I 14 W/m² 8,5 °C 0,0 km/h (0 Bft)
18.10.2016 09:01 9,1 °C 9,1 °C 96 % 1021,3 hPa 0,0 mm 0,0 km/h (0 Bft) SW 229 ° 0 min 0,000 mm 0,0 UV-I 16 W/m² 8,5 °C 0,0 km/h (0 Bft)
18.10.2016 09:02 9,1 °C 9,1 °C 96 % 1021,3 hPa 0,0 mm 0,0 km/h (0 Bft) SW 229 ° 0 min 0,000 mm 0,0 UV-I 18 W/m² 8,5 °C 0,0 km/h (0 Bft)
18.10.2016 09:03 9,1 °C 9,1 °C 96 % 1021,3 hPa 0,0 mm 0,0 km/h (0 Bft) SW 229 ° 0 min 0,000 mm 0,0 UV-I 18 W/m² 8,5 °C 0,0 km/h (0 Bft)
18.10.2016 09:04 9,1 °C 9,1 °C 96 % 1021,3 hPa 0,0 mm 0,0 km/h (0 Bft) SW 229 ° 0 min 0,000 mm 0,0 UV-I 18 W/m² 8,5 °C 0,0 km/h (0 Bft)
18.10.2016 09:05 9,1 °C 9,1 °C 96 % 1021,3 hPa 0,0 mm 0,0 km/h (0 Bft) SW 229 ° 0 min 0,000 mm 0,0 UV-I 18 W/m² 8,5 °C 0,0 km/h (0 Bft)
18.10.2016 09:06 9,1 °C 9,1 °C 96 % 1021,4 hPa 0,0 mm 0,0 km/h (0 Bft) SW 229 ° 0 min 0,000 mm 0,0 UV-I 18 W/m² 8,5 °C 0,0 km/h (0 Bft)
18.10.2016 09:07 9,1 °C 9,1 °C 96 % 1021,3 hPa 0,0 mm 0,0 km/h (0 Bft) SW 229 ° 0 min 0,000 mm 0,0 UV-I 18 W/m² 8,5 °C 0,0 km/h (0 Bft)
18.10.2016 09:08 9,1 °C 9,1 °C 96 % 1021,4 hPa 0,0 mm 0,0 km/h (0 Bft) SW 229 ° 0 min 0,000 mm 0,0 UV-I 18 W/m² 8,5 °C 0,0 km/h (0 Bft)
18.10.2016 09:09 9,0 °C 9,1 °C 96 % 1021,3 hPa 0,0 mm 0,0 km/h (0 Bft) SW 229 ° 0 min 0,000 mm 0,0 UV-I 18 W/m² 8,4 °C 0,0 km/h (0 Bft)
18.10.2016 09:10 9,1 °C 9,1 °C 96 % 1021,4 hPa 0,0 mm 0,0 km/h (0 Bft) SW 229 ° 0 min 0,000 mm 0,0 UV-I 16 W/m² 8,5 °C 0,0 km/h (0 Bft)
18.10.2016 09:11 9,1 °C 9,1 °C 96 % 1021,4 hPa 0,0 mm 0,0 km/h (0 Bft) SW 229 ° 0 min 0,000 mm 0,0 UV-I 16 W/m² 8,5 °C 0,0 km/h (0 Bft)
18.10.2016 09:12 9,1 °C 9,1 °C 96 % 1021,4 hPa 0,0 mm 0,0 km/h (0 Bft) SW 229 ° 0 min 0,000 mm 0,0 UV-I 14 W/m² 8,5 °C 0,0 km/h (0 Bft)
18.10.2016 09:13 9,1 °C 9,1 °C 96 % 1021,4 hPa 0,0 mm 0,0 km/h (0 Bft) SW 229 ° 0 min 0,000 mm 0,0 UV-I 14 W/m² 8,5 °C 0,0 km/h (0 Bft)
18.10.2016 09:14 9,1 °C 9,1 °C 96 % 1021,4 hPa 0,0 mm 0,0 km/h (0 Bft) SW 229 ° 0 min 0,000 mm 0,0 UV-I 14 W/m² 8,5 °C 0,0 km/h (0 Bft)
18.10.2016 09:15 9,1 °C 9,1 °C 96 % 1021,4 hPa 0,0 mm 0,0 km/h (0 Bft) SW 229 ° 0 min 0,000 mm 0,0 UV-I 14 W/m² 8,5 °C 0,0 km/h (0 Bft)
18.10.2016 09:16 9,1 °C 9,1 °C 96 % 1021,4 hPa 0,0 mm 0,0 km/h (0 Bft) SW 229 ° 0 min 0,000 mm 0,0 UV-I 14 W/m² 8,5 °C 0,0 km/h (0 Bft)
18.10.2016 09:17 9,1 °C 9,1 °C 96 % 1021,4 hPa 0,0 mm 0,0 km/h (0 Bft) SW 229 ° 0 min 0,000 mm 0,0 UV-I 14 W/m² 8,5 °C 0,0 km/h (0 Bft)
18.10.2016 09:18 9,1 °C 9,1 °C 96 % 1021,5 hPa 0,0 mm 0,0 km/h (0 Bft) SW 229 ° 0 min 0,000 mm 0,0 UV-I 12 W/m² 8,5 °C 0,0 km/h (0 Bft)
18.10.2016 09:19 9,1 °C 9,1 °C 96 % 1021,5 hPa 0,0 mm 0,0 km/h (0 Bft) SW 229 ° 0 min 0,000 mm 0,0 UV-I 14 W/m² 8,5 °C 0,0 km/h (0 Bft)
18.10.2016 09:20 9,1 °C 9,1 °C 96 % 1021,5 hPa 0,0 mm 0,0 km/h (0 Bft) SW 229 ° 0 min 0,000 mm 0,0 UV-I 14 W/m² 8,5 °C 0,0 km/h (0 Bft)
18.10.2016 09:21 9,1 °C 9,1 °C 96 % 1021,5 hPa 0,0 mm 0,0 km/h (0 Bft) SW 229 ° 0 min 0,000 mm 0,0 UV-I 14 W/m² 8,5 °C 0,0 km/h (0 Bft)
18.10.2016 09:22 9,1 °C 9,1 °C 96 % 1021,5 hPa 0,0 mm 0,0 km/h (0 Bft) SW 229 ° 0 min 0,000 mm 0,0 UV-I 14 W/m² 8,5 °C 0,0 km/h (0 Bft)
18.10.2016 09:23 9,1 °C 9,1 °C 96 % 1021,5 hPa 0,0 mm 0,0 km/h (0 Bft) SW 229 ° 0 min 0,000 mm 0,0 UV-I 14 W/m² 8,5 °C 0,0 km/h (0 Bft)
18.10.2016 09:24 9,1 °C 9,1 °C 96 % 1021,5 hPa 0,0 mm 0,0 km/h (0 Bft) SW 229 ° 0 min 0,000 mm 0,0 UV-I 16 W/m² 8,5 °C 0,0 km/h (0 Bft)
18.10.2016 09:25 9,1 °C 9,1 °C 96 % 1021,5 hPa 0,0 mm 0,0 km/h (0 Bft) SW 229 ° 0 min 0,000 mm 0,0 UV-I 18 W/m² 8,5 °C 0,0 km/h (0 Bft)
18.10.2016 09:26 9,1 °C 9,1 °C 96 % 1021,5 hPa 0,0 mm 0,0 km/h (0 Bft) SW 229 ° 0 min 0,000 mm 0,0 UV-I 19 W/m² 8,5 °C 0,0 km/h (0 Bft)
18.10.2016 09:27 9,1 °C 9,1 °C 96 % 1021,5 hPa 0,0 mm 0,0 km/h (0 Bft) SW 229 ° 0 min 0,000 mm 0,0 UV-I 21 W/m² 8,5 °C 0,0 km/h (0 Bft)
18.10.2016 09:28 9,1 °C 9,1 °C 96 % 1021,5 hPa 0,0 mm 0,0 km/h (0 Bft) SW 229 ° 0 min 0,000 mm 0,0 UV-I 23 W/m² 8,5 °C 0,0 km/h (0 Bft)
18.10.2016 09:29 9,1 °C 9,1 °C 96 % 1021,5 hPa 0,0 mm 0,0 km/h (0 Bft) SW 229 ° 0 min 0,000 mm 0,0 UV-I 25 W/m² 8,5 °C 0,0 km/h (0 Bft)
18.10.2016 09:30 9,1 °C 9,2 °C 96 % 1021,5 hPa 0,0 mm 0,0 km/h (0 Bft) SW 229 ° 0 min 0,000 mm 0,0 UV-I 26 W/m² 8,5 °C 0,0 km/h (0 Bft)
18.10.2016 09:31 9,1 °C 9,2 °C 96 % 1021,5 hPa 0,0 mm 1,8 km/h (1 Bft) SW 229 ° 0 min 0,000 mm 0,0 UV-I 32 W/m² 8,5 °C 3,2 km/h (1 Bft)
18.10.2016 09:32 9,2 °C 9,2 °C 96 % 1021,5 hPa 0,0 mm 1,8 km/h (1 Bft) SW 229 ° 0 min 0,000 mm 0,0 UV-I 37 W/m² 8,6 °C 3,2 km/h (1 Bft)
18.10.2016 09:33 9,1 °C 9,2 °C 96 % 1021,6 hPa 0,0 mm 1,9 km/h (1 Bft) SW 229 ° 0 min 0,000 mm 0,0 UV-I 40 W/m² 8,5 °C 3,2 km/h (1 Bft)
18.10.2016 09:34 9,2 °C 9,2 °C 96 % 1021,6 hPa 0,0 mm 2,6 km/h (1 Bft) SW 229 ° 0 min 0,000 mm 0,0 UV-I 46 W/m² 8,6 °C 3,2 km/h (1 Bft)
18.10.2016 09:35 9,2 °C 9,2 °C 96 % 1021,6 hPa 0,0 mm 2,1 km/h (1 Bft) SW 229 ° 0 min 0,000 mm 0,0 UV-I 49 W/m² 8,6 °C 3,2 km/h (1 Bft)
18.10.2016 09:36 9,2 °C 9,2 °C 96 % 1021,5 hPa 0,0 mm 0,9 km/h (0 Bft) SW 229 ° 0 min 0,000 mm 0,0 UV-I 53 W/m² 8,6 °C 3,2 km/h (1 Bft)
18.10.2016 09:37 9,2 °C 9,2 °C 96 % 1021,6 hPa 0,0 mm 0,0 km/h (0 Bft) SW 229 ° 0 min 0,000 mm 0,0 UV-I 53 W/m² 8,6 °C 0,0 km/h (0 Bft)
18.10.2016 09:38 9,2 °C 9,2 °C 96 % 1021,6 hPa 0,0 mm 0,0 km/h (0 Bft) SW 229 ° 0 min 0,000 mm 0,0 UV-I 51 W/m² 8,6 °C 0,0 km/h (0 Bft)
18.10.2016 09:39 9,2 °C 9,2 °C 96 % 1021,6 hPa 0,2 mm 0,0 km/h (0 Bft) SW 229 ° 0 min 0,000 mm 0,0 UV-I 49 W/m² 8,6 °C 0,0 km/h (0 Bft)
18.10.2016 09:40 9,3 °C 9,3 °C 96 % 1021,6 hPa 0,0 mm 0,0 km/h (0 Bft) SW 229 ° 0 min 0,000 mm 0,0 UV-I 49 W/m² 8,7 °C 0,0 km/h (0 Bft)
18.10.2016 09:41 9,3 °C 9,3 °C 96 % 1021,6 hPa 0,0 mm 0,0 km/h (0 Bft) SW 229 ° 0 min 0,000 mm 0,0 UV-I 49 W/m² 8,7 °C 0,0 km/h (0 Bft)
18.10.2016 09:42 9,3 °C 9,3 °C 96 % 1021,6 hPa 0,0 mm 0,0 km/h (0 Bft) SW 229 ° 0 min 0,000 mm 0,0 UV-I 53 W/m² 8,7 °C 0,0 km/h (0 Bft)
18.10.2016 09:43 9,3 °C 9,3 °C 96 % 1021,6 hPa 0,0 mm 0,0 km/h (0 Bft) SW 229 ° 0 min 0,000 mm 0,0 UV-I 65 W/m² 8,7 °C 0,0 km/h (0 Bft)
18.10.2016 09:44 9,3 °C 9,3 °C 96 % 1021,6 hPa 0,0 mm 0,0 km/h (0 Bft) SW 229 ° 0 min 0,000 mm 0,0 UV-I 70 W/m² 8,7 °C 0,0 km/h (0 Bft)
18.10.2016 09:45 9,4 °C 9,4 °C 96 % 1021,6 hPa 0,0 mm 0,0 km/h (0 Bft) SW 229 ° 0 min 0,000 mm 0,0 UV-I 70 W/m² 8,8 °C 0,0 km/h (0 Bft)
18.10.2016 09:46 9,4 °C 9,4 °C 97 % 1021,6 hPa 0,0 mm 0,0 km/h (0 Bft) SW 229 ° 0 min 0,000 mm 0,0 UV-I 69 W/m² 8,9 °C 0,0 km/h (0 Bft)
18.10.2016 09:47 9,4 °C 9,4 °C 97 % 1021,6 hPa 0,0 mm 0,0 km/h (0 Bft) SW 229 ° 0 min 0,000 mm 0,0 UV-I 65 W/m² 8,9 °C 0,0 km/h (0 Bft)
18.10.2016 09:48 9,4 °C 9,4 °C 96 % 1021,6 hPa 0,0 mm 0,0 km/h (0 Bft) SW 229 ° 0 min 0,000 mm 0,0 UV-I 62 W/m² 8,8 °C 0,0 km/h (0 Bft)
18.10.2016 09:49 9,4 °C 9,4 °C 96 % 1021,7 hPa 0,0 mm 0,2 km/h (0 Bft) SW 229 ° 0 min 0,000 mm 0,0 UV-I 54 W/m² 8,8 °C 1,6 km/h (1 Bft)
18.10.2016 09:50 9,4 °C 9,4 °C 96 % 1021,7 hPa 0,0 mm 0,1 km/h (0 Bft) SW 229 ° 0 min 0,000 mm 0,0 UV-I 53 W/m² 8,8 °C 1,6 km/h (1 Bft)
18.10.2016 09:51 9,4 °C 9,4 °C 96 % 1021,6 hPa 0,0 mm 0,0 km/h (0 Bft) SW 229 ° 0 min 0,000 mm 0,0 UV-I 53 W/m² 8,8 °C 0,0 km/h (0 Bft)
18.10.2016 09:52 9,4 °C 9,4 °C 96 % 1021,6 hPa 0,2 mm 0,1 km/h (0 Bft) SW 229 ° 0 min 0,000 mm 0,0 UV-I 53 W/m² 8,8 °C 1,6 km/h (1 Bft)
18.10.2016 09:53 9,4 °C 9,4 °C 96 % 1021,6 hPa 0,0 mm 0,0 km/h (0 Bft) SW 229 ° 0 min 0,000 mm 0,0 UV-I 53 W/m² 8,8 °C 0,0 km/h (0 Bft)
18.10.2016 09:54 9,4 °C 9,4 °C 96 % 1021,6 hPa 0,0 mm 0,0 km/h (0 Bft) SW 229 ° 0 min 0,000 mm 0,0 UV-I 53 W/m² 8,8 °C 0,0 km/h (0 Bft)
18.10.2016 09:55 9,4 °C 9,4 °C 96 % 1021,7 hPa 0,0 mm 0,0 km/h (0 Bft) SW 229 ° 0 min 0,000 mm 0,0 UV-I 51 W/m² 8,8 °C 0,0 km/h (0 Bft)
18.10.2016 09:56 9,4 °C 9,4 °C 96 % 1021,7 hPa 0,0 mm 0,4 km/h (0 Bft) SW 229 ° 0 min 0,000 mm 0,0 UV-I 51 W/m² 8,8 °C 1,6 km/h (1 Bft)
18.10.2016 09:57 9,4 °C 9,4 °C 96 % 1021,7 hPa 0,0 mm 0,3 km/h (0 Bft) SW 229 ° 0 min 0,000 mm 0,0 UV-I 49 W/m² 8,8 °C 1,6 km/h (1 Bft)
18.10.2016 09:58 9,4 °C 9,4 °C 96 % 1021,7 hPa 0,0 mm 0,0 km/h (0 Bft) SW 229 ° 0 min 0,000 mm 0,0 UV-I 49 W/m² 8,8 °C 0,0 km/h (0 Bft)
18.10.2016 09:59 9,4 °C 9,4 °C 96 % 1021,7 hPa 0,0 mm 0,0 km/h (0 Bft) SW 229 ° 0 min 0,000 mm 0,0 UV-I 49 W/m² 8,8 °C 0,0 km/h (0 Bft)
18.10.2016 10:00 9,4 °C 9,4 °C 96 % 1021,7 hPa 0,0 mm 0,0 km/h (0 Bft) SW 229 ° 0 min 0,000 mm 0,0 UV-I 47 W/m² 8,8 °C 0,0 km/h (0 Bft)
18.10.2016 10:01 9,4 °C 9,4 °C 96 % 1021,7 hPa 0,0 mm 0,3 km/h (0 Bft) SW 229 ° 0 min 0,025 mm 0,0 UV-I 44 W/m² 8,8 °C 1,6 km/h (1 Bft)
18.10.2016 10:02 9,4 °C 9,4 °C 96 % 1021,7 hPa 0,0 mm 0,7 km/h (0 Bft) SW 229 ° 0 min 0,000 mm 0,0 UV-I 42 W/m² 8,8 °C 1,6 km/h (1 Bft)
18.10.2016 10:03 9,4 °C 9,5 °C 96 % 1021,7 hPa 0,0 mm 0,3 km/h (0 Bft) SW 229 ° 0 min 0,000 mm 0,0 UV-I 40 W/m² 8,8 °C 1,6 km/h (1 Bft)
18.10.2016 10:04 9,5 °C 9,5 °C 96 % 1021,7 hPa 0,0 mm 0,1 km/h (0 Bft) SW 229 ° 0 min 0,000 mm 0,0 UV-I 40 W/m² 8,9 °C 1,6 km/h (1 Bft)
18.10.2016 10:05 9,4 °C 9,5 °C 96 % 1021,7 hPa 0,0 mm 0,0 km/h (0 Bft) SW 229 ° 0 min 0,000 mm 0,0 UV-I 40 W/m² 8,8 °C 0,0 km/h (0 Bft)
18.10.2016 10:06 9,5 °C 9,5 °C 96 % 1021,7 hPa 0,0 mm 0,0 km/h (0 Bft) SW 229 ° 0 min 0,000 mm 0,0 UV-I 40 W/m² 8,9 °C 0,0 km/h (0 Bft)
18.10.2016 10:07 9,5 °C 9,5 °C 96 % 1021,8 hPa 0,0 mm 0,7 km/h (0 Bft) W-SW 252 ° 0 min 0,000 mm 0,0 UV-I 39 W/m² 8,9 °C 3,2 km/h (1 Bft)
18.10.2016 10:08 9,5 °C 9,5 °C 96 % 1021,8 hPa 0,2 mm 3,3 km/h (1 Bft) W-NW 284 ° 0 min 0,000 mm 0,0 UV-I 37 W/m² 8,9 °C 4,8 km/h (1 Bft)
18.10.2016 10:09 9,5 °C 9,5 °C 96 % 1021,8 hPa 0,0 mm 4,8 km/h (1 Bft) SW 224 ° 0 min 0,000 mm 0,0 UV-I 37 W/m² 8,9 °C 6,4 km/h (2 Bft)
18.10.2016 10:10 9,4 °C 9,5 °C 95 % 1021,7 hPa 0,0 mm 2,2 km/h (1 Bft) SW 232 ° 0 min 0,000 mm 0,0 UV-I 35 W/m² 8,6 °C 4,8 km/h (1 Bft)
18.10.2016 10:11 9,3 °C 9,4 °C 95 % 1021,8 hPa 0,2 mm 4,8 km/h (1 Bft) W-SW 246 ° 0 min 0,000 mm 0,0 UV-I 35 W/m² 8,5 °C 6,4 km/h (2 Bft)
18.10.2016 10:12 9,3 °C 9,3 °C 94 % 1021,8 hPa 0,0 mm 3,6 km/h (1 Bft) W 268 ° 0 min 0,000 mm 0,0 UV-I 33 W/m² 8,4 °C 4,8 km/h (1 Bft)
18.10.2016 10:13 9,2 °C 9,3 °C 94 % 1021,8 hPa 0,0 mm 3,2 km/h (1 Bft) W 264 ° 0 min 0,000 mm 0,0 UV-I 33 W/m² 8,3 °C 4,8 km/h (1 Bft)
18.10.2016 10:14 9,2 °C 9,2 °C 94 % 1021,8 hPa 0,0 mm 3,0 km/h (1 Bft) SW 236 ° 0 min 0,000 mm 0,0 UV-I 32 W/m² 8,3 °C 4,8 km/h (1 Bft)
18.10.2016 10:15 9,2 °C 9,2 °C 94 % 1021,8 hPa 0,0 mm 1,8 km/h (1 Bft) SW 236 ° 0 min 0,000 mm 0,0 UV-I 33 W/m² 8,3 °C 3,2 km/h (1 Bft)
18.10.2016 10:16 9,2 °C 9,2 °C 94 % 1021,8 hPa 0,0 mm 0,3 km/h (0 Bft) SW 236 ° 0 min 0,000 mm 0,0 UV-I 35 W/m² 8,3 °C 1,6 km/h (1 Bft)
18.10.2016 10:17 9,1 °C 9,2 °C 94 % 1021,8 hPa 0,0 mm 0,0 km/h (0 Bft) SW 236 ° 0 min 0,000 mm 0,0 UV-I 37 W/m² 8,2 °C 0,0 km/h (0 Bft)
18.10.2016 10:18 9,1 °C 9,1 °C 94 % 1021,8 hPa 0,0 mm 0,0 km/h (0 Bft) SW 236 ° 0 min 0,000 mm 0,0 UV-I 35 W/m² 8,2 °C 0,0 km/h (0 Bft)
18.10.2016 10:19 9,1 °C 9,1 °C 95 % 1021,8 hPa 0,0 mm 0,0 km/h (0 Bft) SW 236 ° 0 min 0,000 mm 0,0 UV-I 33 W/m² 8,3 °C 0,0 km/h (0 Bft)
18.10.2016 10:20 9,1 °C 9,1 °C 95 % 1021,8 hPa 0,0 mm 0,1 km/h (0 Bft) SW 236 ° 0 min 0,000 mm 0,0 UV-I 33 W/m² 8,3 °C 1,6 km/h (1 Bft)
18.10.2016 10:21 9,1 °C 9,1 °C 95 % 1021,8 hPa 0,0 mm 0,0 km/h (0 Bft) SW 236 ° 0 min 0,000 mm 0,0 UV-I 32 W/m² 8,3 °C 0,0 km/h (0 Bft)
18.10.2016 10:22 9,0 °C 9,1 °C 95 % 1021,8 hPa 0,0 mm 1,1 km/h (1 Bft) SW 236 ° 0 min 0,000 mm 0,0 UV-I 32 W/m² 8,2 °C 3,2 km/h (1 Bft)
18.10.2016 10:23 9,0 °C 9,0 °C 95 % 1021,8 hPa 0,0 mm 1,2 km/h (1 Bft) SW 236 ° 0 min 0,000 mm 0,0 UV-I 33 W/m² 8,2 °C 1,6 km/h (1 Bft)
18.10.2016 10:24 8,9 °C 9,0 °C 95 % 1021,8 hPa 0,2 mm 0,5 km/h (0 Bft) SW 236 ° 0 min 0,000 mm 0,0 UV-I 35 W/m² 8,1 °C 1,6 km/h (1 Bft)
18.10.2016 10:25 8,9 °C 8,9 °C 95 % 1021,8 hPa 0,0 mm 0,4 km/h (0 Bft) SW 236 ° 0 min 0,000 mm 0,0 UV-I 35 W/m² 8,1 °C 1,6 km/h (1 Bft)
18.10.2016 10:26 8,9 °C 8,9 °C 95 % 1021,8 hPa 0,0 mm 1,1 km/h (1 Bft) SW 236 ° 0 min 0,000 mm 0,0 UV-I 35 W/m² 8,1 °C 1,6 km/h (1 Bft)
18.10.2016 10:27 8,9 °C 8,9 °C 95 % 1021,9 hPa 0,0 mm 1,5 km/h (1 Bft) SW 236 ° 0 min 0,000 mm 0,0 UV-I 35 W/m² 8,1 °C 3,2 km/h (1 Bft)
18.10.2016 10:28 8,9 °C 8,9 °C 95 % 1021,8 hPa 0,0 mm 0,6 km/h (0 Bft) SW 236 ° 0 min 0,000 mm 0,0 UV-I 33 W/m² 8,1 °C 1,6 km/h (1 Bft)
18.10.2016 10:29 8,9 °C 8,9 °C 95 % 1021,8 hPa 0,0 mm 0,9 km/h (0 Bft) SW 236 ° 0 min 0,000 mm 0,0 UV-I 33 W/m² 8,1 °C 3,2 km/h (1 Bft)
18.10.2016 10:30 9,0 °C 9,0 °C 95 % 1021,8 hPa 0,0 mm 0,8 km/h (0 Bft) SW 236 ° 0 min 0,000 mm 0,0 UV-I 33 W/m² 8,2 °C 1,6 km/h (1 Bft)
18.10.2016 10:31 8,9 °C 9,0 °C 95 % 1021,8 hPa 0,0 mm 0,0 km/h (0 Bft) SW 236 ° 0 min 0,000 mm 0,0 UV-I 33 W/m² 8,1 °C 0,0 km/h (0 Bft)
18.10.2016 10:32 9,0 °C 9,0 °C 95 % 1021,8 hPa 0,0 mm 0,0 km/h (0 Bft) SW 236 ° 0 min 0,000 mm 0,0 UV-I 33 W/m² 8,2 °C 0,0 km/h (0 Bft)
18.10.2016 10:33 9,0 °C 9,0 °C 95 % 1021,9 hPa 0,0 mm 1,3 km/h (1 Bft) SW 236 ° 0 min 0,000 mm 0,0 UV-I 33 W/m² 8,2 °C 3,2 km/h (1 Bft)
18.10.2016 10:34 9,0 °C 9,0 °C 95 % 1021,9 hPa 0,0 mm 1,4 km/h (1 Bft) SW 236 ° 0 min 0,000 mm 0,0 UV-I 33 W/m² 8,2 °C 3,2 km/h (1 Bft)
18.10.2016 10:35 9,0 °C 9,0 °C 95 % 1021,8 hPa 0,0 mm 0,0 km/h (0 Bft) SW 236 ° 0 min 0,000 mm 0,0 UV-I 33 W/m² 8,2 °C 0,0 km/h (0 Bft)
18.10.2016 10:36 8,9 °C 9,0 °C 95 % 1021,9 hPa 0,2 mm 0,0 km/h (0 Bft) SW 236 ° 0 min 0,000 mm 0,0 UV-I 33 W/m² 8,1 °C 0,0 km/h (0 Bft)
18.10.2016 10:37 8,9 °C 9,0 °C 95 % 1021,9 hPa 0,0 mm 0,0 km/h (0 Bft) SW 235 ° 0 min 0,000 mm 0,0 UV-I 35 W/m² 8,1 °C 0,0 km/h (0 Bft)
18.10.2016 10:38 8,9 °C 8,9 °C 95 % 1021,9 hPa 0,0 mm 1,4 km/h (1 Bft) SW 234 ° 0 min 0,000 mm 0,0 UV-I 39 W/m² 8,1 °C 4,8 km/h (1 Bft)
18.10.2016 10:39 8,9 °C 9,0 °C 95 % 1021,9 hPa 0,0 mm 0,0 km/h (0 Bft) SW 234 ° 0 min 0,000 mm 0,0 UV-I 42 W/m² 8,1 °C 0,0 km/h (0 Bft)
18.10.2016 10:40 8,9 °C 8,9 °C 95 % 1021,9 hPa 0,0 mm 0,0 km/h (0 Bft) SW 234 ° 0 min 0,000 mm 0,0 UV-I 47 W/m² 8,1 °C 0,0 km/h (0 Bft)
18.10.2016 10:41 8,9 °C 8,9 °C 95 % 1021,9 hPa 0,0 mm 0,0 km/h (0 Bft) SW 234 ° 0 min 0,000 mm 0,0 UV-I 53 W/m² 8,1 °C 0,0 km/h (0 Bft)
18.10.2016 10:42 8,9 °C 8,9 °C 95 % 1022,0 hPa 0,0 mm 0,0 km/h (0 Bft) SW 234 ° 0 min 0,000 mm 0,5 UV-I 56 W/m² 8,1 °C 0,0 km/h (0 Bft)
18.10.2016 10:43 9,0 °C 9,0 °C 95 % 1021,9 hPa 0,0 mm 0,0 km/h (0 Bft) SW 234 ° 0 min 0,000 mm 0,5 UV-I 62 W/m² 8,2 °C 0,0 km/h (0 Bft)
18.10.2016 10:44 9,0 °C 9,0 °C 95 % 1022,0 hPa 0,2 mm 0,0 km/h (0 Bft) SW 234 ° 0 min 0,000 mm 0,5 UV-I 62 W/m² 8,2 °C 0,0 km/h (0 Bft)
18.10.2016 10:45 9,0 °C 9,0 °C 95 % 1021,9 hPa 0,0 mm 0,0 km/h (0 Bft) SW 234 ° 0 min 0,000 mm 0,5 UV-I 65 W/m² 8,2 °C 0,0 km/h (0 Bft)
18.10.2016 10:46 9,0 °C 9,0 °C 95 % 1022,0 hPa 0,0 mm 0,0 km/h (0 Bft) SW 215 ° 0 min 0,000 mm 0,5 UV-I 67 W/m² 8,2 °C 0,0 km/h (0 Bft)
18.10.2016 10:47 9,0 °C 9,1 °C 95 % 1022,0 hPa 0,2 mm 0,0 km/h (0 Bft) SW 215 ° 0 min 0,000 mm 0,5 UV-I 67 W/m² 8,2 °C 0,0 km/h (0 Bft)
18.10.2016 10:48 9,1 °C 9,1 °C 95 % 1022,0 hPa 0,0 mm 0,2 km/h (0 Bft) SW 215 ° 0 min 0,000 mm 0,5 UV-I 67 W/m² 8,3 °C 1,6 km/h (1 Bft)
18.10.2016 10:49 9,1 °C 9,1 °C 95 % 1022,0 hPa 0,0 mm 1,2 km/h (1 Bft) SW 216 ° 0 min 0,000 mm 0,6 UV-I 65 W/m² 8,3 °C 3,2 km/h (1 Bft)
18.10.2016 10:50 9,1 °C 9,1 °C 95 % 1022,0 hPa 0,0 mm 0,0 km/h (0 Bft) SW 216 ° 0 min 0,000 mm 0,6 UV-I 65 W/m² 8,3 °C 0,0 km/h (0 Bft)
18.10.2016 10:51 9,1 °C 9,1 °C 95 % 1022,0 hPa 0,0 mm 0,0 km/h (0 Bft) SW 216 ° 0 min 0,000 mm 0,6 UV-I 67 W/m² 8,3 °C 0,0 km/h (0 Bft)
18.10.2016 10:52 9,1 °C 9,1 °C 95 % 1022,0 hPa 0,0 mm 0,0 km/h (0 Bft) SW 216 ° 0 min 0,000 mm 0,6 UV-I 70 W/m² 8,3 °C 0,0 km/h (0 Bft)
18.10.2016 10:53 9,1 °C 9,2 °C 95 % 1022,0 hPa 0,2 mm 0,0 km/h (0 Bft) SW 216 ° 0 min 0,000 mm 0,7 UV-I 72 W/m² 8,3 °C 0,0 km/h (0 Bft)
18.10.2016 10:54 9,1 °C 9,1 °C 95 % 1022,0 hPa 0,0 mm 0,0 km/h (0 Bft) SW 216 ° 0 min 0,000 mm 0,7 UV-I 74 W/m² 8,3 °C 0,0 km/h (0 Bft)
18.10.2016 10:55 9,1 °C 9,1 °C 95 % 1022,0 hPa 0,0 mm 0,0 km/h (0 Bft) SW 216 ° 0 min 0,000 mm 0,6 UV-I 72 W/m² 8,3 °C 0,0 km/h (0 Bft)
18.10.2016 10:56 9,1 °C 9,2 °C 95 % 1022,0 hPa 0,0 mm 0,0 km/h (0 Bft) SW 216 ° 0 min 0,000 mm 0,6 UV-I 69 W/m² 8,3 °C 0,0 km/h (0 Bft)
18.10.2016 10:57 9,1 °C 9,2 °C 95 % 1022,1 hPa 0,0 mm 0,0 km/h (0 Bft) SW 216 ° 0 min 0,000 mm 0,6 UV-I 69 W/m² 8,3 °C 0,0 km/h (0 Bft)
18.10.2016 10:58 9,2 °C 9,2 °C 95 % 1022,0 hPa 0,0 mm 0,0 km/h (0 Bft) SW 216 ° 0 min 0,000 mm 0,7 UV-I 72 W/m² 8,4 °C 0,0 km/h (0 Bft)
18.10.2016 10:59 9,2 °C 9,2 °C 95 % 1022,0 hPa 0,0 mm 0,0 km/h (0 Bft) SW 216 ° 0 min 0,000 mm 0,7 UV-I 77 W/m² 8,4 °C 0,0 km/h (0 Bft)
18.10.2016 11:00 9,3 °C 9,3 °C 95 % 1022,0 hPa 0,0 mm 0,0 km/h (0 Bft) SW 216 ° 0 min 0,000 mm 0,7 UV-I 77 W/m² 8,5 °C 0,0 km/h (0 Bft)
18.10.2016 11:01 9,3 °C 9,3 °C 95 % 1022,0 hPa 0,0 mm 0,0 km/h (0 Bft) SW 216 ° 0 min 0,025 mm 0,6 UV-I 77 W/m² 8,5 °C 0,0 km/h (0 Bft)
18.10.2016 11:02 9,4 °C 9,4 °C 95 % 1022,0 hPa 0,0 mm 0,0 km/h (0 Bft) SW 216 ° 0 min 0,001 mm 0,7 UV-I 83 W/m² 8,6 °C 0,0 km/h (0 Bft)
18.10.2016 11:03 9,4 °C 9,4 °C 95 % 1022,0 hPa 0,0 mm 0,0 km/h (0 Bft) SW 216 ° 0 min 0,000 mm 0,7 UV-I 91 W/m² 8,6 °C 0,0 km/h (0 Bft)
18.10.2016 11:04 9,4 °C 9,4 °C 95 % 1022,0 hPa 0,0 mm 0,0 km/h (0 Bft) SW 216 ° 0 min 0,000 mm 0,7 UV-I 100 W/m² 8,6 °C 0,0 km/h (0 Bft)
18.10.2016 11:05 9,4 °C 9,4 °C 95 % 1022,0 hPa 0,0 mm 0,0 km/h (0 Bft) SW 216 ° 0 min 0,000 mm 0,8 UV-I 111 W/m² 8,6 °C 0,0 km/h (0 Bft)
18.10.2016 11:06 9,4 °C 9,5 °C 95 % 1022,0 hPa 0,0 mm 2,3 km/h (1 Bft) SW 230 ° 0 min 0,000 mm 0,7 UV-I 109 W/m² 8,6 °C 3,2 km/h (1 Bft)
18.10.2016 11:07 9,5 °C 9,5 °C 95 % 1022,0 hPa 0,0 mm 2,1 km/h (1 Bft) SW 230 ° 0 min 0,000 mm 0,7 UV-I 107 W/m² 8,7 °C 3,2 km/h (1 Bft)
18.10.2016 11:08 9,4 °C 9,5 °C 95 % 1022,0 hPa 0,0 mm 0,7 km/h (0 Bft) SW 230 ° 0 min 0,000 mm 0,7 UV-I 105 W/m² 8,6 °C 3,2 km/h (1 Bft)
18.10.2016 11:09 9,5 °C 9,5 °C 95 % 1022,0 hPa 0,0 mm 0,8 km/h (0 Bft) SW 230 ° 0 min 0,000 mm 0,7 UV-I 100 W/m² 8,7 °C 3,2 km/h (1 Bft)
18.10.2016 11:10 9,6 °C 9,6 °C 95 % 1022,0 hPa 0,0 mm 2,6 km/h (1 Bft) W-SW 246 ° 0 min 0,000 mm 0,6 UV-I 95 W/m² 8,8 °C 4,8 km/h (1 Bft)
18.10.2016 11:11 9,6 °C 9,6 °C 95 % 1022,1 hPa 0,0 mm 2,5 km/h (1 Bft) W-SW 253 ° 0 min 0,000 mm 0,6 UV-I 83 W/m² 8,8 °C 3,2 km/h (1 Bft)
18.10.2016 11:12 9,6 °C 9,6 °C 95 % 1022,1 hPa 0,0 mm 2,4 km/h (1 Bft) W-SW 255 ° 0 min 0,000 mm 0,5 UV-I 74 W/m² 8,8 °C 4,8 km/h (1 Bft)
18.10.2016 11:13 9,6 °C 9,6 °C 95 % 1022,1 hPa 0,0 mm 2,2 km/h (1 Bft) W-SW 255 ° 0 min 0,000 mm 0,5 UV-I 69 W/m² 8,8 °C 3,2 km/h (1 Bft)
18.10.2016 11:14 9,6 °C 9,6 °C 95 % 1022,0 hPa 0,0 mm 1,5 km/h (1 Bft) W-SW 255 ° 0 min 0,000 mm 0,5 UV-I 67 W/m² 8,8 °C 1,6 km/h (1 Bft)
18.10.2016 11:15 9,7 °C 9,7 °C 95 % 1022,1 hPa 0,0 mm 1,1 km/h (1 Bft) W-SW 257 ° 0 min 0,000 mm 0,5 UV-I 67 W/m² 8,9 °C 1,6 km/h (1 Bft)
18.10.2016 11:16 9,7 °C 9,7 °C 95 % 1022,1 hPa 0,0 mm 2,3 km/h (1 Bft) W-SW 257 ° 0 min 0,000 mm 0,5 UV-I 67 W/m² 8,9 °C 3,2 km/h (1 Bft)
18.10.2016 11:17 9,7 °C 9,7 °C 95 % 1022,1 hPa 0,0 mm 2,8 km/h (1 Bft) W 265 ° 0 min 0,000 mm 0,5 UV-I 72 W/m² 8,9 °C 4,8 km/h (1 Bft)
18.10.2016 11:18 9,7 °C 9,7 °C 95 % 1022,1 hPa 0,0 mm 3,7 km/h (1 Bft) W 265 ° 0 min 0,000 mm 0,5 UV-I 74 W/m² 8,9 °C 6,4 km/h (2 Bft)
18.10.2016 11:19 9,7 °C 9,7 °C 95 % 1022,0 hPa 0,0 mm 4,4 km/h (1 Bft) W-SW 252 ° 0 min 0,000 mm 0,6 UV-I 76 W/m² 8,9 °C 6,4 km/h (2 Bft)
18.10.2016 11:20 9,7 °C 9,7 °C 95 % 1022,0 hPa 0,0 mm 3,6 km/h (1 Bft) W-SW 252 ° 0 min 0,000 mm 0,6 UV-I 77 W/m² 8,9 °C 4,8 km/h (1 Bft)
18.10.2016 11:21 9,7 °C 9,7 °C 95 % 1022,1 hPa 0,0 mm 3,0 km/h (1 Bft) W-SW 253 ° 0 min 0,000 mm 0,6 UV-I 79 W/m² 8,9 °C 4,8 km/h (1 Bft)
18.10.2016 11:22 9,6 °C 9,7 °C 95 % 1022,1 hPa 0,0 mm 1,7 km/h (1 Bft) W-SW 252 ° 0 min 0,000 mm 0,6 UV-I 74 W/m² 8,8 °C 4,8 km/h (1 Bft)
18.10.2016 11:23 9,7 °C 9,7 °C 95 % 1022,1 hPa 0,0 mm 3,1 km/h (1 Bft) W-SW 252 ° 0 min 0,000 mm 0,6 UV-I 74 W/m² 8,9 °C 4,8 km/h (1 Bft)
18.10.2016 11:24 9,7 °C 9,7 °C 95 % 1022,1 hPa 0,0 mm 3,2 km/h (1 Bft) SW 223 ° 0 min 0,000 mm 0,6 UV-I 77 W/m² 8,9 °C 4,8 km/h (1 Bft)
18.10.2016 11:25 9,7 °C 9,7 °C 95 % 1022,1 hPa 0,0 mm 1,5 km/h (1 Bft) W 279 ° 0 min 0,000 mm 0,7 UV-I 84 W/m² 8,9 °C 3,2 km/h (1 Bft)
18.10.2016 11:26 9,7 °C 9,7 °C 95 % 1022,1 hPa 0,0 mm 4,7 km/h (1 Bft) W-SW 244 ° 0 min 0,000 mm 0,7 UV-I 91 W/m² 8,9 °C 8,0 km/h (2 Bft)
18.10.2016 11:27 9,7 °C 9,7 °C 95 % 1022,1 hPa 0,0 mm 5,4 km/h (1 Bft) W-SW 255 ° 0 min 0,000 mm 0,7 UV-I 93 W/m² 8,9 °C 8,0 km/h (2 Bft)
18.10.2016 11:28 9,7 °C 9,8 °C 95 % 1022,1 hPa 0,0 mm 4,4 km/h (1 Bft) W-SW 239 ° 0 min 0,000 mm 0,7 UV-I 97 W/m² 8,9 °C 4,8 km/h (1 Bft)
18.10.2016 11:29 9,8 °C 9,8 °C 95 % 1022,0 hPa 0,0 mm 1,8 km/h (1 Bft) W-SW 238 ° 0 min 0,000 mm 0,7 UV-I 109 W/m² 9,0 °C 3,2 km/h (1 Bft)
18.10.2016 11:30 9,8 °C 9,8 °C 95 % 1022,1 hPa 0,0 mm 0,5 km/h (0 Bft) W-SW 247 ° 0 min 0,000 mm 1,0 UV-I 123 W/m² 9,0 °C 1,6 km/h (1 Bft)
18.10.2016 11:31 9,8 °C 9,8 °C 95 % 1022,0 hPa 0,0 mm 2,8 km/h (1 Bft) W-SW 247 ° 0 min 0,000 mm 1,0 UV-I 121 W/m² 9,0 °C 4,8 km/h (1 Bft)
18.10.2016 11:32 9,9 °C 9,9 °C 95 % 1022,0 hPa 0,0 mm 0,0 km/h (0 Bft) W-SW 247 ° 0 min 0,000 mm 0,9 UV-I 113 W/m² 9,1 °C 0,0 km/h (0 Bft)
18.10.2016 11:33 9,9 °C 9,9 °C 95 % 1022,0 hPa 0,0 mm 1,3 km/h (1 Bft) W-SW 257 ° 0 min 0,000 mm 1,0 UV-I 116 W/m² 9,1 °C 4,8 km/h (1 Bft)
18.10.2016 11:34 9,9 °C 9,9 °C 95 % 1022,0 hPa 0,0 mm 3,7 km/h (1 Bft) W 267 ° 0 min 0,000 mm 1,1 UV-I 153 W/m² 9,1 °C 6,4 km/h (2 Bft)
18.10.2016 11:35 9,9 °C 9,9 °C 95 % 1022,0 hPa 0,0 mm 1,7 km/h (1 Bft) W 267 ° 0 min 0,000 mm 1,3 UV-I 176 W/m² 9,1 °C 3,2 km/h (1 Bft)
18.10.2016 11:36 9,9 °C 10,0 °C 95 % 1022,0 hPa 0,0 mm 1,4 km/h (1 Bft) W-SW 244 ° 0 min 0,000 mm 1,6 UV-I 197 W/m² 9,1 °C 3,2 km/h (1 Bft)
18.10.2016 11:37 10,0 °C 10,0 °C 95 % 1022,0 hPa 0,0 mm 2,6 km/h (1 Bft) S 170 ° 0 min 0,000 mm 1,6 UV-I 204 W/m² 9,2 °C 4,8 km/h (1 Bft)
18.10.2016 11:38 10,1 °C 10,1 °C 95 % 1022,0 hPa 0,0 mm 2,4 km/h (1 Bft) W-SW 258 ° 0 min 0,000 mm 1,6 UV-I 206 W/m² 9,3 °C 3,2 km/h (1 Bft)
18.10.2016 11:39 10,1 °C 10,1 °C 95 % 1022,0 hPa 0,0 mm 3,2 km/h (1 Bft) W-SW 254 ° 0 min 0,000 mm 1,7 UV-I 213 W/m² 9,3 °C 4,8 km/h (1 Bft)
18.10.2016 11:40 10,2 °C 10,2 °C 95 % 1021,9 hPa 0,0 mm 2,2 km/h (1 Bft) W-SW 252 ° 0 min 0,000 mm 1,7 UV-I 220 W/m² 9,4 °C 6,4 km/h (2 Bft)
18.10.2016 11:41 10,2 °C 10,2 °C 94 % 1021,9 hPa 0,0 mm 2,3 km/h (1 Bft) S 189 ° 0 min 0,000 mm 1,7 UV-I 229 W/m² 9,3 °C 4,8 km/h (1 Bft)
18.10.2016 11:42 10,2 °C 10,2 °C 94 % 1021,9 hPa 0,0 mm 2,7 km/h (1 Bft) W 260 ° 0 min 0,000 mm 1,7 UV-I 237 W/m² 9,3 °C 4,8 km/h (1 Bft)
18.10.2016 11:43 10,3 °C 10,3 °C 94 % 1021,9 hPa 0,0 mm 2,7 km/h (1 Bft) SW 236 ° 0 min 0,000 mm 1,7 UV-I 244 W/m² 9,4 °C 4,8 km/h (1 Bft)
18.10.2016 11:44 10,4 °C 10,4 °C 95 % 1021,9 hPa 0,0 mm 2,0 km/h (1 Bft) W-SW 248 ° 0 min 0,000 mm 1,7 UV-I 234 W/m² 9,6 °C 3,2 km/h (1 Bft)
18.10.2016 11:45 10,4 °C 10,4 °C 95 % 1021,9 hPa 0,0 mm 6,6 km/h (2 Bft) W 271 ° 0 min 0,000 mm 1,7 UV-I 234 W/m² 9,6 °C 9,7 km/h (2 Bft)
18.10.2016 11:46 10,5 °C 10,5 °C 94 % 1022,0 hPa 0,0 mm 4,9 km/h (1 Bft) W-SW 250 ° 0 min 0,000 mm 1,7 UV-I 225 W/m² 9,6 °C 6,4 km/h (2 Bft)
18.10.2016 11:47 10,6 °C 10,6 °C 95 % 1022,0 hPa 0,0 mm 4,5 km/h (1 Bft) W-SW 255 ° 0 min 0,000 mm 1,5 UV-I 200 W/m² 9,8 °C 6,4 km/h (2 Bft)
18.10.2016 11:48 10,6 °C 10,6 °C 94 % 1022,0 hPa 0,0 mm 5,6 km/h (1 Bft) W-SW 252 ° 0 min 0,000 mm 1,5 UV-I 190 W/m² 9,7 °C 9,7 km/h (2 Bft)
18.10.2016 11:49 10,6 °C 10,6 °C 94 % 1021,9 hPa 0,0 mm 3,5 km/h (1 Bft) W-SW 238 ° 0 min 0,000 mm 1,4 UV-I 188 W/m² 9,7 °C 6,4 km/h (2 Bft)
18.10.2016 11:50 10,6 °C 10,6 °C 94 % 1021,9 hPa 0,0 mm 3,0 km/h (1 Bft) W-SW 241 ° 0 min 0,000 mm 1,4 UV-I 179 W/m² 9,7 °C 6,4 km/h (2 Bft)
18.10.2016 11:51 10,6 °C 10,6 °C 94 % 1022,0 hPa 0,0 mm 3,2 km/h (1 Bft) SW 217 ° 0 min 0,000 mm 1,3 UV-I 169 W/m² 9,7 °C 4,8 km/h (1 Bft)
18.10.2016 11:52 10,6 °C 10,6 °C 94 % 1022,0 hPa 0,0 mm 1,5 km/h (1 Bft) W 261 ° 0 min 0,000 mm 1,3 UV-I 162 W/m² 9,7 °C 3,2 km/h (1 Bft)
18.10.2016 11:53 10,7 °C 10,7 °C 94 % 1022,0 hPa 0,0 mm 4,9 km/h (1 Bft) W-SW 242 ° 0 min 0,000 mm 1,1 UV-I 156 W/m² 9,8 °C 6,4 km/h (2 Bft)
18.10.2016 11:54 10,7 °C 10,7 °C 94 % 1022,0 hPa 0,0 mm 5,5 km/h (1 Bft) W 277 ° 0 min 0,000 mm 1,1 UV-I 149 W/m² 9,8 °C 6,4 km/h (2 Bft)
18.10.2016 11:55 10,7 °C 10,8 °C 94 % 1022,0 hPa 0,0 mm 5,0 km/h (1 Bft) W 277 ° 0 min 0,000 mm 1,1 UV-I 146 W/m² 9,8 °C 8,0 km/h (2 Bft)
18.10.2016 11:56 10,7 °C 10,7 °C 94 % 1022,0 hPa 0,0 mm 3,7 km/h (1 Bft) W 275 ° 0 min 0,000 mm 1,0 UV-I 141 W/m² 9,8 °C 9,7 km/h (2 Bft)
18.10.2016 11:57 10,7 °C 10,8 °C 94 % 1022,0 hPa 0,0 mm 8,8 km/h (2 Bft) W-SW 251 ° 0 min 0,000 mm 1,0 UV-I 141 W/m² 9,8 °C 12,9 km/h (3 Bft)
18.10.2016 11:58 10,7 °C 10,8 °C 93 % 1022,0 hPa 0,0 mm 8,6 km/h (2 Bft) W-NW 282 ° 0 min 0,000 mm 0,9 UV-I 111 W/m² 9,6 °C 12,9 km/h (3 Bft)
18.10.2016 11:59 10,7 °C 10,7 °C 93 % 1022,0 hPa 0,0 mm 5,5 km/h (1 Bft) W 275 ° 0 min 0,000 mm 0,7 UV-I 97 W/m² 9,6 °C 9,7 km/h (2 Bft)
18.10.2016 12:00 10,7 °C 10,7 °C 93 % 1022,0 hPa 0,0 mm 4,8 km/h (1 Bft) W-SW 250 ° 0 min 0,051 mm 0,7 UV-I 86 W/m² 9,6 °C 11,3 km/h (2 Bft)
18.10.2016 12:01 10,6 °C 10,7 °C 93 % 1022,1 hPa 0,0 mm 6,6 km/h (2 Bft) W-SW 237 ° 0 min 0,000 mm 0,7 UV-I 93 W/m² 9,5 °C 9,7 km/h (2 Bft)
18.10.2016 12:02 10,6 °C 10,6 °C 93 % 1022,0 hPa 0,0 mm 4,2 km/h (1 Bft) W-SW 248 ° 0 min 0,000 mm 0,8 UV-I 102 W/m² 9,5 °C 9,7 km/h (2 Bft)
18.10.2016 12:03 10,6 °C 10,6 °C 93 % 1022,0 hPa 0,0 mm 7,6 km/h (2 Bft) W 261 ° 0 min 0,000 mm 0,7 UV-I 95 W/m² 9,5 °C 11,3 km/h (2 Bft)
18.10.2016 12:04 10,6 °C 10,6 °C 93 % 1022,1 hPa 0,0 mm 4,6 km/h (1 Bft) W-SW 246 ° 0 min 0,000 mm 0,5 UV-I 63 W/m² 9,5 °C 6,4 km/h (2 Bft)
18.10.2016 12:05 10,6 °C 10,6 °C 94 % 1022,1 hPa 0,0 mm 3,9 km/h (1 Bft) W 276 ° 0 min 0,000 mm 0,5 UV-I 63 W/m² 9,7 °C 6,4 km/h (2 Bft)
18.10.2016 12:06 10,6 °C 10,6 °C 93 % 1022,1 hPa 0,0 mm 1,9 km/h (1 Bft) W 275 ° 0 min 0,000 mm 0,5 UV-I 62 W/m² 9,5 °C 4,8 km/h (1 Bft)
18.10.2016 12:07 10,5 °C 10,6 °C 93 % 1022,1 hPa 0,0 mm 8,9 km/h (2 Bft) W-SW 250 ° 0 min 0,000 mm 0,0 UV-I 53 W/m² 9,4 °C 12,9 km/h (3 Bft)
18.10.2016 12:08 10,4 °C 10,5 °C 93 % 1022,1 hPa 0,0 mm 7,9 km/h (2 Bft) W 281 ° 0 min 0,000 mm 0,0 UV-I 44 W/m² 9,3 °C 11,3 km/h (2 Bft)
18.10.2016 12:09 10,4 °C 10,4 °C 93 % 1022,1 hPa 0,0 mm 4,9 km/h (1 Bft) W-SW 244 ° 0 min 0,000 mm 0,0 UV-I 42 W/m² 9,3 °C 6,4 km/h (2 Bft)
18.10.2016 12:10 10,4 °C 10,4 °C 93 % 1022,1 hPa 0,0 mm 3,6 km/h (1 Bft) W-SW 252 ° 0 min 0,000 mm 0,0 UV-I 47 W/m² 9,3 °C 4,8 km/h (1 Bft)
18.10.2016 12:11 10,3 °C 10,4 °C 93 % 1022,1 hPa 0,0 mm 2,8 km/h (1 Bft) W-SW 252 ° 0 min 0,000 mm 0,0 UV-I 47 W/m² 9,2 °C 3,2 km/h (1 Bft)
18.10.2016 12:12 10,3 °C 10,3 °C 93 % 1022,1 hPa 0,0 mm 4,6 km/h (1 Bft) W-SW 248 ° 0 min 0,000 mm 0,0 UV-I 53 W/m² 9,2 °C 6,4 km/h (2 Bft)
18.10.2016 12:13 10,3 °C 10,3 °C 93 % 1022,1 hPa 0,0 mm 7,8 km/h (2 Bft) W-SW 254 ° 0 min 0,000 mm 0,7 UV-I 63 W/m² 9,2 °C 16,1 km/h (3 Bft)
18.10.2016 12:14 10,3 °C 10,3 °C 93 % 1022,1 hPa 0,0 mm 7,9 km/h (2 Bft) W-SW 253 ° 0 min 0,000 mm 0,8 UV-I 72 W/m² 9,2 °C 16,1 km/h (3 Bft)
18.10.2016 12:15 10,2 °C 10,3 °C 93 % 1022,1 hPa 0,0 mm 5,5 km/h (1 Bft) W 279 ° 0 min 0,000 mm 0,8 UV-I 83 W/m² 9,1 °C 9,7 km/h (2 Bft)
18.10.2016 12:16 10,3 °C 10,3 °C 93 % 1022,1 hPa 0,0 mm 7,2 km/h (2 Bft) S-SW 194 ° 0 min 0,000 mm 1,1 UV-I 91 W/m² 9,2 °C 12,9 km/h (3 Bft)
18.10.2016 12:17 10,2 °C 10,3 °C 93 % 1022,1 hPa 0,0 mm 4,4 km/h (1 Bft) W 264 ° 0 min 0,000 mm 1,1 UV-I 95 W/m² 9,1 °C 9,7 km/h (2 Bft)
18.10.2016 12:18 10,2 °C 10,2 °C 93 % 1022,1 hPa 0,0 mm 4,9 km/h (1 Bft) W-SW 250 ° 0 min 0,000 mm 1,1 UV-I 95 W/m² 9,1 °C 8,0 km/h (2 Bft)
18.10.2016 12:19 10,3 °C 10,3 °C 93 % 1022,1 hPa 0,0 mm 8,2 km/h (2 Bft) W-SW 247 ° 0 min 0,000 mm 1,2 UV-I 95 W/m² 9,2 °C 12,9 km/h (3 Bft)
18.10.2016 12:20 10,3 °C 10,3 °C 93 % 1022,1 hPa 0,0 mm 8,9 km/h (2 Bft) W 274 ° 0 min 0,000 mm 1,3 UV-I 102 W/m² 9,2 °C 11,3 km/h (2 Bft)
18.10.2016 12:21 10,3 °C 10,3 °C 94 % 1022,1 hPa 0,0 mm 7,6 km/h (2 Bft) SW 215 ° 0 min 0,000 mm 1,3 UV-I 113 W/m² 9,4 °C 14,5 km/h (3 Bft)
18.10.2016 12:22 10,3 °C 10,3 °C 94 % 1022,1 hPa 0,0 mm 4,8 km/h (1 Bft) W 259 ° 0 min 0,000 mm 1,4 UV-I 118 W/m² 9,4 °C 9,7 km/h (2 Bft)
18.10.2016 12:23 10,3 °C 10,3 °C 94 % 1022,1 hPa 0,0 mm 11,4 km/h (2 Bft) W 273 ° 0 min 0,000 mm 1,3 UV-I 120 W/m² 9,4 °C 19,3 km/h (3 Bft)
18.10.2016 12:24 10,2 °C 10,3 °C 94 % 1022,1 hPa 0,0 mm 9,5 km/h (2 Bft) W 264 ° 0 min 0,000 mm 1,3 UV-I 121 W/m² 9,3 °C 14,5 km/h (3 Bft)
18.10.2016 12:25 10,2 °C 10,3 °C 93 % 1022,0 hPa 0,0 mm 8,0 km/h (2 Bft) SW 236 ° 0 min 0,000 mm 1,3 UV-I 121 W/m² 9,1 °C 14,5 km/h (3 Bft)
18.10.2016 12:26 10,2 °C 10,2 °C 93 % 1022,0 hPa 0,0 mm 8,4 km/h (2 Bft) W 261 ° 0 min 0,000 mm 1,3 UV-I 113 W/m² 9,1 °C 14,5 km/h (3 Bft)
18.10.2016 12:27 10,2 °C 10,2 °C 93 % 1022,0 hPa 0,0 mm 9,3 km/h (2 Bft) W 261 ° 0 min 0,000 mm 1,2 UV-I 116 W/m² 9,1 °C 12,9 km/h (3 Bft)
18.10.2016 12:28 10,3 °C 10,3 °C 93 % 1022,0 hPa 0,0 mm 9,1 km/h (2 Bft) S-SW 211 ° 0 min 0,000 mm 1,1 UV-I 127 W/m² 9,2 °C 12,9 km/h (3 Bft)
18.10.2016 12:29 10,2 °C 10,3 °C 93 % 1022,0 hPa 0,0 mm 6,1 km/h (2 Bft) W-NW 288 ° 0 min 0,000 mm 1,1 UV-I 144 W/m² 9,1 °C 11,3 km/h (2 Bft)
18.10.2016 12:30 10,3 °C 10,3 °C 93 % 1022,0 hPa 0,0 mm 4,1 km/h (1 Bft) NW 315 ° 0 min 0,000 mm 1,1 UV-I 158 W/m² 9,2 °C 8,0 km/h (2 Bft)
18.10.2016 12:31 10,3 °C 10,3 °C 94 % 1022,0 hPa 0,0 mm 8,7 km/h (2 Bft) W 268 ° 0 min 0,000 mm 1,1 UV-I 162 W/m² 9,4 °C 12,9 km/h (3 Bft)
18.10.2016 12:32 10,3 °C 10,3 °C 94 % 1022,0 hPa 0,0 mm 8,9 km/h (2 Bft) NW 306 ° 0 min 0,000 mm 1,0 UV-I 148 W/m² 9,4 °C 14,5 km/h (3 Bft)
18.10.2016 12:33 10,3 °C 10,3 °C 94 % 1022,0 hPa 0,0 mm 7,0 km/h (2 Bft) W-SW 244 ° 0 min 0,000 mm 1,0 UV-I 144 W/m² 9,4 °C 9,7 km/h (2 Bft)
18.10.2016 12:34 10,3 °C 10,4 °C 94 % 1022,1 hPa 0,0 mm 9,3 km/h (2 Bft) W 271 ° 0 min 0,000 mm 1,0 UV-I 149 W/m² 9,4 °C 14,5 km/h (3 Bft)
18.10.2016 12:35 10,4 °C 10,4 °C 94 % 1022,0 hPa 0,0 mm 7,1 km/h (2 Bft) W 261 ° 0 min 0,000 mm 1,1 UV-I 160 W/m² 9,5 °C 12,9 km/h (3 Bft)
18.10.2016 12:36 10,4 °C 10,4 °C 93 % 1022,0 hPa 0,0 mm 11,9 km/h (2 Bft) W-SW 250 ° 0 min 0,000 mm 1,1 UV-I 171 W/m² 9,3 °C 19,3 km/h (3 Bft)
18.10.2016 12:37 10,4 °C 10,4 °C 93 % 1022,0 hPa 0,0 mm 7,7 km/h (2 Bft) W-NW 296 ° 0 min 0,000 mm 1,2 UV-I 178 W/m² 9,3 °C 12,9 km/h (3 Bft)
18.10.2016 12:38 10,4 °C 10,4 °C 93 % 1022,1 hPa 0,0 mm 6,4 km/h (2 Bft) W 273 ° 0 min 0,000 mm 1,1 UV-I 176 W/m² 9,3 °C 11,3 km/h (2 Bft)
18.10.2016 12:39 10,4 °C 10,4 °C 93 % 1022,0 hPa 0,0 mm 5,0 km/h (1 Bft) W-SW 244 ° 0 min 0,000 mm 1,2 UV-I 190 W/m² 9,3 °C 9,7 km/h (2 Bft)
18.10.2016 12:40 10,4 °C 10,4 °C 93 % 1022,0 hPa 0,0 mm 10,2 km/h (2 Bft) SW 230 ° 0 min 0,000 mm 1,3 UV-I 199 W/m² 9,3 °C 16,1 km/h (3 Bft)
18.10.2016 12:41 10,4 °C 10,4 °C 93 % 1022,0 hPa 0,0 mm 6,4 km/h (2 Bft) W-SW 250 ° 0 min 0,000 mm 1,2 UV-I 186 W/m² 9,3 °C 9,7 km/h (2 Bft)
18.10.2016 12:42 10,5 °C 10,5 °C 93 % 1022,0 hPa 0,0 mm 4,9 km/h (1 Bft) SW 225 ° 0 min 0,000 mm 1,1 UV-I 163 W/m² 9,4 °C 9,7 km/h (2 Bft)
18.10.2016 12:43 10,5 °C 10,6 °C 93 % 1022,1 hPa 0,0 mm 6,6 km/h (2 Bft) W 271 ° 0 min 0,000 mm 1,0 UV-I 144 W/m² 9,4 °C 12,9 km/h (3 Bft)
18.10.2016 12:44 10,6 °C 10,6 °C 93 % 1022,0 hPa 0,0 mm 9,9 km/h (2 Bft) W-SW 238 ° 0 min 0,000 mm 1,0 UV-I 128 W/m² 9,5 °C 14,5 km/h (3 Bft)
18.10.2016 12:45 10,6 °C 10,6 °C 93 % 1022,0 hPa 0,0 mm 11,7 km/h (2 Bft) W-SW 253 ° 0 min 0,000 mm 0,9 UV-I 120 W/m² 9,5 °C 14,5 km/h (3 Bft)
18.10.2016 12:46 10,6 °C 10,6 °C 92 % 1022,0 hPa 0,0 mm 13,1 km/h (3 Bft) S-SW 212 ° 0 min 0,000 mm 0,8 UV-I 132 W/m² 9,4 °C 19,3 km/h (3 Bft)
18.10.2016 12:47 10,6 °C 10,6 °C 92 % 1022,0 hPa 0,0 mm 9,7 km/h (2 Bft) W-SW 254 ° 0 min 0,000 mm 1,2 UV-I 158 W/m² 9,4 °C 14,5 km/h (3 Bft)
18.10.2016 12:48 10,6 °C 10,6 °C 92 % 1022,0 hPa 0,0 mm 11,2 km/h (2 Bft) W-SW 252 ° 0 min 0,000 mm 1,2 UV-I 169 W/m² 9,4 °C 17,7 km/h (3 Bft)
18.10.2016 12:49 10,6 °C 10,6 °C 92 % 1021,9 hPa 0,0 mm 5,2 km/h (1 Bft) SW 225 ° 0 min 0,000 mm 1,2 UV-I 172 W/m² 9,4 °C 11,3 km/h (2 Bft)
18.10.2016 12:50 10,6 °C 10,6 °C 92 % 1021,9 hPa 0,0 mm 10,0 km/h (2 Bft) W-SW 242 ° 0 min 0,000 mm 1,2 UV-I 167 W/m² 9,4 °C 14,5 km/h (3 Bft)
18.10.2016 12:51 10,6 °C 10,6 °C 93 % 1021,9 hPa 0,0 mm 12,2 km/h (2 Bft) W-NW 292 ° 0 min 0,000 mm 1,2 UV-I 163 W/m² 9,5 °C 17,7 km/h (3 Bft)
18.10.2016 12:52 10,6 °C 10,6 °C 93 % 1021,9 hPa 0,0 mm 6,8 km/h (2 Bft) W-SW 245 ° 0 min 0,000 mm 1,2 UV-I 165 W/m² 9,5 °C 12,9 km/h (3 Bft)
18.10.2016 12:53 10,6 °C 10,6 °C 92 % 1021,9 hPa 0,0 mm 10,6 km/h (2 Bft) W-SW 245 ° 0 min 0,000 mm 1,3 UV-I 171 W/m² 9,4 °C 17,7 km/h (3 Bft)
18.10.2016 12:54 10,7 °C 10,7 °C 93 % 1021,9 hPa 0,0 mm 9,8 km/h (2 Bft) W-SW 244 ° 0 min 0,000 mm 1,3 UV-I 179 W/m² 9,6 °C 12,9 km/h (3 Bft)
18.10.2016 12:55 10,7 °C 10,7 °C 92 % 1021,9 hPa 0,0 mm 9,4 km/h (2 Bft) SW 225 ° 0 min 0,000 mm 1,4 UV-I 185 W/m² 9,5 °C 14,5 km/h (3 Bft)
18.10.2016 12:56 10,7 °C 10,7 °C 92 % 1022,0 hPa 0,0 mm 7,3 km/h (2 Bft) W-SW 241 ° 0 min 0,000 mm 1,4 UV-I 183 W/m² 9,5 °C 12,9 km/h (3 Bft)
18.10.2016 12:57 10,7 °C 10,7 °C 93 % 1021,9 hPa 0,0 mm 9,0 km/h (2 Bft) W 281 ° 0 min 0,000 mm 1,3 UV-I 181 W/m² 9,6 °C 16,1 km/h (3 Bft)
18.10.2016 12:58 10,7 °C 10,7 °C 92 % 1021,9 hPa 0,0 mm 5,6 km/h (1 Bft) W-NW 302 ° 0 min 0,000 mm 1,3 UV-I 181 W/m² 9,5 °C 11,3 km/h (2 Bft)
18.10.2016 12:59 10,7 °C 10,7 °C 92 % 1021,9 hPa 0,0 mm 3,8 km/h (1 Bft) S 178 ° 0 min 0,000 mm 1,3 UV-I 181 W/m² 9,5 °C 8,0 km/h (2 Bft)
18.10.2016 13:00 10,7 °C 10,7 °C 91 % 1022,0 hPa 0,0 mm 4,4 km/h (1 Bft) W-SW 241 ° 0 min 0,000 mm 1,3 UV-I 181 W/m² 9,3 °C 9,7 km/h (2 Bft)
18.10.2016 13:01 10,7 °C 10,7 °C 92 % 1022,0 hPa 0,0 mm 4,5 km/h (1 Bft) W-NW 291 ° 0 min 0,076 mm 1,3 UV-I 183 W/m² 9,5 °C 8,0 km/h (2 Bft)
18.10.2016 13:02 10,8 °C 10,8 °C 93 % 1021,9 hPa 0,0 mm 4,3 km/h (1 Bft) W 277 ° 0 min 0,000 mm 1,4 UV-I 207 W/m² 9,7 °C 6,4 km/h (2 Bft)
18.10.2016 13:03 10,8 °C 10,8 °C 93 % 1021,9 hPa 0,0 mm 6,1 km/h (2 Bft) SW 221 ° 0 min 0,000 mm 1,5 UV-I 220 W/m² 9,7 °C 11,3 km/h (2 Bft)
18.10.2016 13:04 10,9 °C 10,9 °C 93 % 1021,9 hPa 0,0 mm 5,1 km/h (1 Bft) W-NW 303 ° 0 min 0,000 mm 1,5 UV-I 221 W/m² 9,8 °C 8,0 km/h (2 Bft)
18.10.2016 13:05 10,9 °C 10,9 °C 92 % 1021,9 hPa 0,0 mm 6,6 km/h (2 Bft) SW 236 ° 0 min 0,000 mm 1,4 UV-I 209 W/m² 9,7 °C 11,3 km/h (2 Bft)
18.10.2016 13:06 10,9 °C 10,9 °C 91 % 1021,9 hPa 0,0 mm 5,4 km/h (1 Bft) W-SW 247 ° 0 min 0,000 mm 1,3 UV-I 192 W/m² 9,5 °C 11,3 km/h (2 Bft)
18.10.2016 13:07 10,9 °C 10,9 °C 91 % 1021,9 hPa 0,0 mm 11,0 km/h (2 Bft) W 272 ° 0 min 0,000 mm 1,2 UV-I 176 W/m² 9,5 °C 16,1 km/h (3 Bft)
18.10.2016 13:08 10,9 °C 10,9 °C 91 % 1021,9 hPa 0,0 mm 7,9 km/h (2 Bft) W 276 ° 0 min 0,000 mm 1,1 UV-I 158 W/m² 9,5 °C 12,9 km/h (3 Bft)
18.10.2016 13:09 10,9 °C 10,9 °C 92 % 1021,9 hPa 0,0 mm 9,7 km/h (2 Bft) W-SW 250 ° 0 min 0,000 mm 1,0 UV-I 135 W/m² 9,7 °C 16,1 km/h (3 Bft)
18.10.2016 13:10 10,8 °C 10,9 °C 91 % 1021,9 hPa 0,0 mm 9,5 km/h (2 Bft) W-SW 239 ° 0 min 0,000 mm 0,9 UV-I 128 W/m² 9,4 °C 12,9 km/h (3 Bft)
18.10.2016 13:11 10,8 °C 10,9 °C 91 % 1021,9 hPa 0,0 mm 6,9 km/h (2 Bft) W 259 ° 0 min 0,000 mm 0,9 UV-I 128 W/m² 9,4 °C 11,3 km/h (2 Bft)
18.10.2016 13:12 10,8 °C 10,8 °C 92 % 1021,9 hPa 0,0 mm 5,8 km/h (2 Bft) W-SW 246 ° 0 min 0,000 mm 0,9 UV-I 114 W/m² 9,6 °C 11,3 km/h (2 Bft)
18.10.2016 13:13 10,8 °C 10,8 °C 92 % 1021,9 hPa 0,0 mm 4,2 km/h (1 Bft) SW 235 ° 0 min 0,000 mm 0,8 UV-I 111 W/m² 9,6 °C 6,4 km/h (2 Bft)
18.10.2016 13:14 10,8 °C 10,8 °C 92 % 1021,9 hPa 0,0 mm 7,3 km/h (2 Bft) W-SW 250 ° 0 min 0,000 mm 0,8 UV-I 107 W/m² 9,6 °C 14,5 km/h (3 Bft)
18.10.2016 13:15 10,8 °C 10,8 °C 92 % 1021,8 hPa 0,0 mm 9,1 km/h (2 Bft) W-SW 251 ° 0 min 0,000 mm 0,8 UV-I 107 W/m² 9,6 °C 12,9 km/h (3 Bft)
18.10.2016 13:16 10,8 °C 10,8 °C 92 % 1021,9 hPa 0,0 mm 7,1 km/h (2 Bft) W 271 ° 0 min 0,000 mm 0,9 UV-I 113 W/m² 9,6 °C 11,3 km/h (2 Bft)
18.10.2016 13:17 10,7 °C 10,8 °C 92 % 1021,9 hPa 0,0 mm 7,0 km/h (2 Bft) W-SW 241 ° 0 min 0,000 mm 0,9 UV-I 113 W/m² 9,5 °C 12,9 km/h (3 Bft)
18.10.2016 13:18 10,7 °C 10,8 °C 92 % 1021,9 hPa 0,0 mm 9,5 km/h (2 Bft) W-SW 238 ° 0 min 0,000 mm 0,8 UV-I 111 W/m² 9,5 °C 12,9 km/h (3 Bft)
18.10.2016 13:19 10,7 °C 10,7 °C 92 % 1022,0 hPa 0,0 mm 7,2 km/h (2 Bft) SW 236 ° 0 min 0,000 mm 0,8 UV-I 107 W/m² 9,5 °C 12,9 km/h (3 Bft)
18.10.2016 13:20 10,7 °C 10,7 °C 91 % 1022,0 hPa 0,0 mm 8,9 km/h (2 Bft) W 262 ° 0 min 0,000 mm 0,8 UV-I 98 W/m² 9,3 °C 14,5 km/h (3 Bft)
18.10.2016 13:21 10,7 °C 10,7 °C 92 % 1022,0 hPa 0,0 mm 7,9 km/h (2 Bft) SW 225 ° 0 min 0,000 mm 0,7 UV-I 97 W/m² 9,5 °C 12,9 km/h (3 Bft)
18.10.2016 13:22 10,7 °C 10,7 °C 92 % 1021,9 hPa 0,0 mm 4,2 km/h (1 Bft) S 188 ° 0 min 0,000 mm 0,7 UV-I 95 W/m² 9,5 °C 6,4 km/h (2 Bft)
18.10.2016 13:23 10,6 °C 10,7 °C 92 % 1021,9 hPa 0,0 mm 5,9 km/h (2 Bft) SW 221 ° 0 min 0,000 mm 0,7 UV-I 95 W/m² 9,4 °C 12,9 km/h (3 Bft)
18.10.2016 13:24 10,6 °C 10,7 °C 91 % 1021,9 hPa 0,0 mm 4,4 km/h (1 Bft) W-SW 250 ° 0 min 0,000 mm 0,7 UV-I 95 W/m² 9,2 °C 6,4 km/h (2 Bft)
18.10.2016 13:25 10,6 °C 10,6 °C 92 % 1021,9 hPa 0,0 mm 5,2 km/h (1 Bft) W-SW 238 ° 0 min 0,000 mm 0,7 UV-I 97 W/m² 9,4 °C 8,0 km/h (2 Bft)
18.10.2016 13:26 10,6 °C 10,6 °C 92 % 1021,9 hPa 0,0 mm 4,0 km/h (1 Bft) SW 236 ° 0 min 0,000 mm 0,7 UV-I 98 W/m² 9,4 °C 6,4 km/h (2 Bft)
18.10.2016 13:27 10,6 °C 10,6 °C 92 % 1021,9 hPa 0,0 mm 3,8 km/h (1 Bft) S-SW 205 ° 0 min 0,000 mm 0,7 UV-I 98 W/m² 9,4 °C 9,7 km/h (2 Bft)
18.10.2016 13:28 10,6 °C 10,6 °C 93 % 1021,9 hPa 0,0 mm 5,5 km/h (1 Bft) W-SW 239 ° 0 min 0,000 mm 0,8 UV-I 100 W/m² 9,5 °C 16,1 km/h (3 Bft)
18.10.2016 13:29 10,6 °C 10,6 °C 92 % 1021,9 hPa 0,0 mm 6,0 km/h (2 Bft) W-NW 287 ° 0 min 0,000 mm 0,8 UV-I 104 W/m² 9,4 °C 9,7 km/h (2 Bft)
18.10.2016 13:30 10,6 °C 10,6 °C 92 % 1021,9 hPa 0,0 mm 4,6 km/h (1 Bft) W-SW 247 ° 0 min 0,000 mm 0,8 UV-I 111 W/m² 9,4 °C 6,4 km/h (2 Bft)
18.10.2016 13:31 10,6 °C 10,6 °C 92 % 1021,9 hPa 0,0 mm 4,4 km/h (1 Bft) W-SW 246 ° 0 min 0,000 mm 0,9 UV-I 125 W/m² 9,4 °C 6,4 km/h (2 Bft)
18.10.2016 13:32 10,6 °C 10,6 °C 93 % 1021,9 hPa 0,0 mm 6,0 km/h (2 Bft) W-SW 250 ° 0 min 0,000 mm 0,9 UV-I 132 W/m² 9,5 °C 12,9 km/h (3 Bft)
18.10.2016 13:33 10,7 °C 10,7 °C 93 % 1021,9 hPa 0,0 mm 7,8 km/h (2 Bft) W 269 ° 0 min 0,000 mm 1,0 UV-I 135 W/m² 9,6 °C 11,3 km/h (2 Bft)
18.10.2016 13:34 10,7 °C 10,7 °C 92 % 1021,9 hPa 0,0 mm 9,3 km/h (2 Bft) S-SW 213 ° 0 min 0,000 mm 1,0 UV-I 134 W/m² 9,5 °C 12,9 km/h (3 Bft)
18.10.2016 13:35 10,7 °C 10,7 °C 92 % 1021,9 hPa 0,0 mm 10,6 km/h (2 Bft) SW 215 ° 0 min 0,000 mm 1,0 UV-I 128 W/m² 9,5 °C 16,1 km/h (3 Bft)
18.10.2016 13:36 10,7 °C 10,7 °C 92 % 1021,9 hPa 0,0 mm 6,4 km/h (2 Bft) W-SW 254 ° 0 min 0,000 mm 0,9 UV-I 118 W/m² 9,5 °C 8,0 km/h (2 Bft)
18.10.2016 13:37 10,7 °C 10,7 °C 92 % 1021,9 hPa 0,0 mm 5,1 km/h (1 Bft) W 279 ° 0 min 0,000 mm 0,9 UV-I 121 W/m² 9,5 °C 8,0 km/h (2 Bft)
18.10.2016 13:38 10,7 °C 10,7 °C 92 % 1021,9 hPa 0,0 mm 4,1 km/h (1 Bft) W 259 ° 0 min 0,000 mm 0,9 UV-I 123 W/m² 9,5 °C 6,4 km/h (2 Bft)
18.10.2016 13:39 10,7 °C 10,7 °C 93 % 1022,0 hPa 0,0 mm 7,5 km/h (2 Bft) S-SW 206 ° 0 min 0,000 mm 0,9 UV-I 123 W/m² 9,6 °C 12,9 km/h (3 Bft)
18.10.2016 13:40 10,8 °C 10,8 °C 92 % 1021,9 hPa 0,0 mm 4,7 km/h (1 Bft) W-SW 248 ° 0 min 0,000 mm 0,8 UV-I 118 W/m² 9,6 °C 8,0 km/h (2 Bft)
18.10.2016 13:41 10,8 °C 10,8 °C 92 % 1021,9 hPa 0,0 mm 5,6 km/h (1 Bft) W 261 ° 0 min 0,000 mm 0,8 UV-I 111 W/m² 9,6 °C 11,3 km/h (2 Bft)
18.10.2016 13:42 10,8 °C 10,8 °C 92 % 1021,9 hPa 0,0 mm 8,2 km/h (2 Bft) W-SW 248 ° 0 min 0,000 mm 0,8 UV-I 105 W/m² 9,6 °C 14,5 km/h (3 Bft)
18.10.2016 13:43 10,8 °C 10,8 °C 92 % 1021,9 hPa 0,0 mm 5,6 km/h (1 Bft) W 275 ° 0 min 0,000 mm 0,8 UV-I 113 W/m² 9,6 °C 8,0 km/h (2 Bft)
18.10.2016 13:44 10,8 °C 10,8 °C 91 % 1021,9 hPa 0,0 mm 3,2 km/h (1 Bft) W 261 ° 0 min 0,000 mm 0,9 UV-I 120 W/m² 9,4 °C 4,8 km/h (1 Bft)
18.10.2016 13:45 10,8 °C 10,8 °C 92 % 1021,9 hPa 0,0 mm 1,5 km/h (1 Bft) W 261 ° 0 min 0,000 mm 0,8 UV-I 118 W/m² 9,6 °C 3,2 km/h (1 Bft)
18.10.2016 13:46 10,8 °C 10,8 °C 92 % 1021,8 hPa 0,0 mm 3,6 km/h (1 Bft) W 273 ° 0 min 0,000 mm 0,8 UV-I 113 W/m² 9,6 °C 6,4 km/h (2 Bft)
18.10.2016 13:47 10,8 °C 10,8 °C 92 % 1021,8 hPa 0,0 mm 2,3 km/h (1 Bft) W-SW 254 ° 0 min 0,000 mm 0,9 UV-I 118 W/m² 9,6 °C 4,8 km/h (1 Bft)
18.10.2016 13:48 10,9 °C 10,9 °C 92 % 1021,9 hPa 0,0 mm 4,0 km/h (1 Bft) W-SW 247 ° 0 min 0,000 mm 0,9 UV-I 127 W/m² 9,7 °C 4,8 km/h (1 Bft)
18.10.2016 13:49 10,9 °C 10,9 °C 92 % 1021,9 hPa 0,0 mm 6,0 km/h (2 Bft) W-NW 286 ° 0 min 0,000 mm 1,0 UV-I 141 W/m² 9,7 °C 8,0 km/h (2 Bft)
18.10.2016 13:50 10,9 °C 10,9 °C 92 % 1021,8 hPa 0,0 mm 6,4 km/h (2 Bft) W 277 ° 0 min 0,000 mm 1,0 UV-I 142 W/m² 9,7 °C 11,3 km/h (2 Bft)
18.10.2016 13:51 10,9 °C 10,9 °C 92 % 1021,8 hPa 0,0 mm 1,9 km/h (1 Bft) W 275 ° 0 min 0,000 mm 1,1 UV-I 144 W/m² 9,7 °C 4,8 km/h (1 Bft)
18.10.2016 13:52 10,9 °C 10,9 °C 91 % 1021,9 hPa 0,0 mm 1,6 km/h (1 Bft) W 275 ° 0 min 0,000 mm 1,0 UV-I 141 W/m² 9,5 °C 3,2 km/h (1 Bft)
18.10.2016 13:53 10,9 °C 10,9 °C 92 % 1021,9 hPa 0,0 mm 1,1 km/h (1 Bft) W 275 ° 0 min 0,000 mm 1,0 UV-I 139 W/m² 9,7 °C 1,6 km/h (1 Bft)
18.10.2016 13:54 10,9 °C 10,9 °C 92 % 1021,8 hPa 0,0 mm 3,2 km/h (1 Bft) W-NW 286 ° 0 min 0,000 mm 1,0 UV-I 141 W/m² 9,7 °C 4,8 km/h (1 Bft)
18.10.2016 13:55 11,0 °C 11,0 °C 92 % 1021,8 hPa 0,0 mm 4,7 km/h (1 Bft) W-SW 250 ° 0 min 0,000 mm 1,0 UV-I 146 W/m² 9,8 °C 9,7 km/h (2 Bft)
18.10.2016 13:56 11,0 °C 11,1 °C 91 % 1021,8 hPa 0,0 mm 5,5 km/h (1 Bft) W-SW 248 ° 0 min 0,000 mm 1,1 UV-I 148 W/m² 9,6 °C 6,4 km/h (2 Bft)
18.10.2016 13:57 11,1 °C 11,1 °C 91 % 1021,8 hPa 0,0 mm 4,4 km/h (1 Bft) W-NW 286 ° 0 min 0,000 mm 1,1 UV-I 153 W/m² 9,7 °C 9,7 km/h (2 Bft)
18.10.2016 13:58 11,1 °C 11,2 °C 91 % 1021,8 hPa 0,0 mm 4,7 km/h (1 Bft) W-SW 249 ° 0 min 0,000 mm 1,1 UV-I 156 W/m² 9,7 °C 9,7 km/h (2 Bft)
18.10.2016 13:59 11,2 °C 11,2 °C 91 % 1021,8 hPa 0,0 mm 3,4 km/h (1 Bft) W 261 ° 0 min 0,000 mm 1,1 UV-I 160 W/m² 9,8 °C 6,4 km/h (2 Bft)
18.10.2016 14:00 11,2 °C 11,2 °C 91 % 1021,8 hPa 0,0 mm 5,7 km/h (1 Bft) W-SW 251 ° 0 min 0,000 mm 1,2 UV-I 165 W/m² 9,8 °C 9,7 km/h (2 Bft)
18.10.2016 14:01 11,2 °C 11,2 °C 91 % 1021,7 hPa 0,0 mm 6,2 km/h (2 Bft) W-SW 244 ° 0 min 0,076 mm 1,3 UV-I 185 W/m² 9,8 °C 11,3 km/h (2 Bft)
18.10.2016 14:02 11,3 °C 11,3 °C 91 % 1021,7 hPa 0,0 mm 7,2 km/h (2 Bft) W-NW 285 ° 0 min 0,000 mm 1,3 UV-I 192 W/m² 9,9 °C 11,3 km/h (2 Bft)
18.10.2016 14:03 11,2 °C 11,3 °C 90 % 1021,7 hPa 0,0 mm 3,2 km/h (1 Bft) W-NW 283 ° 0 min 0,000 mm 1,4 UV-I 204 W/m² 9,6 °C 4,8 km/h (1 Bft)
18.10.2016 14:04 11,3 °C 11,3 °C 91 % 1021,7 hPa 0,0 mm 3,4 km/h (1 Bft) W-NW 288 ° 0 min 0,000 mm 1,5 UV-I 227 W/m² 9,9 °C 4,8 km/h (1 Bft)
18.10.2016 14:05 11,3 °C 11,3 °C 91 % 1021,7 hPa 0,0 mm 2,7 km/h (1 Bft) W 271 ° 0 min 0,000 mm 1,7 UV-I 278 W/m² 9,9 °C 4,8 km/h (1 Bft)
18.10.2016 14:06 11,3 °C 11,3 °C 91 % 1021,7 hPa 0,0 mm 4,5 km/h (1 Bft) W 278 ° 1 min 0,000 mm 1,7 UV-I 309 W/m² 9,9 °C 6,4 km/h (2 Bft)
18.10.2016 14:07 11,4 °C 11,4 °C 91 % 1021,7 hPa 0,0 mm 6,6 km/h (2 Bft) W-SW 255 ° 1 min 0,000 mm 1,9 UV-I 313 W/m² 10,0 °C 11,3 km/h (2 Bft)
18.10.2016 14:08 11,5 °C 11,5 °C 90 % 1021,6 hPa 0,0 mm 5,9 km/h (2 Bft) W-SW 257 ° 1 min 0,000 mm 2,4 UV-I 390 W/m² 9,9 °C 11,3 km/h (2 Bft)
18.10.2016 14:09 11,5 °C 11,5 °C 90 % 1021,6 hPa 0,0 mm 9,5 km/h (2 Bft) W-SW 247 ° 1 min 0,000 mm 1,9 UV-I 410 W/m² 9,9 °C 12,9 km/h (3 Bft)
18.10.2016 14:10 11,6 °C 11,6 °C 90 % 1021,6 hPa 0,0 mm 8,4 km/h (2 Bft) W 281 ° 1 min 0,000 mm 2,0 UV-I 390 W/m² 10,0 °C 11,3 km/h (2 Bft)
18.10.2016 14:11 11,6 °C 11,6 °C 90 % 1021,6 hPa 0,0 mm 9,2 km/h (2 Bft) W-NW 302 ° 1 min 0,000 mm 2,9 UV-I 390 W/m² 10,0 °C 12,9 km/h (3 Bft)
18.10.2016 14:12 11,7 °C 11,7 °C 89 % 1021,7 hPa 0,0 mm 7,1 km/h (2 Bft) W 280 ° 1 min 0,000 mm 2,9 UV-I 622 W/m² 9,9 °C 11,3 km/h (2 Bft)
18.10.2016 14:13 11,8 °C 11,8 °C 90 % 1021,6 hPa 0,0 mm 9,3 km/h (2 Bft) W-SW 250 ° 1 min 0,000 mm 2,9 UV-I 598 W/m² 10,2 °C 14,5 km/h (3 Bft)
18.10.2016 14:14 12,1 °C 12,1 °C 92 % 1021,6 hPa 0,0 mm 9,9 km/h (2 Bft) W-SW 249 ° 1 min 0,000 mm 2,7 UV-I 550 W/m² 10,8 °C 12,9 km/h (3 Bft)
18.10.2016 14:15 12,1 °C 12,1 °C 88 % 1021,5 hPa 0,0 mm 5,1 km/h (1 Bft) S 178 ° 1 min 0,000 mm 2,7 UV-I 552 W/m² 10,2 °C 9,7 km/h (2 Bft)
18.10.2016 14:16 12,2 °C 12,2 °C 88 % 1021,6 hPa 0,0 mm 4,5 km/h (1 Bft) W-NW 288 ° 1 min 0,000 mm 2,5 UV-I 552 W/m² 10,3 °C 8,0 km/h (2 Bft)
18.10.2016 14:17 12,1 °C 12,2 °C 87 % 1021,5 hPa 0,0 mm 8,4 km/h (2 Bft) W-NW 292 ° 0 min 0,000 mm 2,1 UV-I 267 W/m² 10,0 °C 12,9 km/h (3 Bft)
18.10.2016 14:18 12,1 °C 12,1 °C 87 % 1021,6 hPa 0,0 mm 7,7 km/h (2 Bft) NW 307 ° 1 min 0,000 mm 1,7 UV-I 278 W/m² 10,0 °C 11,3 km/h (2 Bft)
18.10.2016 14:19 11,9 °C 12,1 °C 87 % 1021,5 hPa 0,0 mm 7,4 km/h (2 Bft) NW 317 ° 0 min 0,000 mm 1,7 UV-I 237 W/m² 9,8 °C 11,3 km/h (2 Bft)
18.10.2016 14:20 11,9 °C 11,9 °C 85 % 1021,5 hPa 0,0 mm 6,0 km/h (2 Bft) W 263 ° 0 min 0,000 mm 1,8 UV-I 237 W/m² 9,5 °C 12,9 km/h (3 Bft)
18.10.2016 14:21 11,9 °C 11,9 °C 87 % 1021,6 hPa 0,0 mm 5,8 km/h (2 Bft) W 261 ° 0 min 0,000 mm 2,3 UV-I 237 W/m² 9,8 °C 9,7 km/h (2 Bft)
18.10.2016 14:22 11,9 °C 11,9 °C 87 % 1021,6 hPa 0,0 mm 6,6 km/h (2 Bft) W-SW 258 ° 0 min 0,000 mm 1,4 UV-I 237 W/m² 9,8 °C 9,7 km/h (2 Bft)
18.10.2016 14:23 12,0 °C 12,0 °C 87 % 1021,6 hPa 0,0 mm 2,7 km/h (1 Bft) W 280 ° 0 min 0,000 mm 2,2 UV-I 237 W/m² 9,9 °C 4,8 km/h (1 Bft)
18.10.2016 14:24 12,1 °C 12,1 °C 88 % 1021,5 hPa 0,0 mm 6,1 km/h (2 Bft) NW 313 ° 1 min 0,000 mm 2,5 UV-I 687 W/m² 10,2 °C 11,3 km/h (2 Bft)
18.10.2016 14:25 12,2 °C 12,3 °C 88 % 1021,6 hPa 0,0 mm 7,2 km/h (2 Bft) W-NW 300 ° 1 min 0,000 mm 2,7 UV-I 689 W/m² 10,3 °C 11,3 km/h (2 Bft)
18.10.2016 14:26 12,4 °C 12,4 °C 87 % 1021,5 hPa 0,0 mm 6,2 km/h (2 Bft) W-NW 300 ° 1 min 0,000 mm 2,7 UV-I 643 W/m² 10,3 °C 9,7 km/h (2 Bft)
18.10.2016 14:27 12,4 °C 12,4 °C 86 % 1021,5 hPa 0,0 mm 7,2 km/h (2 Bft) W-NW 284 ° 1 min 0,000 mm 2,6 UV-I 606 W/m² 10,1 °C 11,3 km/h (2 Bft)
18.10.2016 14:28 12,5 °C 12,6 °C 85 % 1021,5 hPa 0,0 mm 7,4 km/h (2 Bft) S-SW 209 ° 1 min 0,000 mm 2,6 UV-I 596 W/m² 10,0 °C 12,9 km/h (3 Bft)
18.10.2016 14:29 12,6 °C 12,6 °C 86 % 1021,5 hPa 0,0 mm 10,4 km/h (2 Bft) W 259 ° 1 min 0,000 mm 1,7 UV-I 596 W/m² 10,3 °C 14,5 km/h (3 Bft)
18.10.2016 14:30 12,5 °C 12,6 °C 86 % 1021,5 hPa 0,0 mm 7,0 km/h (2 Bft) W-NW 300 ° 1 min 0,000 mm 2,6 UV-I 596 W/m² 10,2 °C 12,9 km/h (3 Bft)
18.10.2016 14:31 12,4 °C 12,5 °C 85 % 1021,5 hPa 0,0 mm 9,7 km/h (2 Bft) S-SW 205 ° 0 min 0,000 mm 1,7 UV-I 174 W/m² 9,9 °C 14,5 km/h (3 Bft)
18.10.2016 14:32 12,4 °C 12,4 °C 84 % 1021,5 hPa 0,0 mm 4,5 km/h (1 Bft) W 275 ° 0 min 0,000 mm 1,7 UV-I 149 W/m² 9,8 °C 6,4 km/h (2 Bft)
18.10.2016 14:33 12,3 °C 12,4 °C 85 % 1021,5 hPa 0,0 mm 5,2 km/h (1 Bft) W-NW 284 ° 0 min 0,000 mm 1,5 UV-I 156 W/m² 9,9 °C 6,4 km/h (2 Bft)
18.10.2016 14:34 12,2 °C 12,3 °C 85 % 1021,5 hPa 0,0 mm 6,6 km/h (2 Bft) W 267 ° 0 min 0,000 mm 1,9 UV-I 158 W/m² 9,8 °C 9,7 km/h (2 Bft)
18.10.2016 14:35 12,1 °C 12,2 °C 85 % 1021,5 hPa 0,0 mm 7,6 km/h (2 Bft) W-SW 255 ° 0 min 0,000 mm 1,9 UV-I 158 W/m² 9,7 °C 11,3 km/h (2 Bft)
18.10.2016 14:36 12,0 °C 12,1 °C 86 % 1021,6 hPa 0,0 mm 9,4 km/h (2 Bft) W-NW 285 ° 0 min 0,000 mm 1,3 UV-I 102 W/m² 9,7 °C 12,9 km/h (3 Bft)
18.10.2016 14:37 11,9 °C 12,0 °C 86 % 1021,6 hPa 0,0 mm 6,7 km/h (2 Bft) W-NW 296 ° 0 min 0,000 mm 1,2 UV-I 88 W/m² 9,6 °C 9,7 km/h (2 Bft)
18.10.2016 14:38 11,9 °C 11,9 °C 86 % 1021,6 hPa 0,0 mm 8,6 km/h (2 Bft) NW 306 ° 0 min 0,000 mm 1,3 UV-I 97 W/m² 9,6 °C 12,9 km/h (3 Bft)
18.10.2016 14:39 11,8 °C 11,9 °C 86 % 1021,5 hPa 0,0 mm 10,0 km/h (2 Bft) W-NW 291 ° 0 min 0,000 mm 2,2 UV-I 97 W/m² 9,5 °C 14,5 km/h (3 Bft)
18.10.2016 14:40 11,9 °C 11,9 °C 87 % 1021,5 hPa 0,0 mm 6,1 km/h (2 Bft) W 277 ° 1 min 0,000 mm 2,2 UV-I 555 W/m² 9,8 °C 9,7 km/h (2 Bft)
18.10.2016 14:41 11,9 °C 11,9 °C 88 % 1021,5 hPa 0,0 mm 5,1 km/h (1 Bft) W-NW 298 ° 1 min 0,000 mm 1,4 UV-I 555 W/m² 10,0 °C 6,4 km/h (2 Bft)
18.10.2016 14:42 11,9 °C 11,9 °C 87 % 1021,5 hPa 0,0 mm 3,8 km/h (1 Bft) W 277 ° 0 min 0,000 mm 1,4 UV-I 132 W/m² 9,8 °C 6,4 km/h (2 Bft)
18.10.2016 14:43 11,9 °C 11,9 °C 86 % 1021,5 hPa 0,0 mm 5,4 km/h (1 Bft) W 263 ° 0 min 0,000 mm 1,4 UV-I 141 W/m² 9,6 °C 9,7 km/h (2 Bft)
18.10.2016 14:44 11,8 °C 11,9 °C 86 % 1021,4 hPa 0,0 mm 5,6 km/h (1 Bft) W-SW 253 ° 0 min 0,000 mm 2,2 UV-I 141 W/m² 9,5 °C 9,7 km/h (2 Bft)
18.10.2016 14:45 11,8 °C 11,8 °C 86 % 1021,4 hPa 0,0 mm 3,1 km/h (1 Bft) W-NW 293 ° 1 min 0,000 mm 1,8 UV-I 445 W/m² 9,5 °C 6,4 km/h (2 Bft)
18.10.2016 14:46 11,8 °C 11,9 °C 87 % 1021,4 hPa 0,0 mm 5,5 km/h (1 Bft) W 265 ° 1 min 0,000 mm 2,2 UV-I 526 W/m² 9,7 °C 8,0 km/h (2 Bft)
18.10.2016 14:47 11,9 °C 11,9 °C 86 % 1021,4 hPa 0,0 mm 5,3 km/h (1 Bft) W-NW 284 ° 1 min 0,000 mm 2,3 UV-I 376 W/m² 9,6 °C 8,0 km/h (2 Bft)
18.10.2016 14:48 11,9 °C 11,9 °C 87 % 1021,4 hPa 0,0 mm 4,1 km/h (1 Bft) W-NW 298 ° 1 min 0,000 mm 1,9 UV-I 376 W/m² 9,8 °C 4,8 km/h (1 Bft)
18.10.2016 14:49 12,0 °C 12,0 °C 87 % 1021,4 hPa 0,0 mm 5,8 km/h (2 Bft) W 273 ° 1 min 0,000 mm 2,3 UV-I 552 W/m² 9,9 °C 9,7 km/h (2 Bft)
18.10.2016 14:50 12,1 °C 12,2 °C 88 % 1021,4 hPa 0,0 mm 2,7 km/h (1 Bft) W 279 ° 1 min 0,000 mm 1,9 UV-I 564 W/m² 10,2 °C 4,8 km/h (1 Bft)
18.10.2016 14:51 12,3 °C 12,3 °C 88 % 1021,4 hPa 0,0 mm 4,8 km/h (1 Bft) W-NW 295 ° 1 min 0,000 mm 1,4 UV-I 564 W/m² 10,4 °C 6,4 km/h (2 Bft)
18.10.2016 14:52 12,3 °C 12,3 °C 86 % 1021,4 hPa 0,0 mm 4,8 km/h (1 Bft) W 280 ° 0 min 0,000 mm 1,3 UV-I 141 W/m² 10,0 °C 6,4 km/h (2 Bft)
18.10.2016 14:53 12,3 °C 12,3 °C 86 % 1021,4 hPa 0,0 mm 3,5 km/h (1 Bft) W-NW 302 ° 0 min 0,000 mm 1,4 UV-I 153 W/m² 10,0 °C 6,4 km/h (2 Bft)
18.10.2016 14:54 12,3 °C 12,3 °C 85 % 1021,3 hPa 0,0 mm 5,6 km/h (1 Bft) W 281 ° 1 min 0,000 mm 2,1 UV-I 427 W/m² 9,9 °C 9,7 km/h (2 Bft)
18.10.2016 14:55 12,3 °C 12,3 °C 85 % 1021,4 hPa 0,0 mm 5,6 km/h (1 Bft) W-SW 254 ° 1 min 0,000 mm 1,9 UV-I 413 W/m² 9,9 °C 8,0 km/h (2 Bft)
18.10.2016 14:56 12,3 °C 12,3 °C 84 % 1021,4 hPa 0,0 mm 6,1 km/h (2 Bft) W-SW 250 ° 1 min 0,000 mm 1,5 UV-I 413 W/m² 9,7 °C 8,0 km/h (2 Bft)
18.10.2016 14:57 12,3 °C 12,3 °C 85 % 1021,3 hPa 0,0 mm 3,6 km/h (1 Bft) W-SW 254 ° 0 min 0,000 mm 1,5 UV-I 220 W/m² 9,9 °C 4,8 km/h (1 Bft)
18.10.2016 14:58 12,3 °C 12,3 °C 86 % 1021,3 hPa 0,0 mm 5,9 km/h (2 Bft) W-SW 254 ° 0 min 0,000 mm 2,1 UV-I 220 W/m² 10,0 °C 12,9 km/h (3 Bft)
18.10.2016 14:59 12,4 °C 12,4 °C 86 % 1021,4 hPa 0,0 mm 5,6 km/h (1 Bft) W-SW 255 ° 1 min 0,000 mm 2,2 UV-I 571 W/m² 10,1 °C 11,3 km/h (2 Bft)
18.10.2016 15:00 12,6 °C 12,6 °C 87 % 1021,3 hPa 0,0 mm 1,2 km/h (1 Bft) W-SW 255 ° 1 min 0,000 mm 2,3 UV-I 571 W/m² 10,5 °C 1,6 km/h (1 Bft)
18.10.2016 15:01 12,6 °C 12,6 °C 85 % 1021,4 hPa 0,0 mm 10,1 km/h (2 Bft) SW 236 ° 1 min 0,178 mm 2,2 UV-I 571 W/m² 10,1 °C 16,1 km/h (3 Bft)
18.10.2016 15:02 12,7 °C 12,7 °C 87 % 1021,3 hPa 0,0 mm 4,4 km/h (1 Bft) W-SW 244 ° 1 min 0,000 mm 1,4 UV-I 571 W/m² 10,6 °C 6,4 km/h (2 Bft)
18.10.2016 15:03 12,7 °C 12,7 °C 84 % 1021,4 hPa 0,0 mm 8,0 km/h (2 Bft) W 261 ° 0 min 0,000 mm 1,3 UV-I 162 W/m² 10,1 °C 12,9 km/h (3 Bft)
18.10.2016 15:04 12,6 °C 12,7 °C 83 % 1021,4 hPa 0,0 mm 6,8 km/h (2 Bft) W-NW 301 ° 0 min 0,000 mm 1,3 UV-I 171 W/m² 9,8 °C 11,3 km/h (2 Bft)
18.10.2016 15:05 12,5 °C 12,6 °C 83 % 1021,3 hPa 0,0 mm 4,3 km/h (1 Bft) W-SW 248 ° 0 min 0,000 mm 2,0 UV-I 171 W/m² 9,7 °C 6,4 km/h (2 Bft)
18.10.2016 15:06 12,5 °C 12,6 °C 84 % 1021,3 hPa 0,0 mm 6,0 km/h (2 Bft) W-SW 248 ° 1 min 0,000 mm 1,3 UV-I 297 W/m² 9,9 °C 11,3 km/h (2 Bft)
18.10.2016 15:07 12,6 °C 12,6 °C 86 % 1021,3 hPa 0,0 mm 7,4 km/h (2 Bft) W 276 ° 1 min 0,000 mm 1,3 UV-I 297 W/m² 10,3 °C 14,5 km/h (3 Bft)
18.10.2016 15:08 12,6 °C 12,6 °C 84 % 1021,3 hPa 0,0 mm 4,4 km/h (1 Bft) W-NW 284 ° 0 min 0,000 mm 1,3 UV-I 193 W/m² 10,0 °C 9,7 km/h (2 Bft)
18.10.2016 15:09 12,6 °C 12,6 °C 84 % 1021,3 hPa 0,0 mm 4,6 km/h (1 Bft) W-SW 252 ° 0 min 0,000 mm 1,4 UV-I 227 W/m² 10,0 °C 8,0 km/h (2 Bft)
18.10.2016 15:10 12,5 °C 12,6 °C 85 % 1021,3 hPa 0,0 mm 6,6 km/h (2 Bft) W-SW 239 ° 1 min 0,000 mm 1,5 UV-I 260 W/m² 10,0 °C 11,3 km/h (2 Bft)
18.10.2016 15:11 12,6 °C 12,6 °C 84 % 1021,3 hPa 0,0 mm 4,7 km/h (1 Bft) W-NW 286 ° 1 min 0,000 mm 1,5 UV-I 260 W/m² 10,0 °C 6,4 km/h (2 Bft)
18.10.2016 15:12 12,6 °C 12,6 °C 84 % 1021,3 hPa 0,0 mm 8,0 km/h (2 Bft) SW 234 ° 0 min 0,000 mm 1,4 UV-I 176 W/m² 10,0 °C 11,3 km/h (2 Bft)
18.10.2016 15:13 12,5 °C 12,6 °C 84 % 1021,3 hPa 0,0 mm 6,6 km/h (2 Bft) S-SW 207 ° 0 min 0,000 mm 1,4 UV-I 190 W/m² 9,9 °C 11,3 km/h (2 Bft)
18.10.2016 15:14 12,4 °C 12,5 °C 83 % 1021,3 hPa 0,0 mm 5,2 km/h (1 Bft) S-SW 199 ° 1 min 0,000 mm 1,6 UV-I 244 W/m² 9,6 °C 9,7 km/h (2 Bft)
18.10.2016 15:15 12,4 °C 12,4 °C 83 % 1021,3 hPa 0,0 mm 3,4 km/h (1 Bft) S 175 ° 0 min 0,000 mm 1,4 UV-I 192 W/m² 9,6 °C 4,8 km/h (1 Bft)
18.10.2016 15:16 12,3 °C 12,4 °C 83 % 1021,2 hPa 0,0 mm 4,7 km/h (1 Bft) S-SW 198 ° 0 min 0,000 mm 1,4 UV-I 183 W/m² 9,5 °C 8,0 km/h (2 Bft)
18.10.2016 15:17 12,3 °C 12,3 °C 84 % 1021,2 hPa 0,0 mm 4,0 km/h (1 Bft) W-SW 250 ° 0 min 0,000 mm 1,8 UV-I 149 W/m² 9,7 °C 8,0 km/h (2 Bft)
18.10.2016 15:18 12,3 °C 12,3 °C 84 % 1021,2 hPa 0,0 mm 5,6 km/h (1 Bft) S 182 ° 0 min 0,000 mm 1,3 UV-I 114 W/m² 9,7 °C 9,7 km/h (2 Bft)
18.10.2016 15:19 12,2 °C 12,3 °C 82 % 1021,3 hPa 0,0 mm 7,7 km/h (2 Bft) S 185 ° 0 min 0,000 mm 1,4 UV-I 141 W/m² 9,2 °C 17,7 km/h (3 Bft)
18.10.2016 15:20 12,2 °C 12,2 °C 83 % 1021,3 hPa 0,0 mm 8,3 km/h (2 Bft) W-SW 250 ° 0 min 0,000 mm 1,3 UV-I 211 W/m² 9,4 °C 16,1 km/h (3 Bft)
18.10.2016 15:21 12,1 °C 12,2 °C 83 % 1021,3 hPa 0,0 mm 3,9 km/h (1 Bft) SW 230 ° 0 min 0,000 mm 1,3 UV-I 120 W/m² 9,3 °C 12,9 km/h (3 Bft)
18.10.2016 15:22 12,1 °C 12,2 °C 83 % 1021,3 hPa 0,0 mm 3,2 km/h (1 Bft) S 188 ° 0 min 0,000 mm 1,3 UV-I 120 W/m² 9,3 °C 4,8 km/h (1 Bft)
18.10.2016 15:23 12,0 °C 12,1 °C 83 % 1021,2 hPa 0,0 mm 0,8 km/h (0 Bft) S 188 ° 0 min 0,000 mm 1,3 UV-I 139 W/m² 9,2 °C 3,2 km/h (1 Bft)
18.10.2016 15:24 12,0 °C 12,0 °C 84 % 1021,2 hPa 0,0 mm 3,0 km/h (1 Bft) W 262 ° 0 min 0,000 mm 1,3 UV-I 134 W/m² 9,4 °C 6,4 km/h (2 Bft)
18.10.2016 15:25 11,9 °C 12,0 °C 84 % 1021,3 hPa 0,0 mm 5,6 km/h (1 Bft) W 262 ° 0 min 0,000 mm 1,3 UV-I 127 W/m² 9,3 °C 9,7 km/h (2 Bft)
18.10.2016 15:26 11,9 °C 11,9 °C 84 % 1021,3 hPa 0,0 mm 4,0 km/h (1 Bft) W-SW 242 ° 0 min 0,000 mm 1,3 UV-I 114 W/m² 9,3 °C 11,3 km/h (2 Bft)
18.10.2016 15:27 11,9 °C 11,9 °C 85 % 1021,3 hPa 0,0 mm 4,8 km/h (1 Bft) NW 304 ° 0 min 0,000 mm 1,3 UV-I 116 W/m² 9,5 °C 8,0 km/h (2 Bft)
18.10.2016 15:28 11,9 °C 11,9 °C 85 % 1021,2 hPa 0,0 mm 4,1 km/h (1 Bft) W-SW 255 ° 0 min 0,000 mm 1,3 UV-I 114 W/m² 9,5 °C 6,4 km/h (2 Bft)
18.10.2016 15:29 11,8 °C 11,9 °C 85 % 1021,3 hPa 0,0 mm 3,2 km/h (1 Bft) W-SW 238 ° 0 min 0,000 mm 1,3 UV-I 139 W/m² 9,4 °C 4,8 km/h (1 Bft)
18.10.2016 15:30 11,8 °C 11,8 °C 85 % 1021,3 hPa 0,0 mm 4,0 km/h (1 Bft) SW 236 ° 0 min 0,000 mm 1,3 UV-I 114 W/m² 9,4 °C 6,4 km/h (2 Bft)
18.10.2016 15:31 11,7 °C 11,8 °C 86 % 1021,3 hPa 0,0 mm 1,8 km/h (1 Bft) SW 236 ° 0 min 0,000 mm 1,2 UV-I 100 W/m² 9,4 °C 3,2 km/h (1 Bft)
18.10.2016 15:32 11,7 °C 11,7 °C 86 % 1021,3 hPa 0,0 mm 6,8 km/h (2 Bft) S-SW 209 ° 0 min 0,000 mm 1,3 UV-I 114 W/m² 9,4 °C 14,5 km/h (3 Bft)
18.10.2016 15:33 11,7 °C 11,7 °C 86 % 1021,3 hPa 0,0 mm 3,3 km/h (1 Bft) W-NW 288 ° 0 min 0,000 mm 1,6 UV-I 114 W/m² 9,4 °C 4,8 km/h (1 Bft)
18.10.2016 15:34 11,8 °C 11,8 °C 85 % 1021,3 hPa 0,0 mm 1,9 km/h (1 Bft) SW 220 ° 1 min 0,000 mm 1,6 UV-I 410 W/m² 9,4 °C 3,2 km/h (1 Bft)
18.10.2016 15:35 11,8 °C 11,8 °C 85 % 1021,3 hPa 0,0 mm 4,0 km/h (1 Bft) W 271 ° 1 min 0,000 mm 1,5 UV-I 397 W/m² 9,4 °C 9,7 km/h (2 Bft)
18.10.2016 15:36 11,8 °C 11,8 °C 85 % 1021,3 hPa 0,0 mm 3,2 km/h (1 Bft) S-SW 198 ° 1 min 0,000 mm 1,5 UV-I 397 W/m² 9,4 °C 9,7 km/h (2 Bft)
18.10.2016 15:37 11,9 °C 11,9 °C 85 % 1021,3 hPa 0,0 mm 5,3 km/h (1 Bft) W 267 ° 1 min 0,000 mm 1,5 UV-I 383 W/m² 9,5 °C 9,7 km/h (2 Bft)
18.10.2016 15:38 11,9 °C 11,9 °C 85 % 1021,2 hPa 0,0 mm 11,1 km/h (2 Bft) W 269 ° 1 min 0,000 mm 1,5 UV-I 381 W/m² 9,5 °C 16,1 km/h (3 Bft)
18.10.2016 15:39 11,9 °C 11,9 °C 85 % 1021,2 hPa 0,0 mm 5,5 km/h (1 Bft) W-SW 248 ° 1 min 0,000 mm 1,5 UV-I 380 W/m² 9,5 °C 9,7 km/h (2 Bft)
18.10.2016 15:40 12,1 °C 12,1 °C 85 % 1021,1 hPa 0,0 mm 7,9 km/h (2 Bft) SW 234 ° 1 min 0,000 mm 1,5 UV-I 374 W/m² 9,7 °C 14,5 km/h (3 Bft)
18.10.2016 15:41 12,1 °C 12,1 °C 84 % 1021,2 hPa 0,0 mm 8,0 km/h (2 Bft) W-NW 286 ° 1 min 0,000 mm 1,5 UV-I 371 W/m² 9,5 °C 12,9 km/h (3 Bft)
18.10.2016 15:42 12,1 °C 12,1 °C 84 % 1021,2 hPa 0,0 mm 2,7 km/h (1 Bft) W-NW 290 ° 1 min 0,000 mm 1,2 UV-I 369 W/m² 9,5 °C 4,8 km/h (1 Bft)
18.10.2016 15:43 12,1 °C 12,1 °C 85 % 1021,1 hPa 0,0 mm 5,6 km/h (1 Bft) W-SW 253 ° 1 min 0,000 mm 1,5 UV-I 369 W/m² 9,7 °C 11,3 km/h (2 Bft)
18.10.2016 15:44 12,1 °C 12,1 °C 86 % 1021,2 hPa 0,0 mm 5,0 km/h (1 Bft) W 272 ° 1 min 0,000 mm 1,5 UV-I 366 W/m² 9,8 °C 9,7 km/h (2 Bft)
18.10.2016 15:45 12,2 °C 12,2 °C 86 % 1021,1 hPa 0,0 mm 3,3 km/h (1 Bft) W-NW 286 ° 1 min 0,000 mm 1,5 UV-I 362 W/m² 9,9 °C 6,4 km/h (2 Bft)
18.10.2016 15:46 12,2 °C 12,2 °C 86 % 1021,2 hPa 0,0 mm 3,0 km/h (1 Bft) W 278 ° 1 min 0,000 mm 1,5 UV-I 362 W/m² 9,9 °C 4,8 km/h (1 Bft)
18.10.2016 15:47 12,3 °C 12,3 °C 86 % 1021,2 hPa 0,0 mm 4,8 km/h (1 Bft) NW 304 ° 1 min 0,000 mm 1,5 UV-I 357 W/m² 10,0 °C 6,4 km/h (2 Bft)
18.10.2016 15:48 12,4 °C 12,4 °C 85 % 1021,2 hPa 0,0 mm 4,0 km/h (1 Bft) W 278 ° 1 min 0,000 mm 1,5 UV-I 353 W/m² 9,9 °C 6,4 km/h (2 Bft)
18.10.2016 15:49 12,4 °C 12,4 °C 84 % 1021,2 hPa 0,0 mm 4,9 km/h (1 Bft) W-SW 254 ° 1 min 0,000 mm 1,5 UV-I 348 W/m² 9,8 °C 8,0 km/h (2 Bft)
18.10.2016 15:50 12,4 °C 12,4 °C 84 % 1021,2 hPa 0,0 mm 4,7 km/h (1 Bft) W 268 ° 1 min 0,000 mm 0,0 UV-I 348 W/m² 9,8 °C 6,4 km/h (2 Bft)
18.10.2016 15:51 12,4 °C 12,4 °C 83 % 1021,2 hPa 0,0 mm 4,6 km/h (1 Bft) W-SW 253 ° 0 min 0,000 mm 0,0 UV-I 51 W/m² 9,6 °C 6,4 km/h (2 Bft)
18.10.2016 15:52 12,3 °C 12,4 °C 83 % 1021,2 hPa 0,0 mm 4,7 km/h (1 Bft) W-SW 243 ° 0 min 0,000 mm 1,4 UV-I 51 W/m² 9,5 °C 6,4 km/h (2 Bft)
18.10.2016 15:53 12,3 °C 12,3 °C 84 % 1021,2 hPa 0,0 mm 9,0 km/h (2 Bft) W 263 ° 1 min 0,000 mm 1,4 UV-I 338 W/m² 9,7 °C 12,9 km/h (3 Bft)
18.10.2016 15:54 12,3 °C 12,3 °C 83 % 1021,2 hPa 0,0 mm 6,2 km/h (2 Bft) W 268 ° 1 min 0,000 mm 1,1 UV-I 338 W/m² 9,5 °C 12,9 km/h (3 Bft)
18.10.2016 15:55 12,2 °C 12,3 °C 83 % 1021,2 hPa 0,0 mm 6,9 km/h (2 Bft) W 266 ° 0 min 0,000 mm 1,1 UV-I 47 W/m² 9,4 °C 11,3 km/h (2 Bft)
18.10.2016 15:56 12,1 °C 12,2 °C 84 % 1021,2 hPa 0,0 mm 4,6 km/h (1 Bft) W-SW 246 ° 0 min 0,000 mm 1,2 UV-I 111 W/m² 9,5 °C 6,4 km/h (2 Bft)
18.10.2016 15:57 12,1 °C 12,1 °C 83 % 1021,2 hPa 0,0 mm 8,7 km/h (2 Bft) W 269 ° 0 min 0,000 mm 1,3 UV-I 111 W/m² 9,3 °C 11,3 km/h (2 Bft)
18.10.2016 15:58 12,0 °C 12,1 °C 84 % 1021,2 hPa 0,0 mm 3,6 km/h (1 Bft) W 263 ° 0 min 0,000 mm 1,2 UV-I 111 W/m² 9,4 °C 4,8 km/h (1 Bft)
18.10.2016 15:59 12,0 °C 12,0 °C 85 % 1021,2 hPa 0,0 mm 3,9 km/h (1 Bft) W-SW 257 ° 1 min 0,000 mm 1,1 UV-I 309 W/m² 9,6 °C 6,4 km/h (2 Bft)
18.10.2016 16:00 11,9 °C 12,0 °C 85 % 1021,2 hPa 0,0 mm 3,4 km/h (1 Bft) W 265 ° 1 min 0,000 mm 1,0 UV-I 309 W/m² 9,5 °C 6,4 km/h (2 Bft)
18.10.2016 16:01 11,9 °C 11,9 °C 85 % 1021,2 hPa 0,0 mm 4,7 km/h (1 Bft) NW 311 ° 1 min 0,127 mm 1,2 UV-I 309 W/m² 9,5 °C 6,4 km/h (2 Bft)
18.10.2016 16:02 11,9 °C 11,9 °C 85 % 1021,2 hPa 0,0 mm 6,4 km/h (2 Bft) W 259 ° 1 min 0,000 mm 1,3 UV-I 309 W/m² 9,5 °C 11,3 km/h (2 Bft)
18.10.2016 16:03 11,8 °C 11,9 °C 85 % 1021,2 hPa 0,0 mm 3,4 km/h (1 Bft) W-NW 286 ° 1 min 0,000 mm 1,3 UV-I 313 W/m² 9,4 °C 6,4 km/h (2 Bft)
18.10.2016 16:04 11,8 °C 11,8 °C 85 % 1021,2 hPa 0,0 mm 4,8 km/h (1 Bft) W-SW 248 ° 1 min 0,000 mm 1,2 UV-I 258 W/m² 9,4 °C 8,0 km/h (2 Bft)
18.10.2016 16:05 11,8 °C 11,8 °C 85 % 1021,2 hPa 0,0 mm 4,3 km/h (1 Bft) W-SW 250 ° 1 min 0,000 mm 1,2 UV-I 295 W/m² 9,4 °C 8,0 km/h (2 Bft)
18.10.2016 16:06 11,8 °C 11,8 °C 84 % 1021,1 hPa 0,0 mm 8,1 km/h (2 Bft) SW 226 ° 1 min 0,000 mm 1,2 UV-I 299 W/m² 9,2 °C 14,5 km/h (3 Bft)
18.10.2016 16:07 11,8 °C 11,8 °C 84 % 1021,2 hPa 0,0 mm 4,4 km/h (1 Bft) W 262 ° 1 min 0,000 mm 1,2 UV-I 299 W/m² 9,2 °C 6,4 km/h (2 Bft)
18.10.2016 16:08 11,8 °C 11,8 °C 84 % 1021,1 hPa 0,0 mm 7,6 km/h (2 Bft) W-SW 251 ° 1 min 0,000 mm 1,2 UV-I 294 W/m² 9,2 °C 11,3 km/h (2 Bft)
18.10.2016 16:09 11,7 °C 11,8 °C 84 % 1021,1 hPa 0,0 mm 7,4 km/h (2 Bft) W-NW 291 ° 1 min 0,000 mm 1,2 UV-I 283 W/m² 9,1 °C 11,3 km/h (2 Bft)
18.10.2016 16:10 11,7 °C 11,7 °C 84 % 1021,1 hPa 0,0 mm 4,0 km/h (1 Bft) W 273 ° 1 min 0,000 mm 1,2 UV-I 281 W/m² 9,1 °C 6,4 km/h (2 Bft)
18.10.2016 16:11 11,7 °C 11,7 °C 84 % 1021,1 hPa 0,0 mm 5,8 km/h (2 Bft) W-SW 239 ° 1 min 0,000 mm 1,2 UV-I 279 W/m² 9,1 °C 8,0 km/h (2 Bft)
18.10.2016 16:12 11,7 °C 11,7 °C 84 % 1021,1 hPa 0,0 mm 5,2 km/h (1 Bft) W-SW 247 ° 1 min 0,000 mm 1,2 UV-I 279 W/m² 9,1 °C 11,3 km/h (2 Bft)
18.10.2016 16:13 11,7 °C 11,7 °C 83 % 1021,1 hPa 0,0 mm 1,7 km/h (1 Bft) W-SW 248 ° 1 min 0,000 mm 1,2 UV-I 278 W/m² 8,9 °C 3,2 km/h (1 Bft)
18.10.2016 16:14 11,8 °C 11,8 °C 83 % 1021,0 hPa 0,0 mm 3,6 km/h (1 Bft) W 271 ° 1 min 0,000 mm 1,2 UV-I 274 W/m² 9,0 °C 4,8 km/h (1 Bft)
18.10.2016 16:15 11,8 °C 11,8 °C 84 % 1021,0 hPa 0,0 mm 1,7 km/h (1 Bft) W 271 ° 1 min 0,000 mm 1,1 UV-I 181 W/m² 9,2 °C 3,2 km/h (1 Bft)
18.10.2016 16:16 11,7 °C 11,8 °C 84 % 1021,0 hPa 0,0 mm 1,4 km/h (1 Bft) W 271 ° 1 min 0,000 mm 1,1 UV-I 262 W/m² 9,1 °C 3,2 km/h (1 Bft)
18.10.2016 16:17 11,7 °C 11,8 °C 84 % 1021,0 hPa 0,0 mm 5,6 km/h (1 Bft) W-SW 252 ° 1 min 0,000 mm 1,0 UV-I 214 W/m² 9,1 °C 9,7 km/h (2 Bft)
18.10.2016 16:18 11,7 °C 11,8 °C 84 % 1021,0 hPa 0,0 mm 6,4 km/h (2 Bft) W-SW 250 ° 0 min 0,000 mm 0,9 UV-I 134 W/m² 9,1 °C 11,3 km/h (2 Bft)
18.10.2016 16:19 11,7 °C 11,7 °C 84 % 1021,0 hPa 0,0 mm 8,1 km/h (2 Bft) W-SW 247 ° 0 min 0,000 mm 0,9 UV-I 63 W/m² 9,1 °C 16,1 km/h (3 Bft)
18.10.2016 16:20 11,7 °C 11,7 °C 84 % 1021,0 hPa 0,0 mm 5,2 km/h (1 Bft) W-SW 242 ° 0 min 0,000 mm 0,0 UV-I 42 W/m² 9,1 °C 11,3 km/h (2 Bft)
18.10.2016 16:21 11,6 °C 11,7 °C 84 % 1021,0 hPa 0,0 mm 2,8 km/h (1 Bft) W-SW 241 ° 0 min 0,000 mm 0,0 UV-I 33 W/m² 9,0 °C 4,8 km/h (1 Bft)
18.10.2016 16:22 11,6 °C 11,6 °C 84 % 1021,1 hPa 0,0 mm 1,4 km/h (1 Bft) W-SW 241 ° 0 min 0,000 mm 0,0 UV-I 35 W/m² 9,0 °C 3,2 km/h (1 Bft)
18.10.2016 16:23 11,4 °C 11,6 °C 85 % 1021,0 hPa 0,0 mm 6,4 km/h (2 Bft) W-NW 292 ° 0 min 0,000 mm 0,0 UV-I 33 W/m² 9,0 °C 11,3 km/h (2 Bft)
18.10.2016 16:24 11,4 °C 11,4 °C 84 % 1021,0 hPa 0,0 mm 4,8 km/h (1 Bft) W 281 ° 0 min 0,000 mm 0,0 UV-I 35 W/m² 8,8 °C 9,7 km/h (2 Bft)
18.10.2016 16:25 11,3 °C 11,4 °C 85 % 1021,1 hPa 0,0 mm 1,8 km/h (1 Bft) W 281 ° 0 min 0,000 mm 0,0 UV-I 35 W/m² 8,9 °C 3,2 km/h (1 Bft)
18.10.2016 16:26 11,3 °C 11,3 °C 86 % 1021,0 hPa 0,0 mm 1,4 km/h (1 Bft) W 281 ° 0 min 0,000 mm 0,0 UV-I 40 W/m² 9,0 °C 3,2 km/h (1 Bft)
18.10.2016 16:27 11,2 °C 11,3 °C 86 % 1021,0 hPa 0,0 mm 2,3 km/h (1 Bft) W 275 ° 0 min 0,000 mm 0,0 UV-I 42 W/m² 8,9 °C 4,8 km/h (1 Bft)
18.10.2016 16:28 11,1 °C 11,2 °C 86 % 1021,0 hPa 0,0 mm 3,5 km/h (1 Bft) W 262 ° 0 min 0,000 mm 0,0 UV-I 46 W/m² 8,8 °C 4,8 km/h (1 Bft)
18.10.2016 16:29 11,1 °C 11,1 °C 87 % 1021,0 hPa 0,0 mm 4,2 km/h (1 Bft) W-SW 248 ° 0 min 0,000 mm 0,0 UV-I 39 W/m² 9,0 °C 6,4 km/h (2 Bft)
18.10.2016 16:30 11,0 °C 11,1 °C 87 % 1021,0 hPa 0,0 mm 0,5 km/h (0 Bft) W-SW 248 ° 0 min 0,000 mm 0,0 UV-I 39 W/m² 8,9 °C 1,6 km/h (1 Bft)
18.10.2016 16:31 11,0 °C 11,0 °C 87 % 1021,0 hPa 0,0 mm 0,6 km/h (0 Bft) W-SW 248 ° 0 min 0,000 mm 0,0 UV-I 37 W/m² 8,9 °C 1,6 km/h (1 Bft)
18.10.2016 16:32 10,9 °C 11,0 °C 87 % 1021,0 hPa 0,0 mm 1,5 km/h (1 Bft) W-SW 248 ° 0 min 0,000 mm 0,0 UV-I 35 W/m² 8,8 °C 3,2 km/h (1 Bft)
18.10.2016 16:33 10,9 °C 11,0 °C 87 % 1021,0 hPa 0,0 mm 0,3 km/h (0 Bft) W-SW 248 ° 0 min 0,000 mm 0,0 UV-I 37 W/m² 8,8 °C 1,6 km/h (1 Bft)
18.10.2016 16:34 10,9 °C 10,9 °C 88 % 1021,0 hPa 0,0 mm 0,3 km/h (0 Bft) W-SW 248 ° 0 min 0,000 mm 0,0 UV-I 39 W/m² 9,0 °C 1,6 km/h (1 Bft)
18.10.2016 16:35 10,9 °C 10,9 °C 89 % 1021,0 hPa 0,0 mm 0,8 km/h (0 Bft) W-SW 247 ° 0 min 0,000 mm 0,0 UV-I 40 W/m² 9,2 °C 1,6 km/h (1 Bft)
18.10.2016 16:36 10,9 °C 10,9 °C 88 % 1021,0 hPa 0,0 mm 0,6 km/h (0 Bft) W-SW 247 ° 0 min 0,000 mm 0,0 UV-I 46 W/m² 9,0 °C 1,6 km/h (1 Bft)
18.10.2016 16:37 10,8 °C 10,9 °C 88 % 1021,0 hPa 0,0 mm 1,1 km/h (1 Bft) W-SW 248 ° 0 min 0,000 mm 0,0 UV-I 47 W/m² 8,9 °C 1,6 km/h (1 Bft)
18.10.2016 16:38 10,9 °C 10,9 °C 89 % 1021,0 hPa 0,0 mm 1,9 km/h (1 Bft) W-SW 247 ° 0 min 0,000 mm 0,0 UV-I 47 W/m² 9,2 °C 3,2 km/h (1 Bft)
18.10.2016 16:39 10,9 °C 10,9 °C 89 % 1021,0 hPa 0,0 mm 1,5 km/h (1 Bft) W-SW 247 ° 0 min 0,000 mm 0,0 UV-I 44 W/m² 9,2 °C 3,2 km/h (1 Bft)
18.10.2016 16:40 10,9 °C 10,9 °C 89 % 1021,0 hPa 0,0 mm 0,1 km/h (0 Bft) W-SW 247 ° 0 min 0,000 mm 0,0 UV-I 44 W/m² 9,2 °C 1,6 km/h (1 Bft)
18.10.2016 16:41 10,9 °C 10,9 °C 89 % 1021,0 hPa 0,0 mm 0,6 km/h (0 Bft) W-SW 247 ° 0 min 0,000 mm 0,0 UV-I 44 W/m² 9,2 °C 3,2 km/h (1 Bft)
18.10.2016 16:42 10,9 °C 10,9 °C 89 % 1021,0 hPa 0,0 mm 1,1 km/h (1 Bft) W-SW 247 ° 0 min 0,000 mm 0,0 UV-I 42 W/m² 9,2 °C 1,6 km/h (1 Bft)
18.10.2016 16:43 10,9 °C 10,9 °C 89 % 1021,0 hPa 0,0 mm 0,2 km/h (0 Bft) W-SW 247 ° 0 min 0,000 mm 0,0 UV-I 40 W/m² 9,2 °C 1,6 km/h (1 Bft)
18.10.2016 16:44 10,9 °C 10,9 °C 89 % 1021,0 hPa 0,0 mm 0,8 km/h (0 Bft) W-SW 247 ° 0 min 0,000 mm 0,0 UV-I 42 W/m² 9,2 °C 1,6 km/h (1 Bft)
18.10.2016 16:45 10,8 °C 10,9 °C 90 % 1021,0 hPa 0,0 mm 1,3 km/h (1 Bft) W-SW 247 ° 0 min 0,000 mm 0,0 UV-I 42 W/m² 9,2 °C 1,6 km/h (1 Bft)
18.10.2016 16:46 10,8 °C 10,8 °C 90 % 1020,9 hPa 0,0 mm 1,5 km/h (1 Bft) SW 225 ° 0 min 0,000 mm 0,0 UV-I 40 W/m² 9,2 °C 3,2 km/h (1 Bft)
18.10.2016 16:47 10,8 °C 10,8 °C 89 % 1021,0 hPa 0,0 mm 2,7 km/h (1 Bft) S-SW 199 ° 0 min 0,000 mm 0,0 UV-I 39 W/m² 9,1 °C 4,8 km/h (1 Bft)
18.10.2016 16:48 10,7 °C 10,8 °C 90 % 1021,0 hPa 0,0 mm 1,3 km/h (1 Bft) S-SW 199 ° 0 min 0,000 mm 0,0 UV-I 39 W/m² 9,1 °C 3,2 km/h (1 Bft)
18.10.2016 16:49 10,7 °C 10,7 °C 90 % 1020,9 hPa 0,0 mm 0,7 km/h (0 Bft) S-SW 199 ° 0 min 0,000 mm 0,0 UV-I 39 W/m² 9,1 °C 1,6 km/h (1 Bft)
18.10.2016 16:50 10,6 °C 10,7 °C 90 % 1021,0 hPa 0,0 mm 1,9 km/h (1 Bft) S-SW 202 ° 0 min 0,000 mm 0,0 UV-I 40 W/m² 9,0 °C 3,2 km/h (1 Bft)
18.10.2016 16:51 10,6 °C 10,6 °C 90 % 1021,0 hPa 0,0 mm 2,0 km/h (1 Bft) SW 225 ° 0 min 0,000 mm 0,0 UV-I 44 W/m² 9,0 °C 4,8 km/h (1 Bft)
18.10.2016 16:52 10,5 °C 10,6 °C 90 % 1021,0 hPa 0,0 mm 2,3 km/h (1 Bft) SW 221 ° 0 min 0,000 mm 0,0 UV-I 44 W/m² 8,9 °C 3,2 km/h (1 Bft)
18.10.2016 16:53 10,6 °C 10,6 °C 90 % 1021,0 hPa 0,0 mm 0,3 km/h (0 Bft) SW 221 ° 0 min 0,000 mm 0,0 UV-I 40 W/m² 9,0 °C 1,6 km/h (1 Bft)
18.10.2016 16:54 10,6 °C 10,6 °C 90 % 1021,0 hPa 0,0 mm 1,5 km/h (1 Bft) SW 221 ° 0 min 0,000 mm 0,0 UV-I 37 W/m² 9,0 °C 3,2 km/h (1 Bft)
18.10.2016 16:55 10,6 °C 10,6 °C 90 % 1021,0 hPa 0,0 mm 1,1 km/h (1 Bft) SW 221 ° 0 min 0,000 mm 0,0 UV-I 33 W/m² 9,0 °C 1,6 km/h (1 Bft)
18.10.2016 16:56 10,6 °C 10,6 °C 90 % 1021,0 hPa 0,0 mm 1,0 km/h (0 Bft) SW 221 ° 0 min 0,000 mm 0,0 UV-I 33 W/m² 9,0 °C 1,6 km/h (1 Bft)
18.10.2016 16:57 10,6 °C 10,6 °C 90 % 1021,0 hPa 0,0 mm 1,5 km/h (1 Bft) SW 221 ° 0 min 0,000 mm 0,0 UV-I 33 W/m² 9,0 °C 1,6 km/h (1 Bft)
18.10.2016 16:58 10,5 °C 10,6 °C 90 % 1021,0 hPa 0,0 mm 1,5 km/h (1 Bft) SW 222 ° 0 min 0,000 mm 0,0 UV-I 37 W/m² 8,9 °C 3,2 km/h (1 Bft)
18.10.2016 16:59 10,4 °C 10,5 °C 90 % 1021,0 hPa 0,0 mm 1,0 km/h (0 Bft) W-SW 242 ° 0 min 0,000 mm 0,0 UV-I 40 W/m² 8,8 °C 4,8 km/h (1 Bft)
18.10.2016 17:00 10,4 °C 10,4 °C 89 % 1021,0 hPa 0,0 mm 4,2 km/h (1 Bft) W-SW 244 ° 0 min 0,000 mm 0,0 UV-I 40 W/m² 8,7 °C 6,4 km/h (2 Bft)
18.10.2016 17:01 10,4 °C 10,4 °C 90 % 1021,0 hPa 0,0 mm 3,1 km/h (1 Bft) SW 217 ° 0 min 0,051 mm 0,0 UV-I 42 W/m² 8,8 °C 4,8 km/h (1 Bft)
18.10.2016 17:02 10,4 °C 10,4 °C 90 % 1021,0 hPa 0,0 mm 2,0 km/h (1 Bft) W-SW 251 ° 0 min 0,000 mm 0,0 UV-I 40 W/m² 8,8 °C 3,2 km/h (1 Bft)
18.10.2016 17:03 10,4 °C 10,4 °C 90 % 1021,0 hPa 0,0 mm 3,3 km/h (1 Bft) SW 215 ° 0 min 0,000 mm 0,0 UV-I 39 W/m² 8,8 °C 6,4 km/h (2 Bft)
18.10.2016 17:04 10,4 °C 10,4 °C 90 % 1021,0 hPa 0,0 mm 3,2 km/h (1 Bft) W 259 ° 0 min 0,000 mm 0,0 UV-I 39 W/m² 8,8 °C 4,8 km/h (1 Bft)
18.10.2016 17:05 10,4 °C 10,4 °C 90 % 1020,9 hPa 0,0 mm 2,5 km/h (1 Bft) W 259 ° 0 min 0,000 mm 0,0 UV-I 39 W/m² 8,8 °C 4,8 km/h (1 Bft)
18.10.2016 17:06 10,4 °C 10,4 °C 90 % 1021,0 hPa 0,0 mm 4,6 km/h (1 Bft) SW 233 ° 0 min 0,000 mm 0,0 UV-I 35 W/m² 8,8 °C 6,4 km/h (2 Bft)
18.10.2016 17:07 10,4 °C 10,4 °C 89 % 1020,9 hPa 0,0 mm 2,6 km/h (1 Bft) W-SW 246 ° 0 min 0,000 mm 0,0 UV-I 33 W/m² 8,7 °C 8,0 km/h (2 Bft)
18.10.2016 17:08 10,4 °C 10,4 °C 89 % 1020,9 hPa 0,0 mm 4,5 km/h (1 Bft) W-NW 286 ° 0 min 0,000 mm 0,0 UV-I 33 W/m² 8,7 °C 8,0 km/h (2 Bft)
18.10.2016 17:09 10,4 °C 10,4 °C 89 % 1020,9 hPa 0,0 mm 4,2 km/h (1 Bft) W-SW 244 ° 0 min 0,000 mm 0,0 UV-I 33 W/m² 8,7 °C 6,4 km/h (2 Bft)
18.10.2016 17:10 10,3 °C 10,4 °C 89 % 1021,0 hPa 0,0 mm 6,6 km/h (2 Bft) W-SW 257 ° 0 min 0,000 mm 0,0 UV-I 32 W/m² 8,6 °C 11,3 km/h (2 Bft)
18.10.2016 17:11 10,3 °C 10,3 °C 89 % 1021,0 hPa 0,0 mm 8,7 km/h (2 Bft) NW 312 ° 0 min 0,000 mm 0,0 UV-I 32 W/m² 8,6 °C 14,5 km/h (3 Bft)
18.10.2016 17:12 10,3 °C 10,3 °C 89 % 1021,0 hPa 0,0 mm 5,2 km/h (1 Bft) W 260 ° 0 min 0,000 mm 0,0 UV-I 32 W/m² 8,6 °C 9,7 km/h (2 Bft)
18.10.2016 17:13 10,3 °C 10,3 °C 89 % 1020,9 hPa 0,0 mm 5,2 km/h (1 Bft) W 265 ° 0 min 0,000 mm 0,0 UV-I 32 W/m² 8,6 °C 8,0 km/h (2 Bft)
18.10.2016 17:14 10,3 °C 10,3 °C 89 % 1021,0 hPa 0,0 mm 6,0 km/h (2 Bft) W-SW 254 ° 0 min 0,000 mm 0,0 UV-I 30 W/m² 8,6 °C 11,3 km/h (2 Bft)
18.10.2016 17:15 10,3 °C 10,3 °C 89 % 1021,0 hPa 0,0 mm 6,2 km/h (2 Bft) W-SW 245 ° 0 min 0,000 mm 0,0 UV-I 30 W/m² 8,6 °C 11,3 km/h (2 Bft)
18.10.2016 17:16 10,2 °C 10,3 °C 89 % 1021,0 hPa 0,0 mm 9,6 km/h (2 Bft) W-SW 256 ° 0 min 0,000 mm 0,0 UV-I 30 W/m² 8,5 °C 12,9 km/h (3 Bft)
18.10.2016 17:17 10,2 °C 10,3 °C 89 % 1021,1 hPa 0,0 mm 7,7 km/h (2 Bft) W 268 ° 0 min 0,000 mm 0,0 UV-I 30 W/m² 8,5 °C 12,9 km/h (3 Bft)
18.10.2016 17:18 10,2 °C 10,2 °C 89 % 1021,1 hPa 0,0 mm 5,1 km/h (1 Bft) W-SW 244 ° 0 min 0,000 mm 0,0 UV-I 28 W/m² 8,5 °C 9,7 km/h (2 Bft)
18.10.2016 17:19 10,2 °C 10,2 °C 88 % 1021,0 hPa 0,0 mm 5,7 km/h (1 Bft) W 278 ° 0 min 0,000 mm 0,0 UV-I 28 W/m² 8,3 °C 11,3 km/h (2 Bft)
18.10.2016 17:20 10,2 °C 10,2 °C 88 % 1021,0 hPa 0,0 mm 4,3 km/h (1 Bft) W-SW 257 ° 0 min 0,000 mm 0,0 UV-I 26 W/m² 8,3 °C 11,3 km/h (2 Bft)
18.10.2016 17:21 10,2 °C 10,2 °C 88 % 1021,1 hPa 0,0 mm 7,3 km/h (2 Bft) W 268 ° 0 min 0,000 mm 0,0 UV-I 26 W/m² 8,3 °C 12,9 km/h (3 Bft)
18.10.2016 17:22 10,3 °C 10,3 °C 87 % 1021,1 hPa 0,0 mm 7,3 km/h (2 Bft) W-SW 254 ° 0 min 0,000 mm 0,0 UV-I 26 W/m² 8,2 °C 11,3 km/h (2 Bft)
18.10.2016 17:23 10,3 °C 10,3 °C 87 % 1021,1 hPa 0,0 mm 8,2 km/h (2 Bft) W 273 ° 0 min 0,000 mm 0,0 UV-I 26 W/m² 8,2 °C 14,5 km/h (3 Bft)
18.10.2016 17:24 10,3 °C 10,3 °C 87 % 1021,1 hPa 0,0 mm 3,9 km/h (1 Bft) W 265 ° 0 min 0,000 mm 0,0 UV-I 25 W/m² 8,2 °C 4,8 km/h (1 Bft)
18.10.2016 17:25 10,3 °C 10,3 °C 87 % 1021,1 hPa 0,0 mm 3,6 km/h (1 Bft) W 259 ° 0 min 0,000 mm 0,0 UV-I 26 W/m² 8,2 °C 6,4 km/h (2 Bft)
18.10.2016 17:26 10,3 °C 10,3 °C 87 % 1021,1 hPa 0,0 mm 9,8 km/h (2 Bft) W-NW 285 ° 0 min 0,000 mm 0,0 UV-I 25 W/m² 8,2 °C 14,5 km/h (3 Bft)
18.10.2016 17:27 10,3 °C 10,3 °C 87 % 1021,1 hPa 0,0 mm 6,7 km/h (2 Bft) W 273 ° 0 min 0,000 mm 0,0 UV-I 25 W/m² 8,2 °C 11,3 km/h (2 Bft)
18.10.2016 17:28 10,3 °C 10,3 °C 87 % 1021,2 hPa 0,0 mm 7,0 km/h (2 Bft) S 172 ° 0 min 0,000 mm 0,0 UV-I 25 W/m² 8,2 °C 11,3 km/h (2 Bft)
18.10.2016 17:29 10,2 °C 10,3 °C 87 % 1021,2 hPa 0,0 mm 6,1 km/h (2 Bft) W-NW 295 ° 0 min 0,000 mm 0,0 UV-I 26 W/m² 8,1 °C 11,3 km/h (2 Bft)
18.10.2016 17:30 10,3 °C 10,3 °C 86 % 1021,2 hPa 0,0 mm 5,7 km/h (1 Bft) W 267 ° 0 min 0,000 mm 0,0 UV-I 26 W/m² 8,1 °C 14,5 km/h (3 Bft)
18.10.2016 17:31 10,3 °C 10,3 °C 86 % 1021,2 hPa 0,0 mm 8,4 km/h (2 Bft) W-SW 248 ° 0 min 0,000 mm 0,0 UV-I 26 W/m² 8,1 °C 12,9 km/h (3 Bft)
18.10.2016 17:32 10,3 °C 10,3 °C 85 % 1021,2 hPa 0,0 mm 6,9 km/h (2 Bft) W 281 ° 0 min 0,000 mm 0,0 UV-I 25 W/m² 7,9 °C 11,3 km/h (2 Bft)
18.10.2016 17:33 10,3 °C 10,3 °C 85 % 1021,2 hPa 0,0 mm 5,0 km/h (1 Bft) W-SW 254 ° 0 min 0,000 mm 0,0 UV-I 25 W/m² 7,9 °C 11,3 km/h (2 Bft)
18.10.2016 17:34 10,3 °C 10,3 °C 86 % 1021,2 hPa 0,0 mm 7,6 km/h (2 Bft) W 280 ° 0 min 0,000 mm 0,0 UV-I 25 W/m² 8,1 °C 12,9 km/h (3 Bft)
18.10.2016 17:35 10,2 °C 10,3 °C 86 % 1021,2 hPa 0,0 mm 10,6 km/h (2 Bft) W-NW 296 ° 0 min 0,000 mm 0,0 UV-I 26 W/m² 8,0 °C 16,1 km/h (3 Bft)
18.10.2016 17:36 10,2 °C 10,2 °C 86 % 1021,2 hPa 0,0 mm 6,0 km/h (2 Bft) W-NW 284 ° 0 min 0,000 mm 0,0 UV-I 26 W/m² 8,0 °C 6,4 km/h (2 Bft)
18.10.2016 17:37 10,2 °C 10,2 °C 85 % 1021,3 hPa 0,0 mm 4,6 km/h (1 Bft) W-NW 290 ° 0 min 0,000 mm 0,0 UV-I 26 W/m² 7,8 °C 6,4 km/h (2 Bft)
18.10.2016 17:38 10,2 °C 10,2 °C 86 % 1021,3 hPa 0,0 mm 5,2 km/h (1 Bft) W 267 ° 0 min 0,000 mm 0,0 UV-I 26 W/m² 8,0 °C 8,0 km/h (2 Bft)
18.10.2016 17:39 10,1 °C 10,2 °C 86 % 1021,3 hPa 0,0 mm 3,3 km/h (1 Bft) W-SW 242 ° 0 min 0,000 mm 0,0 UV-I 26 W/m² 7,9 °C 4,8 km/h (1 Bft)
18.10.2016 17:40 10,1 °C 10,1 °C 86 % 1021,3 hPa 0,0 mm 4,8 km/h (1 Bft) W-SW 257 ° 0 min 0,000 mm 0,0 UV-I 28 W/m² 7,9 °C 8,0 km/h (2 Bft)
18.10.2016 17:41 10,0 °C 10,1 °C 86 % 1021,3 hPa 0,0 mm 7,1 km/h (2 Bft) SW 230 ° 0 min 0,000 mm 0,0 UV-I 28 W/m² 7,8 °C 9,7 km/h (2 Bft)
18.10.2016 17:42 10,0 °C 10,0 °C 87 % 1021,3 hPa 0,0 mm 3,6 km/h (1 Bft) SW 232 ° 0 min 0,000 mm 0,0 UV-I 30 W/m² 7,9 °C 8,0 km/h (2 Bft)
18.10.2016 17:43 10,0 °C 10,0 °C 87 % 1021,3 hPa 0,0 mm 4,0 km/h (1 Bft) W 271 ° 0 min 0,000 mm 0,0 UV-I 30 W/m² 7,9 °C 6,4 km/h (2 Bft)
18.10.2016 17:44 9,9 °C 10,0 °C 87 % 1021,3 hPa 0,0 mm 5,6 km/h (1 Bft) W-NW 286 ° 0 min 0,000 mm 0,0 UV-I 30 W/m² 7,8 °C 11,3 km/h (2 Bft)
18.10.2016 17:45 9,9 °C 9,9 °C 87 % 1021,3 hPa 0,0 mm 3,1 km/h (1 Bft) S-SO 161 ° 0 min 0,000 mm 0,0 UV-I 28 W/m² 7,8 °C 6,4 km/h (2 Bft)
18.10.2016 17:46 9,9 °C 9,9 °C 87 % 1021,3 hPa 0,0 mm 1,9 km/h (1 Bft) S-SO 161 ° 0 min 0,000 mm 0,0 UV-I 28 W/m² 7,8 °C 3,2 km/h (1 Bft)
18.10.2016 17:47 9,9 °C 9,9 °C 87 % 1021,3 hPa 0,0 mm 5,3 km/h (1 Bft) W-SW 245 ° 0 min 0,000 mm 0,0 UV-I 28 W/m² 7,8 °C 8,0 km/h (2 Bft)
18.10.2016 17:48 9,8 °C 9,9 °C 87 % 1021,4 hPa 0,0 mm 3,6 km/h (1 Bft) SW 221 ° 0 min 0,000 mm 0,0 UV-I 28 W/m² 7,7 °C 8,0 km/h (2 Bft)
18.10.2016 17:49 9,8 °C 9,8 °C 87 % 1021,3 hPa 0,0 mm 1,9 km/h (1 Bft) SW 220 ° 0 min 0,000 mm 0,0 UV-I 28 W/m² 7,7 °C 3,2 km/h (1 Bft)
18.10.2016 17:50 9,9 °C 9,9 °C 87 % 1021,3 hPa 0,0 mm 2,9 km/h (1 Bft) S 174 ° 0 min 0,000 mm 0,0 UV-I 26 W/m² 7,8 °C 4,8 km/h (1 Bft)
18.10.2016 17:51 9,8 °C 9,9 °C 87 % 1021,3 hPa 0,0 mm 1,4 km/h (1 Bft) S 183 ° 0 min 0,000 mm 0,0 UV-I 26 W/m² 7,7 °C 3,2 km/h (1 Bft)
18.10.2016 17:52 9,8 °C 9,9 °C 87 % 1021,3 hPa 0,0 mm 1,9 km/h (1 Bft) SW 220 ° 0 min 0,000 mm 0,0 UV-I 26 W/m² 7,7 °C 3,2 km/h (1 Bft)
18.10.2016 17:53 9,8 °C 9,8 °C 87 % 1021,3 hPa 0,0 mm 1,1 km/h (1 Bft) SW 220 ° 0 min 0,000 mm 0,0 UV-I 25 W/m² 7,7 °C 3,2 km/h (1 Bft)
18.10.2016 17:54 9,8 °C 9,8 °C 88 % 1021,3 hPa 0,0 mm 4,2 km/h (1 Bft) W-SW 258 ° 0 min 0,000 mm 0,0 UV-I 25 W/m² 7,9 °C 8,0 km/h (2 Bft)
18.10.2016 17:55 9,8 °C 9,8 °C 88 % 1021,3 hPa 0,0 mm 2,5 km/h (1 Bft) W-SW 248 ° 0 min 0,000 mm 0,0 UV-I 23 W/m² 7,9 °C 4,8 km/h (1 Bft)
18.10.2016 17:56 9,8 °C 9,8 °C 88 % 1021,4 hPa 0,0 mm 2,2 km/h (1 Bft) W-SW 247 ° 0 min 0,000 mm 0,0 UV-I 21 W/m² 7,9 °C 3,2 km/h (1 Bft)
18.10.2016 17:57 9,7 °C 9,8 °C 88 % 1021,4 hPa 0,0 mm 4,8 km/h (1 Bft) SW 217 ° 0 min 0,000 mm 0,0 UV-I 21 W/m² 7,8 °C 6,4 km/h (2 Bft)
18.10.2016 17:58 9,7 °C 9,8 °C 88 % 1021,4 hPa 0,0 mm 4,0 km/h (1 Bft) W-SW 250 ° 0 min 0,000 mm 0,0 UV-I 19 W/m² 7,8 °C 4,8 km/h (1 Bft)
18.10.2016 17:59 9,7 °C 9,7 °C 88 % 1021,5 hPa 0,0 mm 2,7 km/h (1 Bft) W-SW 249 ° 0 min 0,000 mm 0,0 UV-I 18 W/m² 7,8 °C 4,8 km/h (1 Bft)
18.10.2016 18:00 9,7 °C 9,7 °C 88 % 1021,5 hPa 0,0 mm 1,6 km/h (1 Bft) W-NW 287 ° 0 min 0,000 mm 0,0 UV-I 18 W/m² 7,8 °C 3,2 km/h (1 Bft)
18.10.2016 18:01 9,7 °C 9,7 °C 88 % 1021,5 hPa 0,0 mm 2,6 km/h (1 Bft) W-SW 241 ° 0 min 0,025 mm 0,0 UV-I 14 W/m² 7,8 °C 4,8 km/h (1 Bft)
18.10.2016 18:02 9,7 °C 9,7 °C 88 % 1021,5 hPa 0,0 mm 5,8 km/h (2 Bft) W-SW 254 ° 0 min 0,000 mm 0,0 UV-I 14 W/m² 7,8 °C 8,0 km/h (2 Bft)
18.10.2016 18:03 9,6 °C 9,7 °C 88 % 1021,5 hPa 0,0 mm 4,8 km/h (1 Bft) W 260 ° 0 min 0,000 mm 0,0 UV-I 14 W/m² 7,7 °C 8,0 km/h (2 Bft)
18.10.2016 18:04 9,6 °C 9,6 °C 89 % 1021,5 hPa 0,0 mm 4,5 km/h (1 Bft) W-SW 250 ° 0 min 0,000 mm 0,0 UV-I 12 W/m² 7,9 °C 6,4 km/h (2 Bft)
18.10.2016 18:05 9,6 °C 9,6 °C 89 % 1021,6 hPa 0,0 mm 4,3 km/h (1 Bft) W-SW 256 ° 0 min 0,000 mm 0,0 UV-I 12 W/m² 7,9 °C 6,4 km/h (2 Bft)
18.10.2016 18:06 9,6 °C 9,6 °C 89 % 1021,5 hPa 0,0 mm 4,8 km/h (1 Bft) W-SW 250 ° 0 min 0,000 mm 0,0 UV-I 12 W/m² 7,9 °C 6,4 km/h (2 Bft)
18.10.2016 18:07 9,5 °C 9,6 °C 89 % 1021,6 hPa 0,0 mm 4,4 km/h (1 Bft) W-SW 252 ° 0 min 0,000 mm 0,0 UV-I 12 W/m² 7,8 °C 9,7 km/h (2 Bft)
18.10.2016 18:08 9,4 °C 9,5 °C 89 % 1021,6 hPa 0,0 mm 3,4 km/h (1 Bft) W-SW 244 ° 1 min 0,000 mm 0,0 UV-I 14 W/m² 7,7 °C 6,4 km/h (2 Bft)
18.10.2016 18:09 9,4 °C 9,4 °C 90 % 1021,6 hPa 0,0 mm 4,7 km/h (1 Bft) W 271 ° 1 min 0,000 mm 0,0 UV-I 14 W/m² 7,8 °C 6,4 km/h (2 Bft)
18.10.2016 18:10 9,4 °C 9,4 °C 90 % 1021,6 hPa 0,0 mm 5,3 km/h (1 Bft) W 263 ° 1 min 0,000 mm 0,0 UV-I 12 W/m² 7,8 °C 9,7 km/h (2 Bft)
18.10.2016 18:11 9,4 °C 9,4 °C 90 % 1021,6 hPa 0,0 mm 3,9 km/h (1 Bft) SW 223 ° 1 min 0,000 mm 0,0 UV-I 12 W/m² 7,8 °C 6,4 km/h (2 Bft)
18.10.2016 18:12 9,4 °C 9,4 °C 90 % 1021,6 hPa 0,0 mm 5,4 km/h (1 Bft) W 263 ° 0 min 0,000 mm 0,0 UV-I 11 W/m² 7,8 °C 9,7 km/h (2 Bft)
18.10.2016 18:13 9,4 °C 9,4 °C 90 % 1021,6 hPa 0,0 mm 5,2 km/h (1 Bft) W-SW 242 ° 0 min 0,000 mm 0,0 UV-I 9 W/m² 7,8 °C 8,0 km/h (2 Bft)
18.10.2016 18:14 9,4 °C 9,4 °C 90 % 1021,6 hPa 0,0 mm 2,7 km/h (1 Bft) W-SW 239 ° 0 min 0,000 mm 0,0 UV-I 7 W/m² 7,8 °C 3,2 km/h (1 Bft)
18.10.2016 18:15 9,4 °C 9,4 °C 90 % 1021,5 hPa 0,0 mm 2,6 km/h (1 Bft) S 186 ° 0 min 0,000 mm 0,0 UV-I 5 W/m² 7,8 °C 4,8 km/h (1 Bft)
18.10.2016 18:16 9,5 °C 9,5 °C 89 % 1021,6 hPa 0,0 mm 3,5 km/h (1 Bft) SW 215 ° 0 min 0,000 mm 0,0 UV-I 5 W/m² 7,8 °C 6,4 km/h (2 Bft)
18.10.2016 18:17 9,5 °C 9,6 °C 89 % 1021,5 hPa 0,0 mm 3,1 km/h (1 Bft) W-SW 246 ° 0 min 0,000 mm 0,0 UV-I 0 W/m² 7,8 °C 6,4 km/h (2 Bft)
18.10.2016 18:18 9,5 °C 9,6 °C 89 % 1021,5 hPa 0,0 mm 1,9 km/h (1 Bft) W-SW 247 ° 0 min 0,000 mm 0,0 UV-I 0 W/m² 7,8 °C 4,8 km/h (1 Bft)
18.10.2016 18:19 9,5 °C 9,6 °C 89 % 1021,5 hPa 0,0 mm 5,0 km/h (1 Bft) W-SW 242 ° 0 min 0,000 mm 0,0 UV-I 0 W/m² 7,8 °C 11,3 km/h (2 Bft)
18.10.2016 18:20 9,5 °C 9,5 °C 89 % 1021,4 hPa 0,0 mm 3,4 km/h (1 Bft) W-SW 242 ° 0 min 0,000 mm 0,0 UV-I 0 W/m² 7,8 °C 6,4 km/h (2 Bft)
18.10.2016 18:21 9,5 °C 9,5 °C 89 % 1021,4 hPa 0,0 mm 4,2 km/h (1 Bft) W-SW 241 ° 0 min 0,000 mm 0,0 UV-I 0 W/m² 7,8 °C 6,4 km/h (2 Bft)
18.10.2016 18:22 9,5 °C 9,5 °C 89 % 1021,5 hPa 0,0 mm 5,0 km/h (1 Bft) SW 230 ° 0 min 0,000 mm 0,0 UV-I 0 W/m² 7,8 °C 9,7 km/h (2 Bft)
18.10.2016 18:23 9,4 °C 9,5 °C 89 % 1021,5 hPa 0,0 mm 6,2 km/h (2 Bft) W-SW 250 ° 0 min 0,000 mm 0,0 UV-I 0 W/m² 7,7 °C 8,0 km/h (2 Bft)
18.10.2016 18:24 9,4 °C 9,4 °C 89 % 1021,5 hPa 0,0 mm 2,0 km/h (1 Bft) W-SW 252 ° 0 min 0,000 mm 0,0 UV-I 0 W/m² 7,7 °C 4,8 km/h (1 Bft)
18.10.2016 18:25 9,4 °C 9,4 °C 88 % 1021,5 hPa 0,0 mm 6,3 km/h (2 Bft) W-SW 248 ° 0 min 0,000 mm 0,0 UV-I 0 W/m² 7,5 °C 8,0 km/h (2 Bft)
18.10.2016 18:26 9,4 °C 9,4 °C 88 % 1021,5 hPa 0,0 mm 3,9 km/h (1 Bft) W 277 ° 0 min 0,000 mm 0,0 UV-I 0 W/m² 7,5 °C 12,9 km/h (3 Bft)
18.10.2016 18:27 9,4 °C 9,4 °C 88 % 1021,5 hPa 0,0 mm 5,1 km/h (1 Bft) S-SW 194 ° 0 min 0,000 mm 0,0 UV-I 0 W/m² 7,5 °C 9,7 km/h (2 Bft)
18.10.2016 18:28 9,4 °C 9,4 °C 88 % 1021,5 hPa 0,0 mm 3,1 km/h (1 Bft) W-SW 253 ° 0 min 0,000 mm 0,0 UV-I 0 W/m² 7,5 °C 6,4 km/h (2 Bft)
18.10.2016 18:29 9,4 °C 9,4 °C 88 % 1021,5 hPa 0,0 mm 5,4 km/h (1 Bft) SW 232 ° 0 min 0,000 mm 0,0 UV-I 0 W/m² 7,5 °C 9,7 km/h (2 Bft)
18.10.2016 18:30 9,4 °C 9,4 °C 88 % 1021,5 hPa 0,0 mm 3,3 km/h (1 Bft) SW 220 ° 0 min 0,000 mm 0,0 UV-I 0 W/m² 7,5 °C 4,8 km/h (1 Bft)
18.10.2016 18:31 9,4 °C 9,4 °C 88 % 1021,6 hPa 0,0 mm 1,6 km/h (1 Bft) SW 220 ° 0 min 0,000 mm 0,0 UV-I 0 W/m² 7,5 °C 3,2 km/h (1 Bft)
18.10.2016 18:32 9,4 °C 9,4 °C 88 % 1021,6 hPa 0,0 mm 1,4 km/h (1 Bft) W-NW 290 ° 0 min 0,000 mm 0,0 UV-I 0 W/m² 7,5 °C 3,2 km/h (1 Bft)
18.10.2016 18:33 9,3 °C 9,4 °C 88 % 1021,5 hPa 0,0 mm 3,0 km/h (1 Bft) W 260 ° 0 min 0,000 mm 0,0 UV-I 0 W/m² 7,4 °C 6,4 km/h (2 Bft)
18.10.2016 18:34 9,4 °C 9,4 °C 88 % 1021,5 hPa 0,0 mm 3,6 km/h (1 Bft) W 270 ° 0 min 0,000 mm 0,0 UV-I 0 W/m² 7,5 °C 6,4 km/h (2 Bft)
18.10.2016 18:35 9,4 °C 9,4 °C 88 % 1021,5 hPa 0,0 mm 2,2 km/h (1 Bft) W 261 ° 0 min 0,000 mm 0,0 UV-I 0 W/m² 7,5 °C 4,8 km/h (1 Bft)
18.10.2016 18:36 9,4 °C 9,4 °C 88 % 1021,5 hPa 0,0 mm 2,4 km/h (1 Bft) SW 228 ° 0 min 0,000 mm 0,0 UV-I 0 W/m² 7,5 °C 4,8 km/h (1 Bft)
18.10.2016 18:37 9,4 °C 9,4 °C 88 % 1021,5 hPa 0,0 mm 2,7 km/h (1 Bft) S-SW 213 ° 0 min 0,000 mm 0,0 UV-I 0 W/m² 7,5 °C 4,8 km/h (1 Bft)
18.10.2016 18:38 9,4 °C 9,4 °C 88 % 1021,6 hPa 0,0 mm 3,3 km/h (1 Bft) W-NW 283 ° 0 min 0,000 mm 0,0 UV-I 0 W/m² 7,5 °C 11,3 km/h (2 Bft)
18.10.2016 18:39 9,5 °C 9,5 °C 88 % 1021,6 hPa 0,0 mm 5,5 km/h (1 Bft) W-SW 250 ° 0 min 0,000 mm 0,0 UV-I 0 W/m² 7,6 °C 8,0 km/h (2 Bft)
18.10.2016 18:40 9,4 °C 9,5 °C 88 % 1021,6 hPa 0,0 mm 2,1 km/h (1 Bft) W-SW 251 ° 0 min 0,000 mm 0,0 UV-I 0 W/m² 7,5 °C 4,8 km/h (1 Bft)
18.10.2016 18:41 9,4 °C 9,4 °C 88 % 1021,6 hPa 0,0 mm 3,1 km/h (1 Bft) W-SW 251 ° 0 min 0,000 mm 0,0 UV-I 0 W/m² 7,5 °C 4,8 km/h (1 Bft)
18.10.2016 18:42 9,4 °C 9,4 °C 88 % 1021,6 hPa 0,0 mm 2,4 km/h (1 Bft) W-SW 251 ° 0 min 0,000 mm 0,0 UV-I 0 W/m² 7,5 °C 3,2 km/h (1 Bft)
18.10.2016 18:43 9,4 °C 9,4 °C 88 % 1021,6 hPa 0,0 mm 2,3 km/h (1 Bft) W-SW 251 ° 0 min 0,000 mm 0,0 UV-I 0 W/m² 7,5 °C 4,8 km/h (1 Bft)
18.10.2016 18:44 9,4 °C 9,4 °C 89 % 1021,6 hPa 0,0 mm 4,4 km/h (1 Bft) W 262 ° 0 min 0,000 mm 0,0 UV-I 0 W/m² 7,7 °C 4,8 km/h (1 Bft)
18.10.2016 18:45 9,4 °C 9,4 °C 89 % 1021,6 hPa 0,0 mm 4,4 km/h (1 Bft) W-SW 245 ° 0 min 0,000 mm 0,0 UV-I 0 W/m² 7,7 °C 6,4 km/h (2 Bft)
18.10.2016 18:46 9,3 °C 9,4 °C 89 % 1021,6 hPa 0,0 mm 4,4 km/h (1 Bft) W 272 ° 0 min 0,000 mm 0,0 UV-I 0 W/m² 7,6 °C 6,4 km/h (2 Bft)
18.10.2016 18:47 9,3 °C 9,4 °C 89 % 1021,7 hPa 0,0 mm 5,0 km/h (1 Bft) S-SW 211 ° 0 min 0,000 mm 0,0 UV-I 0 W/m² 7,6 °C 6,4 km/h (2 Bft)
18.10.2016 18:48 9,3 °C 9,3 °C 89 % 1021,6 hPa 0,0 mm 3,2 km/h (1 Bft) SW 236 ° 0 min 0,000 mm 0,0 UV-I 0 W/m² 7,6 °C 4,8 km/h (1 Bft)
18.10.2016 18:49 9,3 °C 9,3 °C 89 % 1021,7 hPa 0,0 mm 4,4 km/h (1 Bft) W-SW 238 ° 0 min 0,000 mm 0,0 UV-I 0 W/m² 7,6 °C 6,4 km/h (2 Bft)
18.10.2016 18:50 9,3 °C 9,3 °C 89 % 1021,7 hPa 0,0 mm 3,8 km/h (1 Bft) W-SW 247 ° 0 min 0,000 mm 0,0 UV-I 0 W/m² 7,6 °C 4,8 km/h (1 Bft)
18.10.2016 18:51 9,3 °C 9,3 °C 89 % 1021,7 hPa 0,0 mm 5,6 km/h (1 Bft) W 260 ° 0 min 0,000 mm 0,0 UV-I 0 W/m² 7,6 °C 9,7 km/h (2 Bft)
18.10.2016 18:52 9,3 °C 9,4 °C 88 % 1021,7 hPa 0,0 mm 3,9 km/h (1 Bft) SW 217 ° 0 min 0,000 mm 0,0 UV-I 0 W/m² 7,4 °C 6,4 km/h (2 Bft)
18.10.2016 18:53 9,4 °C 9,4 °C 88 % 1021,7 hPa 0,0 mm 6,5 km/h (2 Bft) W-SW 255 ° 0 min 0,000 mm 0,0 UV-I 0 W/m² 7,5 °C 11,3 km/h (2 Bft)
18.10.2016 18:54 9,4 °C 9,4 °C 88 % 1021,7 hPa 0,0 mm 7,8 km/h (2 Bft) W-SW 257 ° 0 min 0,000 mm 0,0 UV-I 0 W/m² 7,5 °C 9,7 km/h (2 Bft)
18.10.2016 18:55 9,4 °C 9,4 °C 88 % 1021,7 hPa 0,0 mm 4,7 km/h (1 Bft) W 277 ° 0 min 0,000 mm 0,0 UV-I 0 W/m² 7,5 °C 9,7 km/h (2 Bft)
18.10.2016 18:56 9,5 °C 9,5 °C 88 % 1021,7 hPa 0,0 mm 5,6 km/h (1 Bft) W-NW 288 ° 0 min 0,000 mm 0,0 UV-I 0 W/m² 7,6 °C 6,4 km/h (2 Bft)
18.10.2016 18:57 9,5 °C 9,6 °C 88 % 1021,7 hPa 0,0 mm 8,3 km/h (2 Bft) W 262 ° 0 min 0,000 mm 0,0 UV-I 0 W/m² 7,6 °C 12,9 km/h (3 Bft)
18.10.2016 18:58 9,5 °C 9,6 °C 88 % 1021,8 hPa 0,0 mm 5,6 km/h (1 Bft) W-SW 252 ° 0 min 0,000 mm 0,0 UV-I 0 W/m² 7,6 °C 11,3 km/h (2 Bft)
18.10.2016 18:59 9,6 °C 9,6 °C 88 % 1021,7 hPa 0,0 mm 3,0 km/h (1 Bft) W-SW 257 ° 0 min 0,000 mm 0,0 UV-I 0 W/m² 7,7 °C 6,4 km/h (2 Bft)
18.10.2016 19:00 9,5 °C 9,6 °C 88 % 1021,8 hPa 0,0 mm 5,8 km/h (2 Bft) W-NW 294 ° 0 min 0,000 mm 0,0 UV-I 0 W/m² 7,6 °C 9,7 km/h (2 Bft)
18.10.2016 19:01 9,4 °C 9,5 °C 88 % 1021,8 hPa 0,0 mm 6,8 km/h (2 Bft) W-NW 303 ° 0 min 0,000 mm 0,0 UV-I 0 W/m² 7,5 °C 9,7 km/h (2 Bft)
18.10.2016 19:02 9,4 °C 9,4 °C 89 % 1021,7 hPa 0,0 mm 4,0 km/h (1 Bft) W 273 ° 0 min 0,000 mm 0,0 UV-I 0 W/m² 7,7 °C 4,8 km/h (1 Bft)
18.10.2016 19:03 9,3 °C 9,4 °C 89 % 1021,7 hPa 0,0 mm 4,8 km/h (1 Bft) W-SW 242 ° 0 min 0,000 mm 0,0 UV-I 0 W/m² 7,6 °C 6,4 km/h (2 Bft)
18.10.2016 19:04 9,4 °C 9,4 °C 89 % 1021,7 hPa 0,0 mm 5,0 km/h (1 Bft) W 267 ° 0 min 0,000 mm 0,0 UV-I 0 W/m² 7,7 °C 8,0 km/h (2 Bft)
18.10.2016 19:05 9,4 °C 9,4 °C 89 % 1021,8 hPa 0,0 mm 5,6 km/h (1 Bft) W 270 ° 0 min 0,000 mm 0,0 UV-I 0 W/m² 7,7 °C 9,7 km/h (2 Bft)
18.10.2016 19:06 9,4 °C 9,4 °C 89 % 1021,8 hPa 0,0 mm 4,9 km/h (1 Bft) NW 313 ° 0 min 0,000 mm 0,0 UV-I 0 W/m² 7,7 °C 6,4 km/h (2 Bft)
18.10.2016 19:07 9,4 °C 9,4 °C 89 % 1021,8 hPa 0,0 mm 3,7 km/h (1 Bft) W 271 ° 0 min 0,000 mm 0,0 UV-I 0 W/m² 7,7 °C 6,4 km/h (2 Bft)
18.10.2016 19:08 9,4 °C 9,4 °C 89 % 1021,8 hPa 0,0 mm 3,4 km/h (1 Bft) W 273 ° 0 min 0,000 mm 0,0 UV-I 0 W/m² 7,7 °C 6,4 km/h (2 Bft)
18.10.2016 19:09 9,4 °C 9,4 °C 89 % 1021,9 hPa 0,0 mm 7,0 km/h (2 Bft) W 272 ° 0 min 0,000 mm 0,0 UV-I 0 W/m² 7,7 °C 11,3 km/h (2 Bft)
18.10.2016 19:10 9,4 °C 9,4 °C 89 % 1021,9 hPa 0,0 mm 3,6 km/h (1 Bft) W-NW 290 ° 0 min 0,000 mm 0,0 UV-I 0 W/m² 7,7 °C 6,4 km/h (2 Bft)
18.10.2016 19:11 9,4 °C 9,4 °C 89 % 1021,9 hPa 0,0 mm 2,5 km/h (1 Bft) W-NW 289 ° 0 min 0,000 mm 0,0 UV-I 0 W/m² 7,7 °C 3,2 km/h (1 Bft)
18.10.2016 19:12 9,4 °C 9,4 °C 89 % 1021,9 hPa 0,0 mm 2,0 km/h (1 Bft) W-NW 284 ° 0 min 0,000 mm 0,0 UV-I 0 W/m² 7,7 °C 4,8 km/h (1 Bft)
18.10.2016 19:13 9,4 °C 9,4 °C 89 % 1021,9 hPa 0,0 mm 4,2 km/h (1 Bft) W 261 ° 0 min 0,000 mm 0,0 UV-I 0 W/m² 7,7 °C 6,4 km/h (2 Bft)
18.10.2016 19:14 9,4 °C 9,4 °C 89 % 1021,9 hPa 0,0 mm 2,1 km/h (1 Bft) W 261 ° 0 min 0,000 mm 0,0 UV-I 0 W/m² 7,7 °C 3,2 km/h (1 Bft)
18.10.2016 19:15 9,3 °C 9,4 °C 89 % 1021,9 hPa 0,0 mm 3,2 km/h (1 Bft) W 279 ° 0 min 0,000 mm 0,0 UV-I 0 W/m² 7,6 °C 4,8 km/h (1 Bft)
18.10.2016 19:16 9,3 °C 9,3 °C 89 % 1021,9 hPa 0,0 mm 2,9 km/h (1 Bft) W-NW 290 ° 0 min 0,000 mm 0,0 UV-I 0 W/m² 7,6 °C 4,8 km/h (1 Bft)
18.10.2016 19:17 9,2 °C 9,3 °C 89 % 1021,9 hPa 0,0 mm 4,0 km/h (1 Bft) W-SW 253 ° 0 min 0,000 mm 0,0 UV-I 0 W/m² 7,5 °C 6,4 km/h (2 Bft)
18.10.2016 19:18 9,2 °C 9,2 °C 90 % 1021,9 hPa 0,0 mm 4,9 km/h (1 Bft) W 261 ° 0 min 0,000 mm 0,0 UV-I 0 W/m² 7,6 °C 6,4 km/h (2 Bft)
18.10.2016 19:19 9,1 °C 9,2 °C 89 % 1021,9 hPa 0,0 mm 2,7 km/h (1 Bft) W 279 ° 0 min 0,000 mm 0,0 UV-I 0 W/m² 7,4 °C 4,8 km/h (1 Bft)
18.10.2016 19:20 9,1 °C 9,1 °C 90 % 1021,9 hPa 0,0 mm 2,5 km/h (1 Bft) W-NW 284 ° 0 min 0,000 mm 0,0 UV-I 0 W/m² 7,5 °C 4,8 km/h (1 Bft)
18.10.2016 19:21 9,1 °C 9,1 °C 90 % 1021,9 hPa 0,0 mm 3,6 km/h (1 Bft) W 267 ° 0 min 0,000 mm 0,0 UV-I 0 W/m² 7,5 °C 6,4 km/h (2 Bft)
18.10.2016 19:22 9,0 °C 9,1 °C 90 % 1021,9 hPa 0,0 mm 2,1 km/h (1 Bft) W 267 ° 0 min 0,000 mm 0,0 UV-I 0 W/m² 7,4 °C 4,8 km/h (1 Bft)
18.10.2016 19:23 8,9 °C 9,0 °C 90 % 1021,9 hPa 0,0 mm 2,8 km/h (1 Bft) W 261 ° 0 min 0,000 mm 0,0 UV-I 0 W/m² 7,4 °C 6,4 km/h (2 Bft)
18.10.2016 19:24 8,9 °C 8,9 °C 90 % 1021,9 hPa 0,0 mm 3,5 km/h (1 Bft) W 275 ° 0 min 0,000 mm 0,0 UV-I 0 W/m² 7,4 °C 4,8 km/h (1 Bft)
18.10.2016 19:25 8,8 °C 8,9 °C 90 % 1021,9 hPa 0,0 mm 3,2 km/h (1 Bft) W-SW 258 ° 0 min 0,000 mm 0,0 UV-I 0 W/m² 7,3 °C 4,8 km/h (1 Bft)
18.10.2016 19:26 8,8 °C 8,8 °C 91 % 1021,9 hPa 0,0 mm 2,4 km/h (1 Bft) W-SW 239 ° 0 min 0,000 mm 0,0 UV-I 0 W/m² 7,4 °C 4,8 km/h (1 Bft)
18.10.2016 19:27 8,8 °C 8,8 °C 91 % 1021,9 hPa 0,0 mm 4,3 km/h (1 Bft) W-SW 237 ° 0 min 0,000 mm 0,0 UV-I 0 W/m² 7,4 °C 6,4 km/h (2 Bft)
18.10.2016 19:28 8,8 °C 8,8 °C 91 % 1021,9 hPa 0,0 mm 2,1 km/h (1 Bft) W-SW 238 ° 0 min 0,000 mm 0,0 UV-I 0 W/m² 7,4 °C 3,2 km/h (1 Bft)
18.10.2016 19:29 8,8 °C 8,8 °C 91 % 1021,9 hPa 0,0 mm 1,3 km/h (1 Bft) W-SW 238 ° 0 min 0,000 mm 0,0 UV-I 0 W/m² 7,4 °C 3,2 km/h (1 Bft)
18.10.2016 19:30 8,7 °C 8,8 °C 91 % 1021,9 hPa 0,0 mm 0,5 km/h (0 Bft) W-SW 238 ° 0 min 0,000 mm 0,0 UV-I 0 W/m² 7,3 °C 1,6 km/h (1 Bft)
18.10.2016 19:31 8,7 °C 8,7 °C 91 % 1021,9 hPa 0,0 mm 2,4 km/h (1 Bft) W-SW 237 ° 0 min 0,000 mm 0,0 UV-I 0 W/m² 7,3 °C 3,2 km/h (1 Bft)
18.10.2016 19:32 8,7 °C 8,7 °C 91 % 1022,0 hPa 0,0 mm 2,4 km/h (1 Bft) W-SW 237 ° 0 min 0,000 mm 0,0 UV-I 0 W/m² 7,3 °C 3,2 km/h (1 Bft)
18.10.2016 19:33 8,7 °C 8,7 °C 91 % 1021,9 hPa 0,0 mm 2,6 km/h (1 Bft) W-SW 237 ° 0 min 0,000 mm 0,0 UV-I 0 W/m² 7,3 °C 3,2 km/h (1 Bft)
18.10.2016 19:34 8,7 °C 8,7 °C 91 % 1021,9 hPa 0,0 mm 2,3 km/h (1 Bft) W-SW 237 ° 0 min 0,000 mm 0,0 UV-I 0 W/m² 7,3 °C 3,2 km/h (1 Bft)
18.10.2016 19:35 8,7 °C 8,7 °C 91 % 1021,9 hPa 0,0 mm 2,3 km/h (1 Bft) SW 214 ° 0 min 0,000 mm 0,0 UV-I 0 W/m² 7,3 °C 4,8 km/h (1 Bft)
18.10.2016 19:36 8,7 °C 8,7 °C 91 % 1021,9 hPa 0,0 mm 1,7 km/h (1 Bft) S-SW 205 ° 0 min 0,000 mm 0,0 UV-I 0 W/m² 7,3 °C 3,2 km/h (1 Bft)
18.10.2016 19:37 8,7 °C 8,7 °C 91 % 1021,9 hPa 0,0 mm 4,6 km/h (1 Bft) S 184 ° 0 min 0,000 mm 0,0 UV-I 0 W/m² 7,3 °C 6,4 km/h (2 Bft)
18.10.2016 19:38 8,7 °C 8,7 °C 91 % 1021,9 hPa 0,0 mm 3,1 km/h (1 Bft) S-SW 206 ° 0 min 0,000 mm 0,0 UV-I 0 W/m² 7,3 °C 4,8 km/h (1 Bft)
18.10.2016 19:39 8,6 °C 8,7 °C 91 % 1021,9 hPa 0,0 mm 3,0 km/h (1 Bft) S-SW 205 ° 0 min 0,000 mm 0,0 UV-I 0 W/m² 7,2 °C 3,2 km/h (1 Bft)
18.10.2016 19:40 8,6 °C 8,6 °C 91 % 1021,9 hPa 0,0 mm 3,5 km/h (1 Bft) S-SW 194 ° 0 min 0,000 mm 0,0 UV-I 0 W/m² 7,2 °C 4,8 km/h (1 Bft)
18.10.2016 19:41 8,4 °C 8,6 °C 91 % 1021,9 hPa 0,0 mm 2,5 km/h (1 Bft) S-SW 192 ° 0 min 0,000 mm 0,0 UV-I 0 W/m² 7,0 °C 4,8 km/h (1 Bft)
18.10.2016 19:42 8,4 °C 8,4 °C 91 % 1021,9 hPa 0,0 mm 2,1 km/h (1 Bft) S 191 ° 0 min 0,000 mm 0,0 UV-I 0 W/m² 7,0 °C 3,2 km/h (1 Bft)
18.10.2016 19:43 8,3 °C 8,4 °C 91 % 1021,9 hPa 0,0 mm 3,9 km/h (1 Bft) S 172 ° 0 min 0,000 mm 0,0 UV-I 0 W/m² 6,9 °C 6,4 km/h (2 Bft)
18.10.2016 19:44 8,3 °C 8,3 °C 92 % 1021,8 hPa 0,0 mm 5,4 km/h (1 Bft) S 186 ° 0 min 0,000 mm 0,0 UV-I 0 W/m² 7,1 °C 9,7 km/h (2 Bft)
18.10.2016 19:45 8,3 °C 8,3 °C 92 % 1021,8 hPa 0,0 mm 2,6 km/h (1 Bft) S 185 ° 0 min 0,000 mm 0,0 UV-I 0 W/m² 7,1 °C 4,8 km/h (1 Bft)
18.10.2016 19:46 8,3 °C 8,3 °C 92 % 1021,8 hPa 0,0 mm 3,2 km/h (1 Bft) S 185 ° 0 min 0,000 mm 0,0 UV-I 0 W/m² 7,1 °C 4,8 km/h (1 Bft)
18.10.2016 19:47 8,3 °C 8,3 °C 93 % 1021,8 hPa 0,0 mm 2,7 km/h (1 Bft) S 185 ° 0 min 0,000 mm 0,0 UV-I 0 W/m² 7,2 °C 3,2 km/h (1 Bft)
18.10.2016 19:48 8,3 °C 8,3 °C 93 % 1021,8 hPa 0,0 mm 2,0 km/h (1 Bft) S 185 ° 0 min 0,000 mm 0,0 UV-I 0 W/m² 7,2 °C 4,8 km/h (1 Bft)
18.10.2016 19:49 8,2 °C 8,3 °C 93 % 1021,8 hPa 0,0 mm 1,5 km/h (1 Bft) S 185 ° 0 min 0,000 mm 0,0 UV-I 0 W/m² 7,1 °C 1,6 km/h (1 Bft)
18.10.2016 19:50 8,2 °C 8,2 °C 92 % 1021,8 hPa 0,0 mm 1,1 km/h (1 Bft) S 185 ° 0 min 0,000 mm 0,0 UV-I 0 W/m² 7,0 °C 1,6 km/h (1 Bft)
18.10.2016 19:51 8,1 °C 8,2 °C 93 % 1021,8 hPa 0,0 mm 1,7 km/h (1 Bft) S 185 ° 0 min 0,000 mm 0,0 UV-I 0 W/m² 7,0 °C 3,2 km/h (1 Bft)
18.10.2016 19:52 8,1 °C 8,1 °C 93 % 1021,8 hPa 0,0 mm 1,4 km/h (1 Bft) S 185 ° 0 min 0,000 mm 0,0 UV-I 0 W/m² 7,0 °C 3,2 km/h (1 Bft)
18.10.2016 19:53 8,1 °C 8,1 °C 93 % 1021,7 hPa 0,0 mm 1,6 km/h (1 Bft) S 185 ° 0 min 0,000 mm 0,0 UV-I 0 W/m² 7,0 °C 3,2 km/h (1 Bft)
18.10.2016 19:54 8,0 °C 8,1 °C 93 % 1021,7 hPa 0,0 mm 2,2 km/h (1 Bft) S 185 ° 0 min 0,000 mm 0,0 UV-I 0 W/m² 6,9 °C 3,2 km/h (1 Bft)
18.10.2016 19:55 8,1 °C 8,1 °C 93 % 1021,7 hPa 0,0 mm 2,5 km/h (1 Bft) S 185 ° 0 min 0,000 mm 0,0 UV-I 0 W/m² 7,0 °C 4,8 km/h (1 Bft)
18.10.2016 19:56 8,0 °C 8,1 °C 93 % 1021,7 hPa 0,0 mm 2,3 km/h (1 Bft) S 185 ° 0 min 0,000 mm 0,0 UV-I 0 W/m² 6,9 °C 3,2 km/h (1 Bft)
18.10.2016 19:57 8,0 °C 8,1 °C 93 % 1021,7 hPa 0,0 mm 1,5 km/h (1 Bft) S 185 ° 0 min 0,000 mm 0,0 UV-I 0 W/m² 6,9 °C 3,2 km/h (1 Bft)
18.10.2016 19:58 8,0 °C 8,1 °C 93 % 1021,7 hPa 0,0 mm 1,5 km/h (1 Bft) S 185 ° 0 min 0,000 mm 0,0 UV-I 0 W/m² 6,9 °C 3,2 km/h (1 Bft)
18.10.2016 19:59 8,0 °C 8,0 °C 93 % 1021,7 hPa 0,0 mm 2,3 km/h (1 Bft) S 190 ° 0 min 0,000 mm 0,0 UV-I 0 W/m² 6,9 °C 4,8 km/h (1 Bft)
18.10.2016 20:00 7,9 °C 8,0 °C 93 % 1021,7 hPa 0,0 mm 2,2 km/h (1 Bft) S 188 ° 0 min 0,000 mm 0,0 UV-I 0 W/m² 6,8 °C 4,8 km/h (1 Bft)
18.10.2016 20:01 7,9 °C 8,0 °C 93 % 1021,6 hPa 0,0 mm 2,8 km/h (1 Bft) S 188 ° 0 min 0,000 mm 0,0 UV-I 0 W/m² 6,8 °C 4,8 km/h (1 Bft)
18.10.2016 20:02 7,9 °C 8,0 °C 93 % 1021,7 hPa 0,0 mm 1,7 km/h (1 Bft) S 188 ° 0 min 0,000 mm 0,0 UV-I 0 W/m² 6,8 °C 3,2 km/h (1 Bft)
18.10.2016 20:03 7,9 °C 7,9 °C 93 % 1021,7 hPa 0,0 mm 3,7 km/h (1 Bft) S 185 ° 0 min 0,000 mm 0,0 UV-I 0 W/m² 6,8 °C 4,8 km/h (1 Bft)
18.10.2016 20:04 8,0 °C 8,0 °C 93 % 1021,7 hPa 0,0 mm 1,4 km/h (1 Bft) S 185 ° 0 min 0,000 mm 0,0 UV-I 0 W/m² 6,9 °C 3,2 km/h (1 Bft)
18.10.2016 20:05 8,0 °C 8,0 °C 94 % 1021,7 hPa 0,0 mm 1,4 km/h (1 Bft) S 185 ° 0 min 0,000 mm 0,0 UV-I 0 W/m² 7,1 °C 1,6 km/h (1 Bft)
18.10.2016 20:06 8,0 °C 8,1 °C 94 % 1021,6 hPa 0,0 mm 1,7 km/h (1 Bft) S 183 ° 0 min 0,000 mm 0,0 UV-I 0 W/m² 7,1 °C 3,2 km/h (1 Bft)
18.10.2016 20:07 8,0 °C 8,0 °C 93 % 1021,6 hPa 0,0 mm 1,4 km/h (1 Bft) S 183 ° 0 min 0,000 mm 0,0 UV-I 0 W/m² 6,9 °C 3,2 km/h (1 Bft)
18.10.2016 20:08 8,0 °C 8,0 °C 94 % 1021,6 hPa 0,0 mm 1,0 km/h (0 Bft) S 183 ° 0 min 0,000 mm 0,0 UV-I 0 W/m² 7,1 °C 1,6 km/h (1 Bft)
18.10.2016 20:09 8,0 °C 8,0 °C 94 % 1021,6 hPa 0,0 mm 1,0 km/h (0 Bft) S 183 ° 0 min 0,000 mm 0,0 UV-I 0 W/m² 7,1 °C 1,6 km/h (1 Bft)
18.10.2016 20:10 8,0 °C 8,0 °C 94 % 1021,7 hPa 0,0 mm 1,4 km/h (1 Bft) S 183 ° 0 min 0,000 mm 0,0 UV-I 0 W/m² 7,1 °C 3,2 km/h (1 Bft)
18.10.2016 20:11 8,0 °C 8,0 °C 94 % 1021,6 hPa 0,0 mm 2,4 km/h (1 Bft) S 183 ° 0 min 0,000 mm 0,0 UV-I 0 W/m² 7,1 °C 3,2 km/h (1 Bft)
18.10.2016 20:12 8,1 °C 8,1 °C 94 % 1021,7 hPa 0,0 mm 2,7 km/h (1 Bft) S 184 ° 0 min 0,000 mm 0,0 UV-I 0 W/m² 7,2 °C 4,8 km/h (1 Bft)
18.10.2016 20:13 8,1 °C 8,1 °C 94 % 1021,6 hPa 0,0 mm 2,6 km/h (1 Bft) S 184 ° 0 min 0,000 mm 0,0 UV-I 0 W/m² 7,2 °C 3,2 km/h (1 Bft)
18.10.2016 20:14 8,1 °C 8,1 °C 94 % 1021,6 hPa 0,0 mm 1,2 km/h (1 Bft) S 184 ° 0 min 0,000 mm 0,0 UV-I 0 W/m² 7,2 °C 1,6 km/h (1 Bft)
18.10.2016 20:15 8,2 °C 8,2 °C 94 % 1021,6 hPa 0,0 mm 0,9 km/h (0 Bft) S 184 ° 0 min 0,000 mm 0,0 UV-I 0 W/m² 7,3 °C 3,2 km/h (1 Bft)
18.10.2016 20:16 8,1 °C 8,2 °C 94 % 1021,5 hPa 0,0 mm 0,5 km/h (0 Bft) S 184 ° 0 min 0,000 mm 0,0 UV-I 0 W/m² 7,2 °C 3,2 km/h (1 Bft)
18.10.2016 20:17 8,1 °C 8,1 °C 94 % 1021,6 hPa 0,0 mm 4,6 km/h (1 Bft) S 188 ° 0 min 0,000 mm 0,0 UV-I 0 W/m² 7,2 °C 8,0 km/h (2 Bft)
18.10.2016 20:18 8,1 °C 8,1 °C 94 % 1021,5 hPa 0,0 mm 3,5 km/h (1 Bft) S-SW 200 ° 0 min 0,000 mm 0,0 UV-I 0 W/m² 7,2 °C 6,4 km/h (2 Bft)
18.10.2016 20:19 8,1 °C 8,2 °C 93 % 1021,6 hPa 0,0 mm 3,6 km/h (1 Bft) S 189 ° 0 min 0,000 mm 0,0 UV-I 0 W/m² 7,0 °C 4,8 km/h (1 Bft)
18.10.2016 20:20 8,2 °C 8,2 °C 93 % 1021,5 hPa 0,0 mm 4,2 km/h (1 Bft) S 190 ° 0 min 0,000 mm 0,0 UV-I 0 W/m² 7,1 °C 6,4 km/h (2 Bft)
18.10.2016 20:21 8,2 °C 8,2 °C 93 % 1021,6 hPa 0,0 mm 2,7 km/h (1 Bft) S 190 ° 0 min 0,000 mm 0,0 UV-I 0 W/m² 7,1 °C 3,2 km/h (1 Bft)
18.10.2016 20:22 8,2 °C 8,2 °C 93 % 1021,5 hPa 0,0 mm 2,1 km/h (1 Bft) S 190 ° 0 min 0,000 mm 0,0 UV-I 0 W/m² 7,1 °C 4,8 km/h (1 Bft)
18.10.2016 20:23 8,2 °C 8,2 °C 93 % 1021,6 hPa 0,0 mm 3,1 km/h (1 Bft) S-SW 192 ° 0 min 0,000 mm 0,0 UV-I 0 W/m² 7,1 °C 4,8 km/h (1 Bft)
18.10.2016 20:24 8,1 °C 8,2 °C 93 % 1021,5 hPa 0,0 mm 1,2 km/h (1 Bft) S 185 ° 0 min 0,000 mm 0,0 UV-I 0 W/m² 7,0 °C 1,6 km/h (1 Bft)
18.10.2016 20:25 8,0 °C 8,1 °C 93 % 1021,5 hPa 0,0 mm 3,4 km/h (1 Bft) S 186 ° 0 min 0,000 mm 0,0 UV-I 0 W/m² 6,9 °C 4,8 km/h (1 Bft)
18.10.2016 20:26 8,1 °C 8,1 °C 93 % 1021,5 hPa 0,0 mm 4,4 km/h (1 Bft) S 183 ° 0 min 0,000 mm 0,0 UV-I 0 W/m² 7,0 °C 6,4 km/h (2 Bft)
18.10.2016 20:27 8,0 °C 8,1 °C 93 % 1021,5 hPa 0,0 mm 2,5 km/h (1 Bft) S 183 ° 0 min 0,000 mm 0,0 UV-I 0 W/m² 6,9 °C 3,2 km/h (1 Bft)
18.10.2016 20:28 8,0 °C 8,1 °C 93 % 1021,6 hPa 0,0 mm 2,5 km/h (1 Bft) S 183 ° 0 min 0,000 mm 0,0 UV-I 0 W/m² 6,9 °C 4,8 km/h (1 Bft)
18.10.2016 20:29 8,0 °C 8,1 °C 93 % 1021,5 hPa 0,0 mm 1,9 km/h (1 Bft) S 183 ° 0 min 0,000 mm 0,0 UV-I 0 W/m² 6,9 °C 4,8 km/h (1 Bft)
18.10.2016 20:30 8,0 °C 8,1 °C 93 % 1021,5 hPa 0,0 mm 3,2 km/h (1 Bft) S 182 ° 0 min 0,000 mm 0,0 UV-I 0 W/m² 6,9 °C 4,8 km/h (1 Bft)
18.10.2016 20:31 8,0 °C 8,1 °C 94 % 1021,5 hPa 0,0 mm 2,5 km/h (1 Bft) S 182 ° 0 min 0,000 mm 0,0 UV-I 0 W/m² 7,1 °C 3,2 km/h (1 Bft)
18.10.2016 20:32 7,9 °C 8,0 °C 93 % 1021,5 hPa 0,0 mm 2,4 km/h (1 Bft) S 182 ° 0 min 0,000 mm 0,0 UV-I 0 W/m² 6,8 °C 4,8 km/h (1 Bft)
18.10.2016 20:33 7,8 °C 7,9 °C 93 % 1021,5 hPa 0,0 mm 1,6 km/h (1 Bft) S 182 ° 0 min 0,000 mm 0,0 UV-I 0 W/m² 6,7 °C 3,2 km/h (1 Bft)
18.10.2016 20:34 7,8 °C 7,8 °C 93 % 1021,5 hPa 0,0 mm 3,4 km/h (1 Bft) S 185 ° 0 min 0,000 mm 0,0 UV-I 0 W/m² 6,7 °C 4,8 km/h (1 Bft)
18.10.2016 20:35 7,9 °C 7,9 °C 93 % 1021,5 hPa 0,0 mm 2,8 km/h (1 Bft) S 184 ° 0 min 0,000 mm 0,0 UV-I 0 W/m² 6,8 °C 4,8 km/h (1 Bft)
18.10.2016 20:36 7,8 °C 7,9 °C 93 % 1021,5 hPa 0,0 mm 3,2 km/h (1 Bft) S 186 ° 0 min 0,000 mm 0,0 UV-I 0 W/m² 6,7 °C 4,8 km/h (1 Bft)
18.10.2016 20:37 7,8 °C 7,8 °C 93 % 1021,6 hPa 0,0 mm 3,0 km/h (1 Bft) S-SW 195 ° 0 min 0,000 mm 0,0 UV-I 0 W/m² 6,7 °C 4,8 km/h (1 Bft)
18.10.2016 20:38 7,8 °C 7,8 °C 93 % 1021,6 hPa 0,0 mm 4,0 km/h (1 Bft) S 188 ° 0 min 0,000 mm 0,0 UV-I 0 W/m² 6,7 °C 6,4 km/h (2 Bft)
18.10.2016 20:39 7,8 °C 7,8 °C 93 % 1021,5 hPa 0,0 mm 2,9 km/h (1 Bft) S 185 ° 0 min 0,000 mm 0,0 UV-I 0 W/m² 6,7 °C 4,8 km/h (1 Bft)
18.10.2016 20:40 7,8 °C 7,8 °C 93 % 1021,5 hPa 0,0 mm 2,7 km/h (1 Bft) S 185 ° 0 min 0,000 mm 0,0 UV-I 0 W/m² 6,7 °C 3,2 km/h (1 Bft)
18.10.2016 20:41 7,9 °C 7,9 °C 93 % 1021,5 hPa 0,0 mm 2,3 km/h (1 Bft) S 191 ° 0 min 0,000 mm 0,0 UV-I 0 W/m² 6,8 °C 4,8 km/h (1 Bft)
18.10.2016 20:42 7,9 °C 7,9 °C 93 % 1021,5 hPa 0,0 mm 3,0 km/h (1 Bft) S 188 ° 0 min 0,000 mm 0,0 UV-I 0 W/m² 6,8 °C 4,8 km/h (1 Bft)
18.10.2016 20:43 8,0 °C 8,0 °C 92 % 1021,4 hPa 0,0 mm 3,1 km/h (1 Bft) S 189 ° 0 min 0,000 mm 0,0 UV-I 0 W/m² 6,8 °C 4,8 km/h (1 Bft)
18.10.2016 20:44 8,0 °C 8,0 °C 93 % 1021,4 hPa 0,0 mm 1,9 km/h (1 Bft) S 189 ° 0 min 0,000 mm 0,0 UV-I 0 W/m² 6,9 °C 3,2 km/h (1 Bft)
18.10.2016 20:45 8,0 °C 8,0 °C 93 % 1021,4 hPa 0,0 mm 0,9 km/h (0 Bft) S 189 ° 0 min 0,000 mm 0,0 UV-I 0 W/m² 6,9 °C 3,2 km/h (1 Bft)
18.10.2016 20:46 7,9 °C 8,0 °C 93 % 1021,5 hPa 0,0 mm 0,9 km/h (0 Bft) S 189 ° 0 min 0,000 mm 0,0 UV-I 0 W/m² 6,8 °C 1,6 km/h (1 Bft)
18.10.2016 20:47 7,9 °C 7,9 °C 93 % 1021,5 hPa 0,0 mm 0,4 km/h (0 Bft) S 189 ° 0 min 0,000 mm 0,0 UV-I 0 W/m² 6,8 °C 1,6 km/h (1 Bft)
18.10.2016 20:48 7,9 °C 7,9 °C 92 % 1021,5 hPa 0,0 mm 2,9 km/h (1 Bft) S 189 ° 0 min 0,000 mm 0,0 UV-I 0 W/m² 6,7 °C 4,8 km/h (1 Bft)
18.10.2016 20:49 7,8 °C 7,9 °C 93 % 1021,5 hPa 0,0 mm 2,7 km/h (1 Bft) S 186 ° 0 min 0,000 mm 0,0 UV-I 0 W/m² 6,7 °C 4,8 km/h (1 Bft)
18.10.2016 20:50 7,8 °C 7,8 °C 93 % 1021,5 hPa 0,0 mm 1,5 km/h (1 Bft) S 186 ° 0 min 0,000 mm 0,0 UV-I 0 W/m² 6,7 °C 1,6 km/h (1 Bft)
18.10.2016 20:51 7,8 °C 7,9 °C 93 % 1021,4 hPa 0,0 mm 1,7 km/h (1 Bft) S 186 ° 0 min 0,000 mm 0,0 UV-I 0 W/m² 6,7 °C 3,2 km/h (1 Bft)
18.10.2016 20:52 7,9 °C 7,9 °C 93 % 1021,4 hPa 0,0 mm 1,7 km/h (1 Bft) S 186 ° 0 min 0,000 mm 0,0 UV-I 0 W/m² 6,8 °C 3,2 km/h (1 Bft)
18.10.2016 20:53 7,9 °C 7,9 °C 93 % 1021,4 hPa 0,0 mm 0,7 km/h (0 Bft) S 186 ° 0 min 0,000 mm 0,0 UV-I 0 W/m² 6,8 °C 3,2 km/h (1 Bft)
18.10.2016 20:54 7,8 °C 7,9 °C 93 % 1021,4 hPa 0,0 mm 0,2 km/h (0 Bft) S 186 ° 0 min 0,000 mm 0,0 UV-I 0 W/m² 6,7 °C 1,6 km/h (1 Bft)
18.10.2016 20:55 7,8 °C 7,8 °C 93 % 1021,4 hPa 0,0 mm 0,5 km/h (0 Bft) S 186 ° 0 min 0,000 mm 0,0 UV-I 0 W/m² 6,7 °C 1,6 km/h (1 Bft)
18.10.2016 20:56 7,8 °C 7,8 °C 93 % 1021,4 hPa 0,0 mm 0,0 km/h (0 Bft) S 186 ° 0 min 0,000 mm 0,0 UV-I 0 W/m² 6,7 °C 0,0 km/h (0 Bft)
18.10.2016 20:57 7,8 °C 7,8 °C 93 % 1021,4 hPa 0,0 mm 0,5 km/h (0 Bft) S 186 ° 0 min 0,000 mm 0,0 UV-I 0 W/m² 6,7 °C 1,6 km/h (1 Bft)
18.10.2016 20:58 7,8 °C 7,8 °C 93 % 1021,4 hPa 0,0 mm 0,6 km/h (0 Bft) S 186 ° 0 min 0,000 mm 0,0 UV-I 0 W/m² 6,7 °C 1,6 km/h (1 Bft)
18.10.2016 20:59 7,8 °C 7,8 °C 93 % 1021,4 hPa 0,0 mm 0,2 km/h (0 Bft) S 186 ° 0 min 0,000 mm 0,0 UV-I 0 W/m² 6,7 °C 1,6 km/h (1 Bft)
18.10.2016 21:00 7,8 °C 7,8 °C 93 % 1021,4 hPa 0,0 mm 0,5 km/h (0 Bft) S 186 ° 0 min 0,000 mm 0,0 UV-I 0 W/m² 6,7 °C 1,6 km/h (1 Bft)
18.10.2016 21:01 7,7 °C 7,8 °C 92 % 1021,4 hPa 0,0 mm 0,7 km/h (0 Bft) S 186 ° 0 min 0,000 mm 0,0 UV-I 0 W/m² 6,5 °C 1,6 km/h (1 Bft)
18.10.2016 21:02 7,5 °C 7,7 °C 92 % 1021,4 hPa 0,0 mm 0,0 km/h (0 Bft) S 186 ° 0 min 0,000 mm 0,0 UV-I 0 W/m² 6,3 °C 0,0 km/h (0 Bft)
18.10.2016 21:03 7,4 °C 7,5 °C 92 % 1021,5 hPa 0,0 mm 0,5 km/h (0 Bft) S 186 ° 0 min 0,000 mm 0,0 UV-I 0 W/m² 6,2 °C 1,6 km/h (1 Bft)
18.10.2016 21:04 7,2 °C 7,4 °C 92 % 1021,4 hPa 0,0 mm 1,3 km/h (1 Bft) S 186 ° 0 min 0,000 mm 0,0 UV-I 0 W/m² 6,0 °C 1,6 km/h (1 Bft)
18.10.2016 21:05 7,2 °C 7,2 °C 92 % 1021,4 hPa 0,0 mm 0,2 km/h (0 Bft) S 186 ° 0 min 0,000 mm 0,0 UV-I 0 W/m² 6,0 °C 1,6 km/h (1 Bft)
18.10.2016 21:06 7,1 °C 7,2 °C 93 % 1021,4 hPa 0,0 mm 0,0 km/h (0 Bft) S 186 ° 0 min 0,000 mm 0,0 UV-I 0 W/m² 6,0 °C 0,0 km/h (0 Bft)
18.10.2016 21:07 7,1 °C 7,1 °C 93 % 1021,4 hPa 0,0 mm 0,3 km/h (0 Bft) S 186 ° 0 min 0,000 mm 0,0 UV-I 0 W/m² 6,0 °C 1,6 km/h (1 Bft)
18.10.2016 21:08 7,1 °C 7,1 °C 93 % 1021,4 hPa 0,0 mm 0,7 km/h (0 Bft) S 186 ° 0 min 0,000 mm 0,0 UV-I 0 W/m² 6,0 °C 1,6 km/h (1 Bft)
18.10.2016 21:09 7,1 °C 7,1 °C 94 % 1021,4 hPa 0,0 mm 0,1 km/h (0 Bft) S 186 ° 0 min 0,000 mm 0,0 UV-I 0 W/m² 6,2 °C 1,6 km/h (1 Bft)
18.10.2016 21:10 7,1 °C 7,1 °C 94 % 1021,5 hPa 0,0 mm 0,0 km/h (0 Bft) S 186 ° 0 min 0,000 mm 0,0 UV-I 0 W/m² 6,2 °C 0,0 km/h (0 Bft)
18.10.2016 21:11 7,0 °C 7,1 °C 94 % 1021,5 hPa 0,0 mm 0,6 km/h (0 Bft) S 186 ° 0 min 0,000 mm 0,0 UV-I 0 W/m² 6,1 °C 1,6 km/h (1 Bft)
18.10.2016 21:12 6,9 °C 7,0 °C 93 % 1021,5 hPa 0,0 mm 0,4 km/h (0 Bft) S 186 ° 0 min 0,000 mm 0,0 UV-I 0 W/m² 5,8 °C 1,6 km/h (1 Bft)
18.10.2016 21:13 6,8 °C 6,9 °C 93 % 1021,5 hPa 0,0 mm 0,0 km/h (0 Bft) S 186 ° 0 min 0,000 mm 0,0 UV-I 0 W/m² 5,7 °C 0,0 km/h (0 Bft)
18.10.2016 21:14 6,8 °C 6,8 °C 93 % 1021,5 hPa 0,0 mm 0,0 km/h (0 Bft) S 186 ° 0 min 0,000 mm 0,0 UV-I 0 W/m² 5,7 °C 0,0 km/h (0 Bft)
18.10.2016 21:15 6,8 °C 6,8 °C 94 % 1021,6 hPa 0,0 mm 1,0 km/h (0 Bft) S 186 ° 0 min 0,000 mm 0,0 UV-I 0 W/m² 5,9 °C 1,6 km/h (1 Bft)
18.10.2016 21:16 6,8 °C 6,8 °C 94 % 1021,5 hPa 0,0 mm 1,1 km/h (1 Bft) S 186 ° 0 min 0,000 mm 0,0 UV-I 0 W/m² 5,9 °C 1,6 km/h (1 Bft)
18.10.2016 21:17 6,8 °C 6,8 °C 94 % 1021,5 hPa 0,0 mm 0,7 km/h (0 Bft) S 186 ° 0 min 0,000 mm 0,0 UV-I 0 W/m² 5,9 °C 1,6 km/h (1 Bft)
18.10.2016 21:18 6,8 °C 6,9 °C 94 % 1021,5 hPa 0,0 mm 0,7 km/h (0 Bft) S 186 ° 0 min 0,000 mm 0,0 UV-I 0 W/m² 5,9 °C 1,6 km/h (1 Bft)
18.10.2016 21:19 6,9 °C 6,9 °C 95 % 1021,5 hPa 0,0 mm 0,0 km/h (0 Bft) S 186 ° 0 min 0,000 mm 0,0 UV-I 0 W/m² 6,2 °C 0,0 km/h (0 Bft)
18.10.2016 21:20 6,9 °C 6,9 °C 95 % 1021,5 hPa 0,0 mm 0,1 km/h (0 Bft) S 186 ° 0 min 0,000 mm 0,0 UV-I 0 W/m² 6,2 °C 1,6 km/h (1 Bft)
18.10.2016 21:21 6,9 °C 6,9 °C 95 % 1021,5 hPa 0,0 mm 0,0 km/h (0 Bft) S 186 ° 0 min 0,000 mm 0,0 UV-I 0 W/m² 6,2 °C 0,0 km/h (0 Bft)
18.10.2016 21:22 6,9 °C 6,9 °C 94 % 1021,5 hPa 0,0 mm 0,7 km/h (0 Bft) S 186 ° 0 min 0,000 mm 0,0 UV-I 0 W/m² 6,0 °C 3,2 km/h (1 Bft)
18.10.2016 21:23 7,1 °C 7,1 °C 95 % 1021,6 hPa 0,0 mm 2,9 km/h (1 Bft) S 186 ° 0 min 0,000 mm 0,0 UV-I 0 W/m² 6,4 °C 4,8 km/h (1 Bft)
18.10.2016 21:24 7,1 °C 7,1 °C 95 % 1021,5 hPa 0,0 mm 2,8 km/h (1 Bft) S 186 ° 0 min 0,000 mm 0,0 UV-I 0 W/m² 6,4 °C 4,8 km/h (1 Bft)
18.10.2016 21:25 7,1 °C 7,1 °C 95 % 1021,5 hPa 0,0 mm 2,9 km/h (1 Bft) S 185 ° 0 min 0,000 mm 0,0 UV-I 0 W/m² 6,4 °C 4,8 km/h (1 Bft)
18.10.2016 21:26 7,2 °C 7,2 °C 95 % 1021,5 hPa 0,0 mm 2,0 km/h (1 Bft) S 185 ° 0 min 0,000 mm 0,0 UV-I 0 W/m² 6,5 °C 3,2 km/h (1 Bft)
18.10.2016 21:27 7,2 °C 7,2 °C 95 % 1021,5 hPa 0,0 mm 3,4 km/h (1 Bft) S-SW 192 ° 0 min 0,000 mm 0,0 UV-I 0 W/m² 6,5 °C 4,8 km/h (1 Bft)
18.10.2016 21:28 7,2 °C 7,2 °C 95 % 1021,5 hPa 0,0 mm 2,4 km/h (1 Bft) S 191 ° 0 min 0,000 mm 0,0 UV-I 0 W/m² 6,5 °C 3,2 km/h (1 Bft)
18.10.2016 21:29 7,3 °C 7,3 °C 95 % 1021,5 hPa 0,0 mm 1,2 km/h (1 Bft) S 191 ° 0 min 0,000 mm 0,0 UV-I 0 W/m² 6,6 °C 1,6 km/h (1 Bft)
18.10.2016 21:30 7,3 °C 7,3 °C 95 % 1021,5 hPa 0,0 mm 1,5 km/h (1 Bft) S 188 ° 0 min 0,000 mm 0,0 UV-I 0 W/m² 6,6 °C 3,2 km/h (1 Bft)
18.10.2016 21:31 7,4 °C 7,4 °C 95 % 1021,5 hPa 0,0 mm 0,5 km/h (0 Bft) S 188 ° 0 min 0,000 mm 0,0 UV-I 0 W/m² 6,7 °C 1,6 km/h (1 Bft)
18.10.2016 21:32 7,4 °C 7,4 °C 95 % 1021,5 hPa 0,0 mm 0,1 km/h (0 Bft) S 188 ° 0 min 0,000 mm 0,0 UV-I 0 W/m² 6,7 °C 1,6 km/h (1 Bft)
18.10.2016 21:33 7,4 °C 7,4 °C 95 % 1021,5 hPa 0,0 mm 0,3 km/h (0 Bft) S 188 ° 0 min 0,000 mm 0,0 UV-I 0 W/m² 6,7 °C 1,6 km/h (1 Bft)
18.10.2016 21:34 7,4 °C 7,4 °C 95 % 1021,5 hPa 0,0 mm 0,0 km/h (0 Bft) S 188 ° 0 min 0,000 mm 0,0 UV-I 0 W/m² 6,7 °C 0,0 km/h (0 Bft)
18.10.2016 21:35 7,5 °C 7,5 °C 95 % 1021,5 hPa 0,0 mm 1,3 km/h (1 Bft) S 188 ° 0 min 0,000 mm 0,0 UV-I 0 W/m² 6,8 °C 3,2 km/h (1 Bft)
18.10.2016 21:36 7,5 °C 7,5 °C 95 % 1021,5 hPa 0,0 mm 2,5 km/h (1 Bft) S 188 ° 0 min 0,000 mm 0,0 UV-I 0 W/m² 6,8 °C 3,2 km/h (1 Bft)
18.10.2016 21:37 7,6 °C 7,6 °C 95 % 1021,5 hPa 0,0 mm 1,5 km/h (1 Bft) S 188 ° 0 min 0,000 mm 0,0 UV-I 0 W/m² 6,9 °C 1,6 km/h (1 Bft)
18.10.2016 21:38 7,6 °C 7,6 °C 95 % 1021,5 hPa 0,0 mm 1,5 km/h (1 Bft) S 188 ° 0 min 0,000 mm 0,0 UV-I 0 W/m² 6,9 °C 3,2 km/h (1 Bft)
18.10.2016 21:39 7,6 °C 7,6 °C 95 % 1021,5 hPa 0,0 mm 0,2 km/h (0 Bft) S 188 ° 0 min 0,000 mm 0,0 UV-I 0 W/m² 6,9 °C 1,6 km/h (1 Bft)
18.10.2016 21:40 7,6 °C 7,7 °C 95 % 1021,5 hPa 0,0 mm 2,4 km/h (1 Bft) S 188 ° 0 min 0,000 mm 0,0 UV-I 0 W/m² 6,9 °C 3,2 km/h (1 Bft)
18.10.2016 21:41 7,7 °C 7,7 °C 95 % 1021,5 hPa 0,0 mm 1,5 km/h (1 Bft) S 188 ° 0 min 0,000 mm 0,0 UV-I 0 W/m² 7,0 °C 3,2 km/h (1 Bft)
18.10.2016 21:42 7,7 °C 7,7 °C 95 % 1021,5 hPa 0,0 mm 1,5 km/h (1 Bft) S 188 ° 0 min 0,000 mm 0,0 UV-I 0 W/m² 7,0 °C 3,2 km/h (1 Bft)
18.10.2016 21:43 7,7 °C 7,7 °C 95 % 1021,5 hPa 0,0 mm 0,3 km/h (0 Bft) S 188 ° 0 min 0,000 mm 0,0 UV-I 0 W/m² 7,0 °C 1,6 km/h (1 Bft)
18.10.2016 21:44 7,7 °C 7,7 °C 95 % 1021,4 hPa 0,0 mm 0,1 km/h (0 Bft) S 188 ° 0 min 0,000 mm 0,0 UV-I 0 W/m² 7,0 °C 1,6 km/h (1 Bft)
18.10.2016 21:45 7,7 °C 7,7 °C 94 % 1021,5 hPa 0,0 mm 0,4 km/h (0 Bft) S 188 ° 0 min 0,000 mm 0,0 UV-I 0 W/m² 6,8 °C 1,6 km/h (1 Bft)
18.10.2016 21:46 7,7 °C 7,7 °C 94 % 1021,5 hPa 0,0 mm 0,0 km/h (0 Bft) S 188 ° 0 min 0,000 mm 0,0 UV-I 0 W/m² 6,8 °C 0,0 km/h (0 Bft)
18.10.2016 21:47 7,7 °C 7,7 °C 94 % 1021,5 hPa 0,0 mm 0,0 km/h (0 Bft) S 188 ° 0 min 0,000 mm 0,0 UV-I 0 W/m² 6,8 °C 0,0 km/h (0 Bft)
18.10.2016 21:48 7,7 °C 7,7 °C 94 % 1021,5 hPa 0,0 mm 0,3 km/h (0 Bft) S 188 ° 0 min 0,000 mm 0,0 UV-I 0 W/m² 6,8 °C 1,6 km/h (1 Bft)
18.10.2016 21:49 7,7 °C 7,7 °C 94 % 1021,6 hPa 0,0 mm 0,0 km/h (0 Bft) S 188 ° 0 min 0,000 mm 0,0 UV-I 0 W/m² 6,8 °C 0,0 km/h (0 Bft)
18.10.2016 21:50 7,8 °C 7,8 °C 94 % 1021,6 hPa 0,0 mm 0,0 km/h (0 Bft) S 188 ° 0 min 0,000 mm 0,0 UV-I 0 W/m² 6,9 °C 0,0 km/h (0 Bft)
18.10.2016 21:51 7,7 °C 7,8 °C 94 % 1021,6 hPa 0,0 mm 0,0 km/h (0 Bft) S 188 ° 0 min 0,000 mm 0,0 UV-I 0 W/m² 6,8 °C 0,0 km/h (0 Bft)
18.10.2016 21:52 7,7 °C 7,8 °C 94 % 1021,5 hPa 0,0 mm 0,1 km/h (0 Bft) S 188 ° 0 min 0,000 mm 0,0 UV-I 0 W/m² 6,8 °C 1,6 km/h (1 Bft)
18.10.2016 21:53 7,7 °C 7,8 °C 94 % 1021,5 hPa 0,0 mm 0,0 km/h (0 Bft) S 188 ° 0 min 0,000 mm 0,0 UV-I 0 W/m² 6,8 °C 0,0 km/h (0 Bft)
18.10.2016 21:54 7,8 °C 7,8 °C 94 % 1021,6 hPa 0,0 mm 0,0 km/h (0 Bft) S 188 ° 0 min 0,000 mm 0,0 UV-I 0 W/m² 6,9 °C 0,0 km/h (0 Bft)
18.10.2016 21:55 7,7 °C 7,8 °C 94 % 1021,6 hPa 0,0 mm 0,0 km/h (0 Bft) S 188 ° 0 min 0,000 mm 0,0 UV-I 0 W/m² 6,8 °C 0,0 km/h (0 Bft)
18.10.2016 21:56 7,7 °C 7,8 °C 94 % 1021,6 hPa 0,0 mm 0,0 km/h (0 Bft) S 188 ° 0 min 0,000 mm 0,0 UV-I 0 W/m² 6,8 °C 0,0 km/h (0 Bft)
18.10.2016 21:57 7,7 °C 7,8 °C 94 % 1021,5 hPa 0,0 mm 0,0 km/h (0 Bft) S 188 ° 0 min 0,000 mm 0,0 UV-I 0 W/m² 6,8 °C 0,0 km/h (0 Bft)
18.10.2016 21:58 7,7 °C 7,7 °C 94 % 1021,5 hPa 0,0 mm 0,0 km/h (0 Bft) S 188 ° 0 min 0,000 mm 0,0 UV-I 0 W/m² 6,8 °C 0,0 km/h (0 Bft)
18.10.2016 21:59 7,7 °C 7,7 °C 94 % 1021,5 hPa 0,0 mm 0,3 km/h (0 Bft) S 188 ° 0 min 0,000 mm 0,0 UV-I 0 W/m² 6,8 °C 1,6 km/h (1 Bft)
18.10.2016 22:00 7,7 °C 7,7 °C 94 % 1021,6 hPa 0,0 mm 1,2 km/h (1 Bft) S 188 ° 0 min 0,000 mm 0,0 UV-I 0 W/m² 6,8 °C 1,6 km/h (1 Bft)
18.10.2016 22:01 7,7 °C 7,7 °C 94 % 1021,6 hPa 0,0 mm 0,0 km/h (0 Bft) S 188 ° 0 min 0,000 mm 0,0 UV-I 0 W/m² 6,8 °C 0,0 km/h (0 Bft)
18.10.2016 22:02 7,8 °C 7,8 °C 94 % 1021,6 hPa 0,0 mm 0,0 km/h (0 Bft) S 188 ° 0 min 0,000 mm 0,0 UV-I 0 W/m² 6,9 °C 0,0 km/h (0 Bft)
18.10.2016 22:03 7,7 °C 7,8 °C 94 % 1021,6 hPa 0,0 mm 0,0 km/h (0 Bft) S 188 ° 0 min 0,000 mm 0,0 UV-I 0 W/m² 6,8 °C 0,0 km/h (0 Bft)
18.10.2016 22:04 7,7 °C 7,8 °C 94 % 1021,6 hPa 0,0 mm 0,8 km/h (0 Bft) S 188 ° 0 min 0,000 mm 0,0 UV-I 0 W/m² 6,8 °C 1,6 km/h (1 Bft)
18.10.2016 22:05 7,7 °C 7,7 °C 94 % 1021,5 hPa 0,0 mm 1,3 km/h (1 Bft) S 188 ° 0 min 0,000 mm 0,0 UV-I 0 W/m² 6,8 °C 3,2 km/h (1 Bft)
18.10.2016 22:06 7,8 °C 7,8 °C 94 % 1021,5 hPa 0,0 mm 0,9 km/h (0 Bft) S 188 ° 0 min 0,000 mm 0,0 UV-I 0 W/m² 6,9 °C 3,2 km/h (1 Bft)
18.10.2016 22:07 7,8 °C 7,8 °C 94 % 1021,5 hPa 0,0 mm 1,9 km/h (1 Bft) S 188 ° 0 min 0,000 mm 0,0 UV-I 0 W/m² 6,9 °C 3,2 km/h (1 Bft)
18.10.2016 22:08 7,8 °C 7,8 °C 94 % 1021,5 hPa 0,0 mm 3,3 km/h (1 Bft) S 187 ° 0 min 0,000 mm 0,0 UV-I 0 W/m² 6,9 °C 4,8 km/h (1 Bft)
18.10.2016 22:09 7,8 °C 7,8 °C 94 % 1021,5 hPa 0,0 mm 2,8 km/h (1 Bft) S 186 ° 0 min 0,000 mm 0,0 UV-I 0 W/m² 6,9 °C 3,2 km/h (1 Bft)
18.10.2016 22:10 7,8 °C 7,8 °C 94 % 1021,5 hPa 0,0 mm 1,2 km/h (1 Bft) S 186 ° 0 min 0,000 mm 0,0 UV-I 0 W/m² 6,9 °C 4,8 km/h (1 Bft)
18.10.2016 22:11 7,8 °C 7,8 °C 94 % 1021,4 hPa 0,0 mm 1,7 km/h (1 Bft) S 186 ° 0 min 0,000 mm 0,0 UV-I 0 W/m² 6,9 °C 3,2 km/h (1 Bft)
18.10.2016 22:12 7,8 °C 7,8 °C 94 % 1021,5 hPa 0,0 mm 0,7 km/h (0 Bft) S 186 ° 0 min 0,000 mm 0,0 UV-I 0 W/m² 6,9 °C 1,6 km/h (1 Bft)
18.10.2016 22:13 7,7 °C 7,8 °C 94 % 1021,5 hPa 0,0 mm 0,5 km/h (0 Bft) S 186 ° 0 min 0,000 mm 0,0 UV-I 0 W/m² 6,8 °C 1,6 km/h (1 Bft)
18.10.2016 22:14 7,7 °C 7,7 °C 94 % 1021,5 hPa 0,0 mm 0,5 km/h (0 Bft) S 186 ° 0 min 0,000 mm 0,0 UV-I 0 W/m² 6,8 °C 3,2 km/h (1 Bft)
18.10.2016 22:15 7,7 °C 7,7 °C 94 % 1021,4 hPa 0,0 mm 2,0 km/h (1 Bft) S 186 ° 0 min 0,000 mm 0,0 UV-I 0 W/m² 6,8 °C 3,2 km/h (1 Bft)
18.10.2016 22:16 7,7 °C 7,7 °C 94 % 1021,5 hPa 0,0 mm 2,2 km/h (1 Bft) S 186 ° 0 min 0,000 mm 0,0 UV-I 0 W/m² 6,8 °C 3,2 km/h (1 Bft)
18.10.2016 22:17 7,7 °C 7,7 °C 94 % 1021,4 hPa 0,0 mm 0,9 km/h (0 Bft) S 186 ° 0 min 0,000 mm 0,0 UV-I 0 W/m² 6,8 °C 3,2 km/h (1 Bft)
18.10.2016 22:18 7,6 °C 7,7 °C 94 % 1021,4 hPa 0,0 mm 1,5 km/h (1 Bft) S 186 ° 0 min 0,000 mm 0,0 UV-I 0 W/m² 6,7 °C 3,2 km/h (1 Bft)
18.10.2016 22:19 7,6 °C 7,6 °C 94 % 1021,4 hPa 0,0 mm 0,8 km/h (0 Bft) S 186 ° 0 min 0,000 mm 0,0 UV-I 0 W/m² 6,7 °C 1,6 km/h (1 Bft)
18.10.2016 22:20 7,5 °C 7,6 °C 94 % 1021,4 hPa 0,0 mm 0,1 km/h (0 Bft) S 186 ° 0 min 0,000 mm 0,0 UV-I 0 W/m² 6,6 °C 1,6 km/h (1 Bft)
18.10.2016 22:21 7,4 °C 7,5 °C 94 % 1021,4 hPa 0,0 mm 0,8 km/h (0 Bft) S 186 ° 0 min 0,000 mm 0,0 UV-I 0 W/m² 6,5 °C 1,6 km/h (1 Bft)
18.10.2016 22:22 7,4 °C 7,4 °C 94 % 1021,4 hPa 0,0 mm 0,3 km/h (0 Bft) S 186 ° 0 min 0,000 mm 0,0 UV-I 0 W/m² 6,5 °C 1,6 km/h (1 Bft)
18.10.2016 22:23 7,4 °C 7,5 °C 94 % 1021,5 hPa 0,0 mm 0,8 km/h (0 Bft) S 186 ° 0 min 0,000 mm 0,0 UV-I 0 W/m² 6,5 °C 1,6 km/h (1 Bft)
18.10.2016 22:24 7,5 °C 7,5 °C 94 % 1021,5 hPa 0,0 mm 1,9 km/h (1 Bft) S 186 ° 0 min 0,000 mm 0,0 UV-I 0 W/m² 6,6 °C 3,2 km/h (1 Bft)
18.10.2016 22:25 7,5 °C 7,6 °C 94 % 1021,6 hPa 0,0 mm 1,5 km/h (1 Bft) S 186 ° 0 min 0,000 mm 0,0 UV-I 0 W/m² 6,6 °C 3,2 km/h (1 Bft)
18.10.2016 22:26 7,6 °C 7,6 °C 94 % 1021,5 hPa 0,0 mm 0,4 km/h (0 Bft) S 186 ° 0 min 0,000 mm 0,0 UV-I 0 W/m² 6,7 °C 1,6 km/h (1 Bft)
18.10.2016 22:27 7,6 °C 7,6 °C 94 % 1021,4 hPa 0,0 mm 0,8 km/h (0 Bft) S 186 ° 0 min 0,000 mm 0,0 UV-I 0 W/m² 6,7 °C 1,6 km/h (1 Bft)
18.10.2016 22:28 7,5 °C 7,6 °C 94 % 1021,5 hPa 0,0 mm 0,5 km/h (0 Bft) S 186 ° 0 min 0,000 mm 0,0 UV-I 0 W/m² 6,6 °C 1,6 km/h (1 Bft)
18.10.2016 22:29 7,5 °C 7,5 °C 94 % 1021,5 hPa 0,0 mm 0,4 km/h (0 Bft) S 186 ° 0 min 0,000 mm 0,0 UV-I 0 W/m² 6,6 °C 1,6 km/h (1 Bft)
18.10.2016 22:30 7,4 °C 7,5 °C 94 % 1021,5 hPa 0,0 mm 1,1 km/h (1 Bft) S 186 ° 0 min 0,000 mm 0,0 UV-I 0 W/m² 6,5 °C 1,6 km/h (1 Bft)
18.10.2016 22:31 7,6 °C 7,6 °C 94 % 1021,5 hPa 0,0 mm 0,4 km/h (0 Bft) S 186 ° 0 min 0,000 mm 0,0 UV-I 0 W/m² 6,7 °C 1,6 km/h (1 Bft)
18.10.2016 22:32 7,5 °C 7,6 °C 94 % 1021,5 hPa 0,0 mm 0,2 km/h (0 Bft) S 186 ° 0 min 0,000 mm 0,0 UV-I 0 W/m² 6,6 °C 1,6 km/h (1 Bft)
18.10.2016 22:33 7,6 °C 7,6 °C 94 % 1021,5 hPa 0,0 mm 0,5 km/h (0 Bft) S 186 ° 0 min 0,000 mm 0,0 UV-I 0 W/m² 6,7 °C 1,6 km/h (1 Bft)
18.10.2016 22:34 7,6 °C 7,6 °C 94 % 1021,5 hPa 0,0 mm 0,6 km/h (0 Bft) S 186 ° 0 min 0,000 mm 0,0 UV-I 0 W/m² 6,7 °C 1,6 km/h (1 Bft)
18.10.2016 22:35 7,6 °C 7,6 °C 94 % 1021,5 hPa 0,0 mm 0,1 km/h (0 Bft) S 186 ° 0 min 0,000 mm 0,0 UV-I 0 W/m² 6,7 °C 1,6 km/h (1 Bft)
18.10.2016 22:36 7,6 °C 7,6 °C 94 % 1021,5 hPa 0,0 mm 1,1 km/h (1 Bft) S 186 ° 0 min 0,000 mm 0,0 UV-I 0 W/m² 6,7 °C 3,2 km/h (1 Bft)
18.10.2016 22:37 7,6 °C 7,6 °C 94 % 1021,5 hPa 0,0 mm 0,7 km/h (0 Bft) S 186 ° 0 min 0,000 mm 0,0 UV-I 0 W/m² 6,7 °C 3,2 km/h (1 Bft)
18.10.2016 22:38 7,6 °C 7,6 °C 94 % 1021,5 hPa 0,0 mm 0,4 km/h (0 Bft) S 186 ° 0 min 0,000 mm 0,0 UV-I 0 W/m² 6,7 °C 1,6 km/h (1 Bft)
18.10.2016 22:39 7,6 °C 7,6 °C 94 % 1021,5 hPa 0,0 mm 0,7 km/h (0 Bft) S 186 ° 0 min 0,000 mm 0,0 UV-I 0 W/m² 6,7 °C 1,6 km/h (1 Bft)
18.10.2016 22:40 7,6 °C 7,6 °C 94 % 1021,5 hPa 0,0 mm 0,9 km/h (0 Bft) S 186 ° 0 min 0,000 mm 0,0 UV-I 0 W/m² 6,7 °C 3,2 km/h (1 Bft)
18.10.2016 22:41 7,7 °C 7,7 °C 94 % 1021,5 hPa 0,0 mm 1,6 km/h (1 Bft) S 186 ° 0 min 0,000 mm 0,0 UV-I 0 W/m² 6,8 °C 3,2 km/h (1 Bft)
18.10.2016 22:42 7,7 °C 7,7 °C 94 % 1021,5 hPa 0,0 mm 2,4 km/h (1 Bft) S 187 ° 0 min 0,000 mm 0,0 UV-I 0 W/m² 6,8 °C 3,2 km/h (1 Bft)
18.10.2016 22:43 7,7 °C 7,7 °C 94 % 1021,5 hPa 0,0 mm 3,5 km/h (1 Bft) S 181 ° 0 min 0,000 mm 0,0 UV-I 0 W/m² 6,8 °C 4,8 km/h (1 Bft)
18.10.2016 22:44 7,7 °C 7,7 °C 94 % 1021,5 hPa 0,0 mm 2,9 km/h (1 Bft) S 181 ° 0 min 0,000 mm 0,0 UV-I 0 W/m² 6,8 °C 3,2 km/h (1 Bft)
18.10.2016 22:45 7,8 °C 7,8 °C 94 % 1021,5 hPa 0,0 mm 3,0 km/h (1 Bft) S 181 ° 0 min 0,000 mm 0,0 UV-I 0 W/m² 6,9 °C 3,2 km/h (1 Bft)
18.10.2016 22:46 7,7 °C 7,8 °C 94 % 1021,5 hPa 0,0 mm 1,9 km/h (1 Bft) S 181 ° 0 min 0,000 mm 0,0 UV-I 0 W/m² 6,8 °C 3,2 km/h (1 Bft)
18.10.2016 22:47 7,7 °C 7,7 °C 94 % 1021,4 hPa 0,0 mm 1,3 km/h (1 Bft) S 181 ° 0 min 0,000 mm 0,0 UV-I 0 W/m² 6,8 °C 1,6 km/h (1 Bft)
18.10.2016 22:48 7,7 °C 7,7 °C 94 % 1021,4 hPa 0,0 mm 0,9 km/h (0 Bft) S 181 ° 0 min 0,000 mm 0,0 UV-I 0 W/m² 6,8 °C 3,2 km/h (1 Bft)
18.10.2016 22:49 7,7 °C 7,7 °C 94 % 1021,4 hPa 0,0 mm 1,6 km/h (1 Bft) S 181 ° 0 min 0,000 mm 0,0 UV-I 0 W/m² 6,8 °C 1,6 km/h (1 Bft)
18.10.2016 22:50 7,7 °C 7,7 °C 94 % 1021,4 hPa 0,0 mm 1,6 km/h (1 Bft) S 181 ° 0 min 0,000 mm 0,0 UV-I 0 W/m² 6,8 °C 3,2 km/h (1 Bft)
18.10.2016 22:51 7,7 °C 7,8 °C 94 % 1021,4 hPa 0,0 mm 1,7 km/h (1 Bft) S 181 ° 0 min 0,000 mm 0,0 UV-I 0 W/m² 6,8 °C 3,2 km/h (1 Bft)
18.10.2016 22:52 7,8 °C 7,8 °C 94 % 1021,4 hPa 0,0 mm 0,8 km/h (0 Bft) S 181 ° 0 min 0,000 mm 0,0 UV-I 0 W/m² 6,9 °C 1,6 km/h (1 Bft)
18.10.2016 22:53 7,7 °C 7,8 °C 94 % 1021,4 hPa 0,0 mm 0,0 km/h (0 Bft) S 181 ° 0 min 0,000 mm 0,0 UV-I 0 W/m² 6,8 °C 0,0 km/h (0 Bft)
18.10.2016 22:54 7,7 °C 7,7 °C 94 % 1021,4 hPa 0,0 mm 0,3 km/h (0 Bft) S 181 ° 0 min 0,000 mm 0,0 UV-I 0 W/m² 6,8 °C 1,6 km/h (1 Bft)
18.10.2016 22:55 7,7 °C 7,7 °C 94 % 1021,4 hPa 0,0 mm 0,5 km/h (0 Bft) S 181 ° 0 min 0,000 mm 0,0 UV-I 0 W/m² 6,8 °C 1,6 km/h (1 Bft)
18.10.2016 22:56 7,7 °C 7,7 °C 94 % 1021,4 hPa 0,0 mm 0,0 km/h (0 Bft) S 181 ° 0 min 0,000 mm 0,0 UV-I 0 W/m² 6,8 °C 0,0 km/h (0 Bft)
18.10.2016 22:57 7,8 °C 7,8 °C 94 % 1021,4 hPa 0,0 mm 2,6 km/h (1 Bft) S 181 ° 0 min 0,000 mm 0,0 UV-I 0 W/m² 6,9 °C 4,8 km/h (1 Bft)
18.10.2016 22:58 7,8 °C 7,8 °C 94 % 1021,4 hPa 0,0 mm 2,8 km/h (1 Bft) S 181 ° 0 min 0,000 mm 0,0 UV-I 0 W/m² 6,9 °C 3,2 km/h (1 Bft)
18.10.2016 22:59 7,8 °C 7,8 °C 94 % 1021,4 hPa 0,0 mm 2,0 km/h (1 Bft) S 181 ° 0 min 0,000 mm 0,0 UV-I 0 W/m² 6,9 °C 3,2 km/h (1 Bft)
18.10.2016 23:00 7,8 °C 7,8 °C 94 % 1021,3 hPa 0,0 mm 0,9 km/h (0 Bft) S 181 ° 0 min 0,000 mm 0,0 UV-I 0 W/m² 6,9 °C 1,6 km/h (1 Bft)
18.10.2016 23:01 7,8 °C 7,8 °C 94 % 1021,4 hPa 0,0 mm 0,3 km/h (0 Bft) S 181 ° 0 min 0,000 mm 0,0 UV-I 0 W/m² 6,9 °C 1,6 km/h (1 Bft)
18.10.2016 23:02 7,8 °C 7,8 °C 94 % 1021,4 hPa 0,0 mm 2,1 km/h (1 Bft) S 177 ° 0 min 0,000 mm 0,0 UV-I 0 W/m² 6,9 °C 3,2 km/h (1 Bft)
18.10.2016 23:03 7,8 °C 7,8 °C 94 % 1021,3 hPa 0,0 mm 3,0 km/h (1 Bft) S 176 ° 0 min 0,000 mm 0,0 UV-I 0 W/m² 6,9 °C 4,8 km/h (1 Bft)
18.10.2016 23:04 7,8 °C 7,8 °C 94 % 1021,3 hPa 0,0 mm 3,4 km/h (1 Bft) S 175 ° 0 min 0,000 mm 0,0 UV-I 0 W/m² 6,9 °C 4,8 km/h (1 Bft)
18.10.2016 23:05 7,8 °C 7,8 °C 94 % 1021,3 hPa 0,0 mm 3,1 km/h (1 Bft) S 175 ° 0 min 0,000 mm 0,0 UV-I 0 W/m² 6,9 °C 4,8 km/h (1 Bft)
18.10.2016 23:06 7,8 °C 7,8 °C 94 % 1021,3 hPa 0,0 mm 1,9 km/h (1 Bft) S 175 ° 0 min 0,000 mm 0,0 UV-I 0 W/m² 6,9 °C 3,2 km/h (1 Bft)
18.10.2016 23:07 7,8 °C 7,8 °C 94 % 1021,3 hPa 0,0 mm 1,8 km/h (1 Bft) S 175 ° 0 min 0,000 mm 0,0 UV-I 0 W/m² 6,9 °C 3,2 km/h (1 Bft)
18.10.2016 23:08 7,8 °C 7,8 °C 94 % 1021,2 hPa 0,0 mm 0,2 km/h (0 Bft) S 175 ° 0 min 0,000 mm 0,0 UV-I 0 W/m² 6,9 °C 1,6 km/h (1 Bft)
18.10.2016 23:09 7,8 °C 7,8 °C 94 % 1021,2 hPa 0,0 mm 0,3 km/h (0 Bft) S 175 ° 0 min 0,000 mm 0,0 UV-I 0 W/m² 6,9 °C 1,6 km/h (1 Bft)
18.10.2016 23:10 7,7 °C 7,8 °C 94 % 1021,2 hPa 0,0 mm 0,6 km/h (0 Bft) S 175 ° 0 min 0,000 mm 0,0 UV-I 0 W/m² 6,8 °C 1,6 km/h (1 Bft)
18.10.2016 23:11 7,7 °C 7,7 °C 93 % 1021,2 hPa 0,0 mm 0,0 km/h (0 Bft) S 175 ° 0 min 0,000 mm 0,0 UV-I 0 W/m² 6,6 °C 0,0 km/h (0 Bft)
18.10.2016 23:12 7,7 °C 7,7 °C 93 % 1021,2 hPa 0,0 mm 2,4 km/h (1 Bft) S 175 ° 0 min 0,000 mm 0,0 UV-I 0 W/m² 6,6 °C 3,2 km/h (1 Bft)
18.10.2016 23:13 7,6 °C 7,7 °C 93 % 1021,3 hPa 0,0 mm 1,9 km/h (1 Bft) S 175 ° 0 min 0,000 mm 0,0 UV-I 0 W/m² 6,5 °C 3,2 km/h (1 Bft)
18.10.2016 23:14 7,6 °C 7,6 °C 93 % 1021,3 hPa 0,0 mm 1,9 km/h (1 Bft) S 175 ° 0 min 0,000 mm 0,0 UV-I 0 W/m² 6,5 °C 3,2 km/h (1 Bft)
18.10.2016 23:15 7,6 °C 7,6 °C 93 % 1021,2 hPa 0,0 mm 1,2 km/h (1 Bft) S 175 ° 0 min 0,000 mm 0,0 UV-I 0 W/m² 6,5 °C 3,2 km/h (1 Bft)
18.10.2016 23:16 7,6 °C 7,6 °C 93 % 1021,3 hPa 0,0 mm 1,4 km/h (1 Bft) S 175 ° 0 min 0,000 mm 0,0 UV-I 0 W/m² 6,5 °C 3,2 km/h (1 Bft)
18.10.2016 23:17 7,4 °C 7,6 °C 93 % 1021,3 hPa 0,0 mm 0,8 km/h (0 Bft) S 175 ° 0 min 0,000 mm 0,0 UV-I 0 W/m² 6,3 °C 1,6 km/h (1 Bft)
18.10.2016 23:18 7,4 °C 7,4 °C 93 % 1021,3 hPa 0,0 mm 0,2 km/h (0 Bft) S 175 ° 0 min 0,000 mm 0,0 UV-I 0 W/m² 6,3 °C 1,6 km/h (1 Bft)
18.10.2016 23:19 7,4 °C 7,4 °C 93 % 1021,3 hPa 0,0 mm 0,9 km/h (0 Bft) S 175 ° 0 min 0,000 mm 0,0 UV-I 0 W/m² 6,3 °C 3,2 km/h (1 Bft)
18.10.2016 23:20 7,4 °C 7,4 °C 93 % 1021,3 hPa 0,0 mm 2,4 km/h (1 Bft) S 180 ° 0 min 0,000 mm 0,0 UV-I 0 W/m² 6,3 °C 3,2 km/h (1 Bft)
18.10.2016 23:21 7,4 °C 7,4 °C 93 % 1021,3 hPa 0,0 mm 4,0 km/h (1 Bft) S 180 ° 0 min 0,000 mm 0,0 UV-I 0 W/m² 6,3 °C 4,8 km/h (1 Bft)
18.10.2016 23:22 7,4 °C 7,4 °C 93 % 1021,3 hPa 0,0 mm 2,7 km/h (1 Bft) S 180 ° 0 min 0,000 mm 0,0 UV-I 0 W/m² 6,3 °C 4,8 km/h (1 Bft)
18.10.2016 23:23 7,5 °C 7,5 °C 93 % 1021,3 hPa 0,0 mm 2,7 km/h (1 Bft) S 180 ° 0 min 0,000 mm 0,0 UV-I 0 W/m² 6,4 °C 4,8 km/h (1 Bft)
18.10.2016 23:24 7,5 °C 7,5 °C 93 % 1021,2 hPa 0,0 mm 2,9 km/h (1 Bft) S 180 ° 0 min 0,000 mm 0,0 UV-I 0 W/m² 6,4 °C 3,2 km/h (1 Bft)
18.10.2016 23:25 7,4 °C 7,5 °C 93 % 1021,2 hPa 0,0 mm 1,9 km/h (1 Bft) S 180 ° 0 min 0,000 mm 0,0 UV-I 0 W/m² 6,3 °C 3,2 km/h (1 Bft)
18.10.2016 23:26 7,4 °C 7,5 °C 93 % 1021,2 hPa 0,0 mm 2,3 km/h (1 Bft) S 180 ° 0 min 0,000 mm 0,0 UV-I 0 W/m² 6,3 °C 3,2 km/h (1 Bft)
18.10.2016 23:27 7,4 °C 7,4 °C 93 % 1021,2 hPa 0,0 mm 1,3 km/h (1 Bft) S 180 ° 0 min 0,000 mm 0,0 UV-I 0 W/m² 6,3 °C 3,2 km/h (1 Bft)
18.10.2016 23:28 7,4 °C 7,4 °C 94 % 1021,1 hPa 0,0 mm 3,2 km/h (1 Bft) S 180 ° 0 min 0,000 mm 0,0 UV-I 0 W/m² 6,5 °C 4,8 km/h (1 Bft)
18.10.2016 23:29 7,4 °C 7,4 °C 94 % 1021,1 hPa 0,0 mm 3,4 km/h (1 Bft) S-SO 149 ° 0 min 0,000 mm 0,0 UV-I 0 W/m² 6,5 °C 4,8 km/h (1 Bft)
18.10.2016 23:30 7,4 °C 7,4 °C 94 % 1021,1 hPa 0,0 mm 3,7 km/h (1 Bft) S-SO 149 ° 0 min 0,000 mm 0,0 UV-I 0 W/m² 6,5 °C 4,8 km/h (1 Bft)
18.10.2016 23:31 7,4 °C 7,5 °C 94 % 1021,1 hPa 0,0 mm 2,3 km/h (1 Bft) S-SO 149 ° 0 min 0,000 mm 0,0 UV-I 0 W/m² 6,5 °C 3,2 km/h (1 Bft)
18.10.2016 23:32 7,5 °C 7,5 °C 94 % 1021,1 hPa 0,0 mm 2,3 km/h (1 Bft) S-SO 149 ° 0 min 0,000 mm 0,0 UV-I 0 W/m² 6,6 °C 3,2 km/h (1 Bft)
18.10.2016 23:33 7,4 °C 7,5 °C 94 % 1021,1 hPa 0,0 mm 2,8 km/h (1 Bft) S-SO 149 ° 0 min 0,000 mm 0,0 UV-I 0 W/m² 6,5 °C 3,2 km/h (1 Bft)
18.10.2016 23:34 7,5 °C 7,5 °C 94 % 1021,1 hPa 0,0 mm 3,0 km/h (1 Bft) S-SO 165 ° 0 min 0,000 mm 0,0 UV-I 0 W/m² 6,6 °C 6,4 km/h (2 Bft)
18.10.2016 23:35 7,5 °C 7,5 °C 94 % 1021,1 hPa 0,0 mm 4,0 km/h (1 Bft) S-SO 153 ° 0 min 0,000 mm 0,0 UV-I 0 W/m² 6,6 °C 6,4 km/h (2 Bft)
18.10.2016 23:36 7,6 °C 7,6 °C 94 % 1021,1 hPa 0,0 mm 2,1 km/h (1 Bft) S-SO 153 ° 0 min 0,000 mm 0,0 UV-I 0 W/m² 6,7 °C 3,2 km/h (1 Bft)
18.10.2016 23:37 7,6 °C 7,6 °C 94 % 1021,1 hPa 0,0 mm 0,3 km/h (0 Bft) S-SO 153 ° 0 min 0,000 mm 0,0 UV-I 0 W/m² 6,7 °C 1,6 km/h (1 Bft)
18.10.2016 23:38 7,6 °C 7,6 °C 94 % 1021,1 hPa 0,0 mm 0,6 km/h (0 Bft) S-SO 153 ° 0 min 0,000 mm 0,0 UV-I 0 W/m² 6,7 °C 1,6 km/h (1 Bft)
18.10.2016 23:39 7,6 °C 7,6 °C 94 % 1021,1 hPa 0,0 mm 5,2 km/h (1 Bft) S 175 ° 0 min 0,000 mm 0,0 UV-I 0 W/m² 6,7 °C 8,0 km/h (2 Bft)
18.10.2016 23:40 7,6 °C 7,6 °C 94 % 1021,1 hPa 0,0 mm 4,5 km/h (1 Bft) S 186 ° 0 min 0,000 mm 0,0 UV-I 0 W/m² 6,7 °C 8,0 km/h (2 Bft)
18.10.2016 23:41 7,7 °C 7,7 °C 94 % 1021,1 hPa 0,0 mm 0,3 km/h (0 Bft) S 186 ° 0 min 0,000 mm 0,0 UV-I 0 W/m² 6,8 °C 1,6 km/h (1 Bft)
18.10.2016 23:42 7,7 °C 7,7 °C 94 % 1021,1 hPa 0,0 mm 0,5 km/h (0 Bft) S 186 ° 0 min 0,000 mm 0,0 UV-I 0 W/m² 6,8 °C 1,6 km/h (1 Bft)
18.10.2016 23:43 7,7 °C 7,7 °C 93 % 1021,1 hPa 0,0 mm 3,9 km/h (1 Bft) S-SW 194 ° 0 min 0,000 mm 0,0 UV-I 0 W/m² 6,6 °C 6,4 km/h (2 Bft)
18.10.2016 23:44 7,8 °C 7,8 °C 93 % 1021,1 hPa 0,0 mm 5,7 km/h (1 Bft) S-SW 195 ° 0 min 0,000 mm 0,0 UV-I 0 W/m² 6,7 °C 8,0 km/h (2 Bft)
18.10.2016 23:45 7,8 °C 7,8 °C 93 % 1021,1 hPa 0,0 mm 5,8 km/h (2 Bft) S-SW 193 ° 0 min 0,000 mm 0,0 UV-I 0 W/m² 6,7 °C 6,4 km/h (2 Bft)
18.10.2016 23:46 7,8 °C 7,8 °C 92 % 1021,1 hPa 0,0 mm 2,6 km/h (1 Bft) S-SW 193 ° 0 min 0,000 mm 0,0 UV-I 0 W/m² 6,6 °C 4,8 km/h (1 Bft)
18.10.2016 23:47 7,9 °C 7,9 °C 92 % 1021,1 hPa 0,0 mm 1,9 km/h (1 Bft) S-SW 193 ° 0 min 0,000 mm 0,0 UV-I 0 W/m² 6,7 °C 3,2 km/h (1 Bft)
18.10.2016 23:48 7,9 °C 7,9 °C 92 % 1021,1 hPa 0,0 mm 2,1 km/h (1 Bft) S-SW 193 ° 0 min 0,000 mm 0,0 UV-I 0 W/m² 6,7 °C 3,2 km/h (1 Bft)
18.10.2016 23:49 8,0 °C 8,0 °C 92 % 1021,0 hPa 0,0 mm 2,2 km/h (1 Bft) S-SW 194 ° 0 min 0,000 mm 0,0 UV-I 0 W/m² 6,8 °C 4,8 km/h (1 Bft)
18.10.2016 23:50 8,1 °C 8,1 °C 91 % 1021,1 hPa 0,0 mm 4,0 km/h (1 Bft) S 190 ° 0 min 0,000 mm 0,0 UV-I 0 W/m² 6,7 °C 4,8 km/h (1 Bft)
18.10.2016 23:51 8,1 °C 8,1 °C 91 % 1021,0 hPa 0,0 mm 2,7 km/h (1 Bft) S 190 ° 0 min 0,000 mm 0,0 UV-I 0 W/m² 6,7 °C 4,8 km/h (1 Bft)
18.10.2016 23:52 8,1 °C 8,1 °C 91 % 1021,1 hPa 0,0 mm 4,0 km/h (1 Bft) S 188 ° 0 min 0,000 mm 0,0 UV-I 0 W/m² 6,7 °C 6,4 km/h (2 Bft)
18.10.2016 23:53 8,1 °C 8,1 °C 91 % 1021,0 hPa 0,0 mm 4,3 km/h (1 Bft) S-SW 208 ° 0 min 0,000 mm 0,0 UV-I 0 W/m² 6,7 °C 4,8 km/h (1 Bft)
18.10.2016 23:54 8,1 °C 8,1 °C 91 % 1021,1 hPa 0,0 mm 4,3 km/h (1 Bft) S-SW 194 ° 0 min 0,000 mm 0,0 UV-I 0 W/m² 6,7 °C 6,4 km/h (2 Bft)
18.10.2016 23:55 8,1 °C 8,1 °C 91 % 1021,2 hPa 0,0 mm 4,0 km/h (1 Bft) S-SW 194 ° 0 min 0,000 mm 0,0 UV-I 0 W/m² 6,7 °C 6,4 km/h (2 Bft)
18.10.2016 23:56 8,1 °C 8,2 °C 91 % 1021,1 hPa 0,0 mm 3,2 km/h (1 Bft) S-SW 194 ° 0 min 0,000 mm 0,0 UV-I 0 W/m² 6,7 °C 4,8 km/h (1 Bft)
18.10.2016 23:57 8,1 °C 8,2 °C 91 % 1021,1 hPa 0,0 mm 1,6 km/h (1 Bft) S-SW 194 ° 0 min 0,000 mm 0,0 UV-I 0 W/m² 6,7 °C 3,2 km/h (1 Bft)
18.10.2016 23:58 8,1 °C 8,1 °C 92 % 1021,1 hPa 0,0 mm 1,5 km/h (1 Bft) S-SW 194 ° 0 min 0,000 mm 0,0 UV-I 0 W/m² 6,9 °C 1,6 km/h (1 Bft)
18.10.2016 23:59 8,1 °C 8,1 °C 92 % 1021,1 hPa 0,0 mm 0,3 km/h (0 Bft) S-SW 194 ° 0 min 0,000 mm 0,0 UV-I 0 W/m² 6,9 °C 1,6 km/h (1 Bft)
_ Min-Zeit 21:18 21:17 15:19 17:13 - 23:11 - - - - - - 21:14 23:11
Minimum _ 6,8 °C 6,8 °C 82 % 1020,9 hPa - 0,0 km/h (0 Bft) - - - - - - 5,7 °C 0,0 km/h (0 Bft)
_ Max-Zeit 15:03 15:04 09:47 00:14 10:53 12:46 - - 18:11 15:01 14:13 14:25 14:14 12:46
Maximum _ 12,7 °C 12,7 °C 97 % 1022,6 hPa 0,2 mm 13,1 km/h
S-SW (3 Bft)
- - 1 min 0,178 mm 2,9 UV-I 689 W/m² 10,8 °C 19,3 km/h
W (3 Bft)
Durchschnitt _ 9,5 °C 9,5 °C 93 % 1021,6 hPa #6,4 mm 2,2 km/h (1 Bft) W-SW - #1:22 h #0,635 mm 1,2 UV-I 51 W/m² 8,4 °C 3,9 km/h (1 Bft)